[[[{"header":{"parameterUnit":"kt","parameterCategory":2,"dx":1,"dy":1,"la1":29.285339999999998,"la2":30.599998999999997,"lo1":-89.70041500000002,"lo2":-87.6738589999976,"nx":112,"ny":82,"refTime":"2022-10-23T00:00:00:Z","depth":0,"parameterNumber":1,"parameterNumberName":"U-component_of_WINDS"},"data":[-9.1999,-9.1347,0.0,-8.3365,-8.1431,0.0,-7.3175,0.0,-7.0285,0.0,0.0,0.0,0.0,0.0,0.0,0.0,0.0,0.0,0.0,0.0,0.0,0.0,0.0,0.0,0.0,0.0,0.0,0.0,0.0,0.0,0.0,0.0,-7.2363,-7.5636,-7.7831,-7.9458,-8.0486,-8.0584,-8.0455,-8.0161,-8.0649,-8.0649,-8.0326,-8.0713,-8.0649,-8.0261,-8.0026,-7.9698,-7.924,-7.8802,-7.8465,-7.836,-7.8398,-7.8126,-7.7775,-7.7775,-7.7094,-7.6084,-7.5771,-7.5343,-7.5028,-7.5315,-7.5056,-7.4579,-7.4186,-7.3599,-7.296,-7.2436,-7.2285,-7.221,-7.1956,-7.2135,-7.221,-7.1956,-7.1479,-7.097,-7.0584,-6.9832,-6.8889,-6.7935,-6.697,-6.6074,-6.5392,-6.4755,-6.4388,-6.4388,-6.4388,-6.4304,-6.4112,-6.3777,-6.3403,-6.2949,-6.2503,-6.1969,-6.1451,-6.1317,-6.1372,-6.1372,-6.0877,-6.0507,-6.042,-6.0095,-5.9746,-5.9175,-5.9175,-5.8999,-5.8735,-5.858,-5.8337,-5.8093,-5.7737,-5.7559,0.0,0.0,-8.5641,-8.0246,0.0,0.0,0.0,0.0,0.0,0.0,0.0,0.0,0.0,0.0,0.0,0.0,0.0,0.0,0.0,0.0,0.0,0.0,0.0,0.0,0.0,0.0,0.0,0.0,0.0,0.0,0.0,-7.0871,-7.4267,-7.7056,-7.8879,-8.0171,-8.0841,-8.0841,-8.0713,-8.052,-8.0777,-8.0713,-8.052,-8.0777,-8.0713,-8.0455,-8.0092,-7.9763,-7.9469,-7.8906,-7.8668,-7.8465,-7.8668,-7.8398,-7.7951,-7.7843,-7.7332,-7.6676,-7.5913,-7.5558,-7.5458,-7.5558,-7.53,-7.4724,-7.4332,-7.3701,-7.3062,-7.2736,-7.2586,-7.2436,-7.221,-7.2285,-7.2436,-7.2059,-7.1631,-7.1227,-7.0843,-7.017,-6.9388,-6.8573,-6.7615,-6.6726,-6.5885,-6.5335,-6.4946,-6.478,-6.4755,-6.4613,-6.4388,-6.4029,-6.3654,-6.3255,-6.2755,-6.2332,-6.187,-6.1657,-6.163,-6.163,-6.1113,-6.0854,-6.0854,-6.0617,-6.0269,-5.9723,-5.9526,-5.935,-5.8999,-5.8823,-5.858,-5.8337,-5.8337,-5.8271,0.0,0.0,0.0,-7.7103,0.0,0.0,0.0,0.0,-6.312,0.0,0.0,0.0,0.0,0.0,0.0,0.0,0.0,0.0,0.0,0.0,0.0,0.0,0.0,0.0,0.0,0.0,0.0,0.0,0.0,0.0,-6.8474,-7.2134,-7.4986,-7.7242,-7.9585,-8.0841,-8.0841,-8.0841,-8.0841,-8.0841,-8.0841,-8.0841,-8.0841,-8.0841,-8.0841,-8.0841,-8.0157,-7.9925,-7.986,-7.907,-7.8705,-7.8705,-7.8705,-7.86,-7.8292,-7.7882,-7.7539,-7.7065,-7.6295,-7.5771,-7.5558,-7.5871,-7.5515,-7.4796,-7.4405,-7.3701,-7.3136,-7.3136,-7.2811,-7.2511,-7.2511,-7.2511,-7.2436,-7.2059,-7.1631,-7.12,-7.0843,-7.0456,-6.9885,-6.8968,-6.8493,-6.7775,-6.6564,-6.6319,-6.6156,-6.5614,-6.5532,-6.5227,-6.4447,-6.4388,-6.4363,-6.4255,-6.3525,-6.2957,-6.2909,-6.2143,-6.163,-6.163,-6.1113,-6.0854,-6.0854,-6.0854,-6.0704,-6.0315,-5.9811,-5.9526,-5.9526,-5.8999,-5.8735,-5.8735,-5.8735,-5.8492,-7.8855,0.0,0.0,0.0,0.0,0.0,0.0,0.0,0.0,0.0,0.0,0.0,0.0,0.0,0.0,0.0,0.0,0.0,0.0,0.0,0.0,0.0,0.0,0.0,0.0,0.0,0.0,0.0,0.0,-6.836,-7.2613,-7.5436,-7.7876,-7.977,-8.0506,-8.0841,-8.0841,-8.0841,-8.0713,-8.0455,-8.0713,-8.0713,-8.0455,-8.0713,-8.0841,-8.0841,-8.0157,-7.9925,-7.986,-7.907,-7.8705,-7.8705,-7.8705,-7.86,-7.8292,-7.7882,-7.7539,-7.7065,-7.6606,-7.6324,-7.6254,-7.6084,-7.5658,-7.52,-7.4796,-7.4141,-7.3507,-7.3507,-7.3433,-7.3285,-7.3034,-7.2885,-7.2811,-7.2436,-7.2059,-7.1631,-7.1277,-7.092,-7.0352,-6.944,-6.8388,-6.7589,-6.7187,-6.7428,-6.7454,-6.662,-6.5942,-6.545,-6.5227,-6.4697,-6.3987,-6.3157,-6.3293,-6.2959,-6.1834,-6.225,-6.2338,-6.163,-6.1458,-6.1372,-6.1372,-6.1372,-6.1199,-6.0704,-6.0269,-5.9811,-5.9526,-5.8999,-5.8735,-5.8735,-5.8735,-5.8647,0.0,0.0,0.0,0.0,0.0,0.0,-6.3102,0.0,-5.8488,0.0,0.0,0.0,0.0,0.0,0.0,0.0,0.0,0.0,0.0,0.0,0.0,0.0,0.0,0.0,0.0,0.0,0.0,0.0,-7.0169,-7.1708,-7.5825,-7.7826,-7.9494,-8.0844,-8.0841,-8.0841,-8.0841,-8.0841,-8.0777,-8.052,-8.0777,-8.0777,-8.052,-8.0584,-8.0713,-8.0841,-7.9996,-7.9763,-7.986,-7.907,-7.8705,-7.8705,-7.8705,-7.8465,-7.8087,-7.8019,-7.7677,-7.7134,-7.6885,-7.6676,-7.6564,-7.6324,-7.5842,-7.5343,-7.4768,-7.4141,-7.3729,-7.3848,-7.3802,-7.3581,-7.3433,-7.3211,-7.296,-7.2586,-7.221,-7.1756,-7.12,-7.1073,-7.0661,-6.9597,-6.8942,-6.8547,-6.8308,-6.8414,-6.8255,-6.7534,-6.6944,-6.6376,-6.5614,-6.5145,-6.4426,-6.3459,-6.3473,-6.3175,-6.2299,-6.2683,-6.2702,-6.191,-6.191,-6.1825,-6.163,-6.163,-6.1458,-6.1199,-6.0553,-6.0118,-5.9833,-5.9087,-5.8735,-5.8735,-5.8735,-5.8735,0.0,0.0,0.0,0.0,-6.8213,0.0,0.0,0.0,-5.8259,-5.5364,0.0,0.0,0.0,0.0,0.0,0.0,0.0,0.0,0.0,0.0,0.0,0.0,0.0,0.0,0.0,-6.6845,-6.8826,-7.4318,-7.3042,-7.3886,-7.8194,-7.9487,-8.0332,-8.0939,-8.0905,-8.0841,-8.0841,-8.0841,-8.0841,-8.0841,-8.0841,-8.0841,-8.0841,-8.0455,-8.0455,-8.0777,-7.9738,-7.9535,-7.9763,-7.9003,-7.8705,-7.8705,-7.8705,-7.8398,-7.7882,-7.8224,-7.7921,-7.7273,-7.7233,-7.6955,-7.6635,-7.6635,-7.6084,-7.5243,-7.4623,-7.4068,-7.3802,-7.4113,-7.3995,-7.3729,-7.3729,-7.3433,-7.3034,-7.2661,-7.221,-7.1756,-7.1047,-7.1047,-7.097,-6.9754,-6.978,-6.9885,-6.9519,-6.9126,-6.8731,-6.8414,-6.8281,-6.7615,-6.6049,-6.5696,-6.531,-6.453,-6.4029,-6.3669,-6.3585,-6.3271,-6.2872,-6.2361,-6.2361,-6.2167,-6.1715,-6.163,-6.163,-6.163,-6.0727,-6.0228,-6.0228,-5.9197,-5.8735,-5.8735,-5.8735,-5.8735,0.0,0.0,0.0,0.0,0.0,-6.3322,0.0,0.0,0.0,0.0,0.0,0.0,0.0,0.0,0.0,0.0,0.0,0.0,0.0,0.0,0.0,0.0,0.0,0.0,0.0,-7.431,-7.5539,-7.8695,-7.9332,-7.9743,-8.0146,-8.0981,-8.1449,-8.1286,-8.1,-8.0841,-8.0841,-8.0841,-8.0841,-8.0841,-8.0841,-8.0841,-8.0841,-8.0455,-8.0326,-8.0391,-7.9607,-7.9373,-7.9403,-7.8906,-7.86,-7.8427,-7.8668,-7.8668,-7.8533,-7.8427,-7.8224,-7.799,-7.7371,-7.7134,-7.7025,-7.6676,-7.6084,-7.5415,-7.5243,-7.4695,-7.4113,-7.4259,-7.4186,-7.4113,-7.4113,-7.3627,-7.3062,-7.296,-7.2436,-7.188,-7.1756,-7.125,-7.0843,-7.0507,-6.9702,-6.931,-6.9885,-6.9597,-6.9283,-6.9205,-6.8652,-6.8095,-6.7775,-6.6808,-6.5911,-6.531,-6.4921,-6.4339,-6.3585,-6.3861,-6.3717,-6.2872,-6.3126,-6.2933,-6.2081,-6.2081,-6.191,-6.163,-6.0727,-6.0228,-6.0228,-5.9197,-5.8735,-5.8735,-5.8735,-5.8735,0.0,0.0,0.0,-6.4762,0.0,0.0,0.0,-5.9532,-5.8698,-5.7995,-5.755,-5.7344,-5.7312,-5.8122,-5.8551,-5.8133,-5.98,-6.2291,-6.5549,0.0,0.0,0.0,0.0,0.0,-7.8515,-7.857,-7.8849,-7.9794,-8.0709,-8.1317,-8.1562,-8.1946,-8.201,-8.1665,-8.1445,-8.1351,-8.1351,-8.1351,-8.1318,-8.1159,-8.1159,-8.1064,-8.0841,-8.0291,-8.0161,-8.0261,-7.9373,-7.9107,-7.9306,-7.8906,-7.86,-7.833,-7.8668,-7.8668,-7.8533,-7.8533,-7.833,-7.8019,-7.7608,-7.7233,-7.6816,-7.6635,-7.6084,-7.5386,-7.5386,-7.4912,-7.4259,-7.4259,-7.4259,-7.4259,-7.4259,-7.3701,-7.3136,-7.3136,-7.2511,-7.1908,-7.1707,-7.1479,-7.125,-7.0816,-6.9858,-6.9362,-7.0041,-6.978,-6.9414,-6.9414,-6.9047,-6.8652,-6.8281,-6.7428,-6.6539,-6.5614,-6.5145,-6.4672,-6.4029,-6.4196,-6.3969,-6.3042,-6.3126,-6.2848,-6.191,-6.191,-6.1566,-6.0881,-6.0114,-5.9709,-5.9474,-5.8715,-5.8593,-5.9087,-5.8823,-5.8735,0.0,0.0,0.0,0.0,0.0,0.0,-5.9931,-5.9418,-5.9369,0.0,-5.9228,-6.0061,-6.0029,-6.2451,-6.4138,-6.3061,-6.502,-6.8276,-7.3139,-7.4211,-7.5681,0.0,0.0,0.0,-8.0863,-8.0978,-8.0721,-8.0193,-8.0947,-8.1737,-8.2443,-8.2444,-8.2259,-8.1917,-8.1854,-8.1854,-8.1854,-8.1854,-8.1697,-8.1444,-8.1444,-8.1222,-8.0841,-8.0222,-7.9996,-8.0261,-7.921,-7.904,-7.9306,-7.8973,-7.8668,-7.8427,-7.8668,-7.86,-7.8398,-7.8668,-7.8398,-7.7951,-7.7814,-7.7332,-7.6775,-7.6635,-7.6084,-7.5558,-7.5458,-7.4912,-7.4332,-7.4259,-7.4259,-7.4259,-7.4259,-7.3701,-7.3211,-7.3136,-7.2511,-7.1908,-7.1506,-7.1555,-7.1555,-7.097,-7.0247,-6.9858,-7.0119,-6.9858,-6.9519,-6.9414,-6.9414,-6.9205,-6.8573,-6.7989,-6.7242,-6.5942,-6.5392,-6.4946,-6.4388,-6.4388,-6.4053,-6.3295,-6.3211,-6.2872,-6.191,-6.1722,-6.112,-6.0108,-5.9479,-5.9083,-5.8805,-5.801,-5.8164,-5.9341,-5.9107,-5.8933,0.0,0.0,0.0,0.0,0.0,0.0,-6.3175,-6.2536,-6.1686,0.0,-6.3876,-6.5005,-6.4783,-6.6293,-6.7532,-6.7506,-6.8802,-7.1536,-7.635,-7.7981,-7.8805,-7.9242,-8.0072,0.0,-8.1046,-8.185,-8.2255,-8.1978,-8.2876,-8.3288,-8.2781,-8.2567,-8.2383,-8.2383,-8.1979,-8.1854,-8.1854,-8.1854,-8.1697,-8.1444,-8.1444,-8.1222,-8.0841,-8.0222,-7.9996,-8.0261,-7.9541,-7.924,-7.9306,-7.924,-7.904,-7.8705,-7.8705,-7.8705,-7.8705,-7.8705,-7.8705,-7.8533,-7.7951,-7.7677,-7.747,-7.6845,-7.6324,-7.5842,-7.5558,-7.5128,-7.4724,-7.4332,-7.4259,-7.4259,-7.4259,-7.3921,-7.3507,-7.3211,-7.2736,-7.2361,-7.1983,-7.1326,-7.097,-7.1227,-7.12,-7.0893,-7.0301,-7.0145,-6.9936,-6.944,-6.9414,-6.9336,-6.9283,-6.8863,-6.8175,-6.6863,-6.6401,-6.5664,-6.4447,-6.4388,-6.4304,-6.422,-6.422,-6.3801,-6.2872,-6.1882,-6.1001,-6.0108,-5.9113,-5.8782,-5.9244,-5.728,-5.7231,-5.8818,-5.9707,-5.9833,0.0,0.0,0.0,0.0,0.0,0.0,-6.2946,-6.4016,-6.4893,0.0,-6.8297,-6.9945,-6.9839,-7.178,-7.3158,-7.2503,-7.5174,-7.8003,-7.9957,-8.0692,-8.1225,-8.1949,-8.2139,-8.2491,-8.3108,-8.3436,-8.3207,-8.2266,-8.3216,-8.3277,-8.2187,-8.2433,-8.2751,-8.2966,-8.2629,-8.2413,-8.2413,-8.2413,-8.2259,-8.1979,-8.176,-8.1508,-8.1159,-8.0452,-8.0161,-8.0261,-7.9865,-7.9535,-7.9306,-7.9535,-7.927,-7.8705,-7.8705,-7.8705,-7.8705,-7.8705,-7.8638,-7.8465,-7.8224,-7.7814,-7.7371,-7.7025,-7.6506,-7.5942,-7.5558,-7.5343,-7.5056,-7.4724,-7.4579,-7.4579,-7.4332,-7.3995,-7.3581,-7.3211,-7.2811,-7.2361,-7.1956,-7.168,-7.1479,-7.1631,-7.1353,-7.0997,-7.092,-7.0456,-7.0119,-6.9858,-6.9597,-6.9414,-6.9414,-6.9047,-6.8493,-6.7775,-6.6808,-6.6074,-6.5524,-6.478,-6.4388,-6.4388,-6.4029,-6.3235,-6.1666,-6.1239,-6.0102,-5.8329,-5.7804,-5.7723,-5.7899,-5.7039,-5.6844,-5.7231,-5.8691,-5.9056,-5.3352,0.0,0.0,0.0,0.0,0.0,0.0,0.0,-6.8478,-7.0241,-7.3028,-7.504,-7.4913,-7.6955,-7.8396,-7.7546,-8.0109,-8.2198,-8.2198,-8.256,-8.3112,-8.3982,-8.3973,-8.418,-8.494,-8.4806,-8.4099,0.0,-8.344,-8.345,-8.2196,-8.2728,-8.3177,-8.339,-8.2995,-8.2812,-8.2812,-8.2812,-8.269,-8.2444,-8.2041,-8.1697,-8.1411,-8.0615,-8.0326,-8.0455,-8.0127,-7.9865,-7.9637,-7.9829,-7.9499,-7.8839,-7.8772,-7.8705,-7.8705,-7.8705,-7.8533,-7.836,-7.8224,-7.7716,-7.7134,-7.7025,-7.6647,-7.6084,-7.57,-7.5458,-7.5343,-7.494,-7.4724,-7.4579,-7.4332,-7.4068,-7.3729,-7.3183,-7.2885,-7.2511,-7.2059,-7.188,-7.188,-7.1756,-7.1403,-7.1123,-7.115,-7.0843,-7.0456,-7.0378,-6.9936,-6.9597,-6.9597,-6.9205,-6.881,-6.8281,-6.7131,-6.6319,-6.6074,-6.5029,-6.4388,-6.4388,-6.3945,-6.2934,-6.1108,-6.061,-5.9369,-5.7145,-5.6738,-5.6518,-5.6518,-5.6518,-5.6523,-5.6427,-5.7685,-5.8096,0.0,0.0,0.0,0.0,0.0,0.0,-6.7834,0.0,-7.2465,-7.5073,-7.8311,-8.0476,-7.9981,-8.1301,-8.2444,-8.2378,-8.2305,-8.2198,-8.2198,-8.3447,-8.4282,-8.4348,-8.5325,-8.59,-8.5718,-8.5468,-8.4864,-8.38,-8.41,-8.4073,-8.3387,-8.3626,-8.3626,-8.339,-8.2995,-8.2812,-8.2812,-8.2812,-8.269,-8.2444,-8.2041,-8.1697,-8.1411,-8.0615,-8.052,-8.0841,-8.0455,-8.0261,-8.0261,-8.0026,-7.9698,-7.924,-7.8839,-7.8705,-7.8705,-7.8705,-7.8533,-7.8292,-7.7912,-7.7539,-7.7094,-7.6746,-7.6564,-7.6465,-7.6084,-7.57,-7.5343,-7.494,-7.4579,-7.4259,-7.4259,-7.4259,-7.404,-7.3257,-7.3136,-7.2811,-7.2135,-7.188,-7.1832,-7.143,-7.1631,-7.168,-7.0893,-7.1073,-7.1227,-7.0843,-7.0378,-7.0145,-7.0145,-6.9702,-6.9126,-6.8255,-6.7373,-6.6539,-6.5614,-6.478,-6.4388,-6.4388,-6.4304,-6.3626,-6.2039,-6.0653,-5.9118,-5.7549,-5.6191,-5.5466,-5.5466,-5.5466,-5.5981,-5.6962,-5.6929,-5.7248,-5.0759,0.0,0.0,0.0,0.0,-6.6431,-7.0423,-7.4093,-7.7163,-7.8819,-8.1053,-8.2581,-8.2233,-8.4342,-8.6006,-8.5884,-8.5779,-8.5622,-8.5497,-8.5873,-8.6096,-8.5967,-8.6002,-8.6021,-8.5774,-8.5468,-8.4763,-8.3389,-8.3938,0.0,-8.2906,-8.3472,-8.3626,-8.339,-8.3269,-8.3088,-8.2812,-8.2812,-8.2751,-8.269,-8.2383,-8.2072,-8.1728,-8.1286,-8.1,-8.0841,-8.0713,-8.052,-8.0261,-8.0026,-7.9829,-7.9698,-7.927,-7.9107,-7.904,-7.8668,-7.8398,-7.8292,-7.7882,-7.7539,-7.7134,-7.7025,-7.6816,-7.6465,-7.6084,-7.6084,-7.6084,-7.5415,-7.5343,-7.53,-7.4796,-7.4651,-7.4235,-7.2721,-7.2701,-7.2738,-7.1418,-7.1559,-7.1908,-7.1756,-7.1832,-7.1832,-7.1528,-7.143,-7.1304,-7.115,-7.0611,-7.0301,-7.0533,-6.9858,-6.944,-6.9493,-6.8493,-6.7509,-6.6838,-6.5778,-6.5004,-6.4755,-6.3762,-6.2555,-6.1001,-5.9859,-5.8383,-5.6509,-5.6024,-5.5759,-5.5759,-5.5759,-5.5816,-5.5934,-5.5934,-5.6416,0.0,0.0,0.0,-6.1269,-6.5438,-6.9461,-7.2486,-7.666,-8.0309,-8.1662,-8.3729,-8.5164,-8.4878,-8.6582,-8.792,-8.7641,-8.7536,-8.7377,-8.7144,-8.7144,-8.7091,-8.6746,-8.6549,-8.6352,-8.6021,-8.5774,-8.5103,-8.3873,-8.4373,-8.4304,-8.3283,-8.3796,-8.3923,-8.3538,-8.3538,-8.3298,-8.2812,-8.2812,-8.2812,-8.2812,-8.2567,-8.2321,-8.2041,-8.1602,-8.1317,-8.1064,-8.0905,-8.0713,-8.0455,-8.0192,-7.9996,-7.9996,-7.9505,-7.9306,-7.918,-7.813,-7.7943,-7.8028,-7.7282,-7.6989,-7.6955,-7.6955,-7.6816,-7.6564,-7.6324,-7.6324,-7.6254,-7.5629,-7.5629,-7.5629,-7.4868,-7.4724,-7.4453,-7.3083,-7.2995,-7.2877,-7.1262,-7.1583,-7.2135,-7.1956,-7.188,-7.188,-7.188,-7.168,-7.1582,-7.1582,-7.062,-7.0205,-7.0839,-6.9797,-6.9303,-7.0092,-6.8995,-6.8095,-6.7749,-6.6351,-6.5392,-6.5145,-6.3534,-6.1995,-6.0685,-5.9564,-5.8088,-5.6449,-5.6296,-5.6219,-5.6219,-5.6219,-5.5989,-5.5628,-5.5628,-5.5902,0.0,-5.682,0.0,-6.4182,-6.8593,-7.2577,0.0,0.0,-8.1956,-8.3704,-8.6368,-8.8245,-8.7953,-8.8193,-8.8278,-8.7953,-8.7693,-8.7377,-8.7144,-8.7357,-8.7304,-8.6746,-8.6929,-8.6896,-8.656,-8.6264,-8.5877,-8.5257,-8.5322,-8.5126,-8.4484,-8.469,-8.4484,-8.3864,-8.3773,-8.3507,-8.2873,-8.2812,-8.2812,-8.2812,-8.2567,-8.2444,-8.2383,-8.1728,-8.1444,-8.1444,-8.1,-8.0841,-8.0841,-8.0455,-8.0326,-8.0261,-7.9637,-7.9373,-7.9156,-7.7432,-7.7222,-7.7598,-7.6291,-7.6168,-7.6564,-7.6564,-7.6564,-7.6564,-7.6564,-7.6324,-7.5942,-7.5558,-7.5458,-7.5243,-7.4478,-7.4579,-7.4724,-7.4332,-7.3939,-7.319,-7.1783,-7.2009,-7.2436,-7.1956,-7.1956,-7.1956,-7.188,-7.188,-7.188,-7.188,-7.0625,-6.9999,-7.1137,-6.9486,-6.8761,-7.001,-6.9047,-6.8334,-6.8201,-6.662,-6.5614,-6.5532,-6.3648,-6.2083,-6.1058,-5.9648,-5.8349,-5.7209,-5.683,-5.6625,-5.6625,-5.6625,-5.6396,-5.6066,-5.5966,-5.5759,0.0,0.0,-6.3088,-6.7317,-7.1903,-7.59,0.0,0.0,-8.3979,-8.5556,-8.7439,-8.8719,-8.8466,-8.9425,-8.9828,-8.8412,-8.809,-8.7953,-8.7693,-8.7745,-8.7588,-8.7037,-8.7037,-8.6929,-8.6658,-8.6516,-8.6341,-8.6176,-8.6021,-8.5853,-8.5685,-8.5257,-8.4972,-8.4767,-8.4127,-8.3686,-8.3566,-8.3024,-8.2812,-8.2812,-8.2751,-8.2629,-8.2383,-8.1948,-8.176,-8.1697,-8.0777,-8.0584,-8.0841,-8.0455,-8.0455,-8.0649,-7.9996,-7.9763,-7.9571,-7.804,-7.7616,-7.7647,-7.6674,-7.6483,-7.6564,-7.6564,-7.6564,-7.6564,-7.6564,-7.6465,-7.6324,-7.5942,-7.5842,-7.57,-7.494,-7.4724,-7.4724,-7.4332,-7.3538,-7.2843,-7.2995,-7.2988,-7.2736,-7.2059,-7.2135,-7.2285,-7.1956,-7.188,-7.188,-7.188,-7.0625,-6.9776,-7.0393,-6.9402,-6.8794,-6.9115,-6.9714,-6.965,-6.836,-6.7428,-6.6513,-6.5532,-6.2935,-6.1302,-6.1034,-5.92,-5.7827,-5.7185,-5.7409,-5.7409,-5.6958,-5.6958,-5.683,-5.6372,-5.6143,-5.5913,-5.1182,-5.8775,-6.6143,0.0,-7.4948,-7.8333,-8.0222,-8.3126,-8.5711,-8.6521,-8.8117,-8.9469,-8.9948,-9.0067,-8.9781,-8.8634,-8.8347,-8.8193,-8.7902,-8.7953,-8.785,-8.7304,-8.7251,-8.7198,-8.7037,-8.6842,-8.6701,-8.6505,-8.6538,-8.6352,-8.5965,-8.5709,-8.5428,-8.5111,-8.4652,-8.4276,-8.4041,-8.3507,-8.3177,-8.3056,-8.2873,-8.2751,-8.2567,-8.2041,-8.1854,-8.1792,-8.1128,-8.0808,-8.0841,-8.0808,-8.0808,-8.0777,-8.0157,-7.9925,-7.9703,-7.7974,-7.7584,-7.7862,-7.6764,-7.6764,-7.7054,-7.6885,-7.6816,-7.6816,-7.6635,-7.6564,-7.6465,-7.6084,-7.6084,-7.6042,-7.5085,-7.5013,-7.4984,-7.4623,-7.3924,-7.3397,-7.3854,-7.3655,-7.3211,-7.2736,-7.2586,-7.2361,-7.1956,-7.188,-7.188,-7.188,-7.0312,-6.9339,-7.0051,-6.9051,-6.8498,-6.9111,-7.0117,-7.0352,-6.9388,-6.8547,-6.7749,-6.7,-6.3649,-6.1642,-6.1642,-5.9238,-5.7811,-5.746,-5.7735,-5.7811,-5.746,-5.746,-5.7233,-5.683,-5.6601,-5.6272,0.0,0.0,-6.8128,0.0,-7.7144,-7.9941,0.0,0.0,-8.6951,-8.7203,-8.898,-9.0734,-9.1327,-9.0366,-8.9255,-8.8736,-8.8449,-8.8245,-8.7953,-8.8142,-8.809,-8.7588,-8.7536,-8.7483,-8.7483,-8.7304,-8.7004,-8.6668,-8.695,-8.6767,-8.5942,-8.6131,-8.5988,-8.5428,-8.5314,-8.5029,-8.46,-8.4041,-8.3626,-8.345,-8.2995,-8.2812,-8.2812,-8.2104,-8.1792,-8.1792,-8.1539,-8.1222,-8.1,-8.1317,-8.1222,-8.0777,-8.0157,-7.9925,-7.9642,-7.7714,-7.7549,-7.8181,-7.6858,-7.7012,-7.7677,-7.7302,-7.7134,-7.7065,-7.6676,-7.6564,-7.6465,-7.6154,-7.6324,-7.6254,-7.5257,-7.5128,-7.5272,-7.494,-7.4579,-7.4332,-7.4332,-7.3995,-7.3655,-7.3729,-7.3136,-7.2511,-7.221,-7.2059,-7.1956,-7.188,-7.007,-6.8949,-6.9824,-6.8667,-6.8104,-6.9024,-7.0022,-7.0651,-7.0497,-6.9518,-6.8968,-6.881,-6.4833,-6.2503,-6.2425,-5.9544,-5.791,-5.791,-5.7986,-5.7986,-5.791,-5.791,-5.7735,-5.7261,-5.7185,-5.6806,0.0,-5.7798,-6.3714,-7.1218,-7.6362,0.0,-8.163,-8.4576,-8.7353,-8.8835,-9.1815,-9.3304,-9.0645,-9.0944,-9.0971,-8.9005,-8.8601,-8.85,-8.8245,-8.8245,-8.8142,-8.7816,-8.7798,-8.7693,-8.7483,-8.7641,-8.7641,-8.7324,-8.7377,-8.7251,-8.6875,-8.6875,-8.6875,-8.6767,-8.6242,-8.5877,-8.5853,-8.4419,-8.3745,-8.3686,-8.3117,-8.2812,-8.2812,-8.1916,-8.1665,-8.1792,-8.1539,-8.138,-8.138,-8.1444,-8.1222,-8.0777,-8.0157,-7.9925,-7.9763,-7.8496,-7.8151,-7.8262,-7.7685,-7.7637,-7.7677,-7.7302,-7.7134,-7.7065,-7.6676,-7.6564,-7.6564,-7.6465,-7.6324,-7.6084,-7.5871,-7.5372,-7.494,-7.4868,-7.4796,-7.4724,-7.4724,-7.4169,-7.3802,-7.4141,-7.3553,-7.3062,-7.3359,-7.2811,-7.2285,-7.1956,-7.0781,-6.9605,-6.8812,-6.8439,-6.7814,-6.6696,-6.8757,-6.9986,-6.9235,-6.9557,-6.9492,-6.8889,-6.5042,-6.2892,-6.2865,-5.9721,-5.791,-5.791,-5.8261,-5.8261,-5.791,-5.791,-5.791,-5.7811,-5.7361,-5.7109,-5.2111,0.0,0.0,-6.9342,0.0,-8.0033,-8.1986,-8.4985,-8.8163,-9.1357,-9.2308,-9.248,-9.2148,-9.145,-9.0793,-9.0318,-9.0152,-8.9949,-8.9694,-9.0314,-9.011,-8.8309,-8.8588,-8.865,-8.776,-8.7764,-8.7712,-8.7483,-8.7693,-8.7726,-8.7304,-8.7377,-8.7463,-8.7304,-8.6842,-8.6516,-8.6319,-8.5314,-8.4568,-8.4041,-8.3566,-8.3085,-8.2629,-8.229,-8.201,-8.1854,-8.1697,-8.1539,-8.1475,-8.1602,-8.1318,-8.0777,-8.0291,-8.0096,-7.9996,-7.9367,-7.9033,-7.8802,-7.8668,-7.8398,-7.8194,-7.7853,-7.7647,-7.7401,-7.7025,-7.6746,-7.6564,-7.6564,-7.6465,-7.6254,-7.6084,-7.5729,-7.5372,-7.52,-7.5013,-7.4796,-7.4579,-7.4214,-7.4068,-7.4186,-7.3774,-7.3433,-7.3655,-7.3211,-7.2661,-7.2285,-7.1019,-6.9742,-6.8566,-6.8402,-6.7866,-6.6383,-6.8067,-6.9104,-6.8665,-6.866,-6.8558,-6.8055,-6.501,-6.3025,-6.2469,-5.9903,-5.8685,-5.9155,-5.856,-5.8186,-5.8261,-5.8061,-5.7811,-5.7536,-5.7536,-5.7309,-5.1805,-5.6615,-6.2402,-6.8312,-7.378,-7.8645,-8.2394,-8.5035,-8.788,-9.2177,-9.1295,-9.0487,-9.3046,-9.1801,-9.0666,-9.1583,-9.1824,-9.1673,-9.1113,-9.2223,-9.2051,-8.9152,-8.9614,-8.9743,-8.8659,-8.8525,-8.8288,-8.7693,-8.8306,-8.8373,-8.7516,-8.7745,-8.7798,-8.7588,-8.7271,-8.7004,-8.6701,-8.6076,-8.5379,-8.469,-8.4159,-8.3447,-8.2629,-8.2812,-8.2567,-8.1854,-8.1854,-8.1697,-8.157,-8.176,-8.1477,-8.0841,-8.0455,-8.0261,-8.0261,-7.9865,-7.9601,-7.9373,-7.924,-7.904,-7.8802,-7.8495,-7.8087,-7.7677,-7.7302,-7.6885,-7.6564,-7.6564,-7.6564,-7.6465,-7.6254,-7.6084,-7.5942,-7.5629,-7.5071,-7.4671,-7.4566,-7.4179,-7.4021,-7.4348,-7.4068,-7.3802,-7.3802,-7.3507,-7.3136,-7.2811,-7.1564,-7.0107,-6.8453,-6.831,-6.7855,-6.6406,-6.7308,-6.8019,-6.8019,-6.7878,-6.7606,-6.7249,-6.5051,-6.3343,-6.2407,-6.0644,-5.9842,-6.0014,-5.8858,-5.8361,-5.8411,-5.8061,-5.7711,-5.7361,-5.7735,-5.7509,-5.5069,-5.8451,-6.2407,-6.8887,-7.1122,-7.4044,-8.2779,-8.4138,-8.4658,-8.826,0.0,-8.881,-9.0574,-9.167,-9.2157,-9.1803,-9.2824,-9.308,-9.1555,-9.2379,-9.2508,-9.0907,-9.0613,-9.0561,-9.0687,-9.0671,-8.9996,-8.833,-8.9503,-8.9495,-8.7549,-8.7745,-8.7816,-8.7816,-8.7588,-8.743,-8.7377,-8.6275,-8.5662,-8.5605,-8.4716,-8.3955,-8.333,-8.333,-8.2751,-8.1854,-8.1854,-8.1792,-8.1792,-8.1792,-8.1477,-8.0841,-8.0455,-8.0261,-8.0196,-7.9571,-7.9535,-7.9698,-7.9003,-7.8973,-7.9173,-7.8533,-7.8087,-7.7677,-7.7302,-7.6885,-7.6564,-7.6564,-7.6564,-7.6564,-7.6564,-7.6254,-7.6013,-7.5942,-7.4978,-7.432,-7.5157,-7.4101,-7.3361,-7.4569,-7.4478,-7.4186,-7.4186,-7.3848,-7.3581,-7.3581,-7.2877,-7.1208,-6.8096,-6.8172,-6.7669,-6.5668,-6.6148,-6.6648,-6.6648,-6.7702,-6.8069,-6.7322,-6.5369,-6.4053,-6.3615,-6.2374,-6.0959,-5.9253,-5.9426,-5.9007,-5.7986,-5.791,-5.791,-5.7835,-5.791,-5.791,-5.0744,-5.4366,-5.8817,-6.4448,-6.9013,-7.3372,-7.8209,0.0,0.0,0.0,-8.7987,-8.8604,-9.0276,-9.1636,-9.2747,-9.3392,-9.4642,-9.4915,-9.3131,-9.4807,-9.5007,-9.1587,-9.2541,-9.3229,-9.2548,-9.2343,-9.1969,-9.1259,-9.0956,-9.0378,-8.939,-8.8662,-8.8263,-8.8108,-8.785,-8.7641,-8.7483,-8.6713,-8.6141,-8.5718,-8.5119,-8.4832,-8.4806,-8.4393,-8.3805,-8.2993,-8.2627,-8.2382,-8.2383,-8.1979,-8.1477,-8.0841,-8.0713,-8.0649,-8.0584,-8.0326,-8.0096,-7.986,-7.9565,-7.9203,-7.8906,-7.8668,-7.8194,-7.7745,-7.7608,-7.7123,-7.6564,-7.6564,-7.6564,-7.6564,-7.6564,-7.6465,-7.6324,-7.6084,-7.5638,-7.5237,-7.5371,-7.4657,-7.4199,-7.4711,-7.4506,-7.4259,-7.4259,-7.4113,-7.3669,-7.2749,-7.2346,-7.1071,-6.8055,-6.8328,-6.7854,-6.5599,-6.5395,-6.5421,-6.5421,-6.5899,-6.5893,-6.5091,-6.4282,-6.3617,-6.31,-6.2127,-6.1391,-6.0887,-5.9867,-5.9204,-5.8933,-5.8286,-5.7735,-5.746,-5.7735,-5.7735,-4.7928,-5.1875,-5.6764,-6.1836,-6.739,0.0,0.0,-7.7458,0.0,0.0,-8.6287,-8.7884,-8.9669,-9.1468,-9.3098,-9.4425,-9.5866,-9.6245,-9.4881,-9.6444,-9.6457,-9.3078,-9.3985,-9.4675,-9.4244,-9.4124,-9.3647,-9.2665,-9.2058,-9.1194,-8.9972,-8.9071,-8.8551,-8.8245,-8.8005,-8.7745,-8.7483,-8.6929,-8.6473,-8.603,-8.5597,-8.554,-8.583,-8.5257,-8.4626,-8.3923,-8.3535,-8.3266,-8.2934,-8.2506,-8.1917,-8.1257,-8.0539,-8.0567,-8.0939,-8.0348,-8.015,-8.0157,-7.9829,-7.9403,-7.9003,-7.8772,-7.833,-7.7951,-7.7951,-7.747,-7.6914,-7.6816,-7.6746,-7.6775,-7.6635,-7.6344,-7.6041,-7.6138,-7.5865,-7.5621,-7.5756,-7.5128,-7.47,-7.4927,-7.4724,-7.4405,-7.4259,-7.4259,-7.3904,-7.277,-7.1969,-7.0874,-6.9154,-6.8485,-6.7473,-6.5516,-6.4984,-6.4711,-6.4711,-6.4711,-6.4383,-6.364,-6.3571,-6.325,-6.2601,-6.2106,-6.1795,-6.1821,-6.0499,-5.9695,-5.95,-5.8709,-5.7937,-5.7361,-5.7735,-5.7735,-4.8686,-5.2667,-5.7559,-6.2514,0.0,0.0,-7.4725,-7.5949,-7.6599,-7.8449,-8.2523,-8.6361,-8.8284,-9.0977,-9.3324,-9.4475,-9.5982,-9.6909,-9.662,-9.6345,-9.6117,-9.5853,-9.4447,-9.4108,-9.5631,-9.6083,-9.4879,-9.1622,-9.2688,-9.1923,-8.8497,-8.85,-8.8551,-8.8245,-8.8005,-8.7745,-8.7483,-8.6929,-8.6724,-8.6691,-8.6297,-8.6131,-8.6099,-8.583,-8.5208,-8.4367,-8.4632,-8.4223,-8.339,-8.339,-8.2995,-8.2196,-7.9867,-7.9956,-8.1226,-7.9115,-7.9452,-8.0713,-7.9703,-7.9535,-7.9763,-7.9003,-7.8533,-7.836,-7.836,-7.8087,-7.7677,-7.7302,-7.7134,-7.7065,-7.6676,-7.5646,-7.4977,-7.6315,-7.5617,-7.5006,-7.6274,-7.5241,-7.4344,-7.5228,-7.5056,-7.4724,-7.4332,-7.4259,-7.4259,-7.4259,-7.2143,-7.0903,-7.1785,-6.8594,-6.6034,-6.5391,-6.4984,-6.4711,-6.4711,-6.4711,-6.4383,-6.364,-6.3571,-6.325,-6.2601,-6.2628,-6.2248,-6.1411,-6.1411,-6.0618,-5.9105,-5.9105,-5.8685,-5.791,-5.791,-5.791,-4.662,-4.94,-5.2702,-5.7915,0.0,0.0,-7.0204,-7.363,-7.6572,-7.8437,-8.0897,-8.3313,-8.5416,0.0,-9.1224,-9.1786,-9.3838,-9.4992,-9.3718,-9.5256,-9.6074,-9.4915,-9.6018,-9.6679,-9.6379,-9.624,-9.5269,-9.301,-9.2316,-9.1452,-9.0164,-8.9173,-8.8601,-8.8551,-8.8108,-8.7745,-8.7483,-8.6929,-8.6724,-8.6724,-8.6582,-8.6527,-8.6495,-8.6418,-8.6109,-8.554,-8.4972,-8.46,-8.4282,-8.3387,-8.3024,-8.2869,-8.0667,-7.9929,-7.9898,-7.9279,-7.9059,-7.9233,-7.9562,-7.9601,-7.9403,-7.8906,-7.8533,-7.8181,-7.7163,-7.6657,-7.6173,-7.5096,-7.4632,-7.4527,-7.4326,-7.4512,-7.4715,-7.5151,-7.5617,-7.6111,-7.6448,-7.6006,-7.5452,-7.5785,-7.53,-7.4796,-7.4651,-7.4405,-7.3695,-7.2002,-7.1071,-7.0353,-6.9833,-6.8003,-6.6742,-6.6876,-6.5587,-6.4711,-6.4711,-6.4711,-6.4383,-6.364,-6.3571,-6.325,-6.2601,-6.2628,-6.246,-6.2248,-6.1697,-6.1196,-6.0691,-5.9596,-5.8957,-5.8759,-5.8461,-5.8336,-4.6002,-4.8649,-5.1489,-5.5919,-5.98,0.0,0.0,-6.9708,-7.2737,-7.5715,-7.7176,0.0,0.0,-8.6894,-8.9955,-9.0494,-9.252,-9.3804,-9.3217,-9.4128,-9.4914,-9.5017,-9.6158,-9.7009,-9.7232,-9.6737,-9.5866,-9.4622,-9.2587,-9.1233,-9.0992,-8.946,-8.8601,-8.85,-8.8108,-8.7745,-8.7483,-8.6929,-8.6779,-8.6854,-8.6746,-8.6724,-8.6724,-8.6724,-8.644,-8.6043,-8.5428,-8.5062,-8.4896,-8.3923,-8.3566,-8.3475,-8.2258,-8.0937,-7.9617,-7.8969,-7.8539,-7.8462,-7.954,-7.9601,-7.924,-7.8839,-7.857,-7.8316,-7.7452,-7.6687,-7.5954,-7.4933,-7.4044,-7.3406,-7.2936,-7.3531,-7.4267,-7.3968,-7.4987,-7.6017,-7.5878,-7.5641,-7.5576,-7.5926,-7.5586,-7.5228,-7.5085,-7.4724,-7.3827,-7.1818,-7.0943,-7.014,-6.8966,-6.7524,-6.678,-6.7105,-6.594,-6.512,-6.4984,-6.4848,-6.4383,-6.364,-6.3709,-6.3432,-6.2786,-6.2716,-6.2672,-6.2628,-6.2079,-6.1697,-6.1411,-6.0473,-5.967,-5.9105,-5.8982,-5.8709,-4.6552,-4.9865,-5.3028,-5.6051,-5.8461,0.0,-6.4181,-6.5104,0.0,-7.1065,0.0,0.0,0.0,-8.5036,-8.8651,-9.0081,-9.1711,-9.3152,-9.4201,-9.3115,-9.3141,-9.5628,-9.5154,-9.5511,-9.7804,-9.7062,-9.633,-9.6036,-9.3028,-9.1149,-9.1028,-8.9511,-8.8551,-8.8296,-8.8005,-8.7745,-8.7483,-8.7016,-8.6854,-8.7091,-8.68,-8.6724,-8.6724,-8.6724,-8.6527,-8.6131,-8.5756,-8.5484,-8.5298,-8.4825,-8.4329,-8.3864,-8.425,-8.2677,-8.0065,-7.8428,-7.8015,-7.8466,-7.9575,-7.9667,-7.9306,-7.8906,-7.8772,-7.8705,-7.8586,-7.7719,-7.6637,-7.6136,-7.4792,-7.3349,-7.2228,-7.2906,-7.3684,-7.2937,-7.4063,-7.5162,-7.4764,-7.4696,-7.4937,-7.5894,-7.6013,-7.5842,-7.5443,-7.4985,-7.4271,-7.3033,-7.1463,-7.0068,-6.8825,-6.7306,-6.6339,-6.6273,-6.6062,-6.5728,-6.5391,-6.4984,-6.4479,-6.3709,-6.3985,-6.3848,-6.3083,-6.3014,-6.29,-6.2672,-6.2628,-6.2248,-6.1554,-6.1483,-6.0691,-5.9253,-5.95,-5.9081,-4.697,-4.9323,-5.1736,-5.6119,0.0,0.0,0.0,0.0,0.0,0.0,0.0,0.0,0.0,-7.853,-8.171,-8.6627,-8.9699,-9.139,-9.1232,-9.1925,-9.2602,-9.3039,-9.4897,-9.5886,-9.5307,-9.4983,-9.4762,-9.4421,-9.1569,-9.0366,-9.1519,-8.9713,-8.8669,-8.8819,-8.8211,-8.7816,-8.7764,-8.7251,-8.7037,-8.7091,-8.68,-8.6724,-8.6724,-8.6724,-8.6637,-8.6462,-8.4822,-8.4709,-8.5484,-8.3785,-8.3661,-8.4484,-8.4425,-8.2656,-7.9991,-7.8876,-7.8207,-7.8167,-7.9979,-8.0257,-7.9698,-7.9306,-7.8973,-7.8526,-7.7509,-7.7001,-7.6344,-7.4248,-7.2445,-7.1334,-7.2046,-7.304,-7.3815,-7.3618,-7.4655,-7.5529,-7.5162,-7.5065,-7.5338,-7.6274,-7.6254,-7.5625,-7.4574,-7.4052,-7.293,-7.05,-6.9768,-6.9009,-6.7488,-6.6999,-6.6604,-6.6339,-6.6206,-6.6101,-6.5795,-6.5391,-6.4957,-6.4479,-6.4288,-6.3917,-6.3432,-6.3153,-6.3083,-6.3293,-6.2856,-6.2575,-6.2593,-6.184,-6.1268,-6.0835,-6.0014,-5.9672,-4.6232,-4.9325,-5.2269,-5.4838,-5.7638,-6.0095,-6.143,0.0,0.0,0.0,0.0,0.0,0.0,0.0,-7.7286,-8.3521,-8.756,-8.9802,-8.9497,-9.0699,-9.1842,-9.2453,-9.4395,-9.5629,-9.5526,-9.5425,-9.5597,-9.6158,-9.2637,-9.111,-9.2503,-9.0051,-8.8618,-8.8702,-8.816,-8.7868,-8.7868,-8.7483,-8.692,-8.629,-8.6524,-8.6416,-8.5898,-8.6449,-8.6746,-8.6755,-8.4681,-8.4494,-8.5564,-8.3623,-8.3543,-8.4748,-8.4806,-8.2922,-8.0161,-7.9577,-7.895,-7.8659,-8.0517,-8.071,-7.9996,-7.9703,-7.9306,-7.8853,-7.7935,-7.6822,-7.5631,-7.4195,-7.2694,-7.1643,-7.2204,-7.3138,-7.3951,-7.3654,-7.4148,-7.4581,-7.4121,-7.3616,-7.3587,-7.4599,-7.4597,-7.4227,-7.3561,-7.3076,-7.2141,-7.0057,-6.941,-6.8717,-6.7327,-6.6961,-6.6764,-6.6538,-6.6538,-6.6405,-6.6129,-6.5901,-6.5565,-6.5052,-6.4821,-6.4425,-6.3848,-6.364,-6.3501,-6.3571,-6.325,-6.304,-6.3014,-6.2381,-6.1911,-6.1411,-6.0959,-6.0477,-4.5292,-4.9579,-5.3448,-5.3306,-5.4689,-5.6455,-5.7731,0.0,0.0,0.0,0.0,0.0,0.0,-7.0784,-7.4,-8.0184,-8.4386,-8.7188,-8.8155,-8.9391,-9.0873,-9.2649,-9.3715,-9.5008,-9.6839,-9.6568,-9.6927,-9.8446,-9.4353,-9.2247,-9.3248,-9.0354,-8.8601,-8.8398,-8.8057,-8.792,-8.792,-8.7641,-8.6885,-8.5637,-8.6368,-8.6174,-8.5286,-8.6273,-8.6854,-8.6971,-8.4897,-8.4659,-8.562,-8.3791,-8.3769,-8.4864,-8.4957,-8.3211,-8.0579,-8.0359,-7.9826,-7.9502,-8.0919,-8.0974,-8.0391,-8.0131,-7.9769,-7.9306,-7.8906,-7.7097,-7.5063,-7.4674,-7.3746,-7.2816,-7.2475,-7.3364,-7.4122,-7.3295,-7.3135,-7.3069,-7.2645,-7.1763,-7.1414,-7.2542,-7.2708,-7.265,-7.2476,-7.2143,-7.1509,-7.0239,-6.9484,-6.8622,-6.7626,-6.7157,-6.6895,-6.6961,-6.6895,-6.6764,-6.6405,-6.6339,-6.6034,-6.5458,-6.5391,-6.5025,-6.4288,-6.4288,-6.4081,-6.3778,-6.364,-6.3432,-6.3083,-6.3014,-6.2522,-6.1626,-6.1821,-6.1273,-4.5757,-4.9886,-5.3566,-5.3298,-5.4503,-5.6143,-5.8016,0.0,0.0,0.0,0.0,0.0,0.0,-6.6957,-7.044,-7.5605,-7.7954,-8.0835,-8.579,-8.7707,-8.9612,-9.2275,-9.2727,-9.3961,-9.6736,-9.5761,-9.5508,-9.6859,-9.3941,-9.2186,-9.2341,-9.0215,-8.8919,-8.8919,-8.8449,-8.8193,-8.8193,-8.7693,-8.7383,-8.7131,-8.683,-8.6701,-8.6739,-8.6701,-8.6854,-8.6971,-8.4864,-8.4626,-8.562,-8.3911,-8.4003,-8.5144,-8.385,-8.2527,-8.1241,-8.1003,-8.0478,-8.0058,-8.0988,-8.129,-8.1253,-8.0872,-8.0326,-7.9769,-7.9373,-7.7924,-7.605,-7.3836,-7.3058,-7.2879,-7.2816,-7.3613,-7.4073,-7.2787,-7.2457,-7.2394,-7.21,-7.1889,-7.206,-7.2997,-7.2937,-7.2388,-7.1371,-7.1131,-7.0565,-6.894,-6.8323,-6.7979,-6.7807,-6.726,-6.7027,-6.7316,-6.7027,-6.683,-6.6764,-6.6472,-6.6168,-6.5795,-6.5822,-6.5458,-6.4684,-6.4616,-6.4616,-6.4547,-6.3874,-6.3501,-6.3501,-6.3153,-6.276,-6.2389,-6.1795,-6.158,-4.6018,-4.8567,-5.1272,-5.2285,-5.2941,-5.3799,-5.5416,0.0,0.0,0.0,0.0,0.0,0.0,-6.4324,-6.764,-7.3251,-7.5363,-7.8124,-8.33,-8.6679,-8.9467,-9.162,-9.3204,-9.4266,-9.4739,-9.6238,-9.703,-9.6654,-9.5306,-9.4471,-9.437,-9.1891,-9.0386,-9.0118,-8.9005,-8.8398,-8.8245,-8.7693,-8.7117,-8.6353,-8.6727,-8.664,-8.6177,-8.678,-8.7198,-8.7205,-8.5325,-8.4581,-8.4735,-8.3918,-8.3906,-8.4347,-8.3743,-8.2691,-8.1304,-8.045,-7.9591,-7.9075,-8.0061,-8.0757,-8.1043,-8.0487,-7.9766,-7.8849,-7.7766,-7.6331,-7.5027,-7.4138,-7.2938,-7.2099,-7.3408,-7.3487,-7.3236,-7.2941,-7.2469,-7.203,-7.1649,-7.1246,-7.0955,-7.1418,-7.1187,-7.0726,-7.0206,-6.9986,-6.962,-6.8819,-6.8385,-6.8193,-6.8193,-6.7714,-6.7483,-6.7678,-6.7353,-6.7186,-6.7186,-6.6604,-6.6168,-6.5889,-6.5688,-6.5323,-6.478,-6.4711,-6.4711,-6.4711,-6.4383,-6.4081,-6.3848,-6.3709,-6.3293,-6.276,-6.2407,-6.2221,-4.7165,0.0,-5.0341,-5.2233,-5.2256,-5.2162,0.0,-5.3892,0.0,0.0,0.0,0.0,0.0,-6.2178,-6.5179,-7.0962,-7.2936,-7.543,-8.0392,-8.4372,-8.7906,-9.093,-9.2828,-9.3956,-9.3935,-9.6677,-9.7901,-9.6688,-9.6671,-9.6432,-9.58,-9.3181,-9.1537,-9.1079,-8.9578,-8.8568,-8.8347,-8.7798,-8.7023,-8.5907,-8.6774,-8.6708,-8.594,-8.6984,-8.7317,-8.6899,-8.5906,-8.4705,-8.3493,-8.418,-8.4169,-8.3701,-8.3538,-8.2721,-8.1419,-7.988,-7.875,-7.8225,-7.9626,-8.0472,-8.0768,-8.032,-7.9279,-7.7921,-7.6385,-7.4802,-7.3588,-7.4032,-7.2915,-7.1833,-7.3285,-7.2947,-7.2372,-7.2472,-7.2041,-7.1461,-7.1115,-7.051,-7.005,-6.9988,-6.9649,-6.9371,-6.9338,-6.9146,-6.9015,-6.9015,-6.8669,-6.8449,-6.8542,-6.81,-6.7843,-6.7843,-6.7613,-6.7382,-6.7316,-6.6698,-6.6168,-6.5889,-6.5593,-6.5256,-6.478,-6.4848,-6.4848,-6.4711,-6.4711,-6.4616,-6.4288,-6.4192,-6.3778,-6.3153,-6.3153,-6.283,0.0,-5.193,-5.3422,-5.4663,-5.3771,-5.3073,-5.4865,-5.4252,0.0,-5.3794,-5.5186,-5.6938,-5.8735,-6.0349,-6.2965,-6.7647,-6.8508,-7.0715,-7.6837,-7.9113,-8.2879,-9.0144,-9.0114,-9.1479,-9.655,-9.6263,-9.5965,-9.6603,-9.6859,-9.6208,-9.4505,-9.2737,-9.1603,-9.1335,-8.983,-8.8869,-8.8601,-8.8108,-8.7783,-8.7683,-8.7522,-8.7522,-8.7683,-8.7522,-8.6785,-8.5537,-8.6535,-8.5054,-8.2206,-8.4856,-8.5128,-8.382,-8.2533,-8.2069,-8.193,-8.0004,-7.8876,-7.8646,-8.076,-8.1201,-8.0887,-8.0796,-7.9413,-7.7608,-7.6665,-7.4467,-7.2424,-7.2163,-7.262,-7.2797,-7.1533,-7.1765,-7.199,-7.052,-7.0351,-7.0414,-7.0136,-7.0202,-7.0266,-7.005,-6.9649,-6.9338,-6.9049,-6.9015,-6.9015,-6.9015,-6.8669,-6.8542,-6.8888,-6.8321,-6.7843,-6.7843,-6.7613,-6.7316,-6.6961,-6.6538,-6.6168,-6.5889,-6.5889,-6.5526,-6.478,-6.5052,-6.512,-6.4711,-6.4711,-6.4684,-6.4684,-6.4356,-6.3917,-6.3501,-6.3501,-6.3501,-5.5444,-5.6536,-5.6876,-5.7573,-5.6255,-5.4909,-5.5607,-5.4741,-5.4009,-5.4991,-5.5296,-5.64,-5.9729,-6.0104,-6.1685,-6.7131,-6.8956,-7.1167,-7.5531,-7.9217,-8.2789,-8.6443,-8.9714,-9.2483,-9.4383,-9.6001,-9.6904,-9.6841,-9.785,-9.8159,-9.7474,-9.4829,-9.3197,-9.291,-9.0535,-8.9034,-8.8652,-8.8108,-8.7868,-8.7868,-8.792,-8.792,-8.7868,-8.8108,-8.7653,-8.6719,-8.7178,-8.5352,0.0,-8.5225,-8.5061,-8.283,-8.2272,-8.2179,-8.185,-7.9043,-7.7735,-7.7559,-7.8732,-7.9382,-7.9739,-7.9564,-7.8984,-7.8037,-7.6522,-7.4678,-7.3147,-7.3159,-7.2771,-7.2349,-7.1888,-7.1616,-7.1197,-7.023,-7.0357,-7.0662,-7.0266,-7.0297,-7.0327,-7.0266,-6.9744,-6.9371,-6.9275,-6.9112,-6.9015,-6.9015,-6.8888,-6.8825,-6.9015,-6.8732,-6.8542,-6.8542,-6.8065,-6.7649,-6.7455,-6.6933,-6.6632,-6.65,-6.6129,-6.5688,-6.512,-6.5256,-6.512,-6.4711,-6.4711,-6.4711,-6.4711,-6.4616,-6.4288,-6.3917,-6.3917,-6.3778,-5.8708,-5.9086,-5.8976,-5.9727,-5.7963,-5.6119,-5.6503,-5.5196,-5.4188,-5.5068,-5.489,-5.5779,-5.9737,-5.963,-6.0934,-6.6925,-6.8991,0.0,0.0,0.0,0.0,-8.4293,-8.8902,-9.208,-9.2506,-9.5329,-9.7154,-9.7093,-9.8106,-9.8638,-9.8621,-9.5919,-9.4267,-9.4014,-9.094,-8.9133,-8.8803,-8.8263,-8.8005,-8.8005,-8.816,-8.816,-8.8005,-8.8365,-8.7926,-8.6956,-8.7284,-8.5528,-8.2583,-8.5474,-8.5211,-8.2888,-8.2888,-8.2573,-8.178,-7.8996,-7.7657,-7.7321,-7.7594,-7.8606,-7.957,-7.8488,-7.8373,-7.8315,-7.6068,-7.4736,-7.3974,-7.4017,-7.3062,-7.2043,-7.1981,-7.144,-7.0813,-7.0205,-7.054,-7.0844,-7.0449,-7.0449,-7.051,-7.0266,-6.9897,-6.9525,-6.9275,-6.9112,-6.9015,-6.9015,-6.9015,-6.9015,-6.9015,-6.9015,-6.8952,-6.8825,-6.8321,-6.8036,-6.8036,-6.7325,-6.6895,-6.6895,-6.6329,-6.5862,-6.5526,-6.5593,-6.5431,-6.512,-6.4984,-6.4916,-6.4916,-6.478,-6.4616,-6.4356,-6.4356,-6.4219,-5.9169,-5.9081,-5.9307,-6.0927,-5.8757,-5.6542,0.0,-5.5732,-5.3688,-5.3688,-5.3881,-5.5004,-5.8151,-5.87,-6.0653,-6.6684,0.0,0.0,-7.6491,-7.9012,-8.1398,-8.4391,-8.7286,-8.9743,-9.1551,-9.4187,-9.6253,-9.7307,-9.7395,-9.7296,-9.701,-9.5487,-9.4566,-9.4232,-9.0875,-8.9019,-8.9019,-8.85,-8.8245,-8.8245,-8.8245,-8.8245,-8.8245,-8.8245,-8.7339,-8.5781,-8.6956,-8.5633,-8.284,-8.5581,-8.5782,-8.4348,-8.4348,-8.3302,-8.165,-8.0262,-7.9138,-7.8281,-7.8023,-7.9379,-8.0735,-7.7731,-7.7617,-7.8184,-7.5445,-7.4627,-7.4572,-7.4327,-7.331,-7.2182,-7.1533,-7.1145,-7.0873,-7.051,-7.0662,-7.0873,-7.0449,-7.0662,-7.0752,-7.0111,-6.9988,-6.977,-6.9141,-6.9015,-6.9015,-6.9015,-6.9015,-6.9015,-6.9015,-6.9015,-6.8888,-6.8449,-6.8385,-6.8385,-6.8385,-6.7483,-6.6895,-6.6895,-6.6472,-6.6168,-6.5889,-6.6168,-6.6168,-6.5889,-6.5526,-6.5323,-6.5323,-6.4916,-6.478,-6.4711,-6.4711,-6.4711,-6.4153,-6.379,-6.3093,-6.4655,-6.2655,-5.9994,0.0,0.0,-5.6005,-5.5626,-5.4975,-5.5604,-5.9488,-5.9477,-6.0775,0.0,0.0,-7.0062,-7.5257,-7.8466,-8.1363,-8.4154,-8.7488,-8.9993,-9.1094,-9.2999,-9.5158,-9.7464,-9.8657,-9.9178,-9.8927,-9.6418,-9.425,-9.2815,-9.0495,-8.9231,-8.9019,-8.85,-8.8347,-8.8551,-8.8551,-8.8551,-8.8551,-8.8551,-8.7959,-8.6989,-8.7284,-8.6072,-8.398,-8.5902,-8.5782,-8.4348,-8.4348,-8.3461,-8.2009,-8.1198,-7.9502,-7.7516,-7.7648,-7.8105,-7.8264,-7.599,-7.6201,-7.7044,-7.5194,-7.4627,-7.4627,-7.4517,-7.3931,-7.3248,-7.302,-7.2443,-7.183,-7.1534,-7.1564,-7.1564,-7.1145,-7.0964,-7.0813,-7.0327,-7.0082,-6.9803,-6.9338,-6.9275,-6.9242,-6.9015,-6.9015,-6.9015,-6.9015,-6.9015,-6.8952,-6.8888,-6.8605,-6.8385,-6.8385,-6.7743,-6.7251,-6.7251,-6.6895,-6.6566,-6.6168,-6.6273,-6.6168,-6.5889,-6.5822,-6.5755,-6.5755,-6.5593,-6.5391,-6.512,-6.512,-6.4984,-6.6423,-6.6358,-6.5712,-6.6593,-6.4928,-6.2317,-5.9648,0.0,-5.6797,-5.5697,-5.5438,-5.635,-5.945,-5.9821,-6.146,0.0,0.0,0.0,-7.6477,-8.0072,-8.3212,-8.5911,-8.8733,-9.0898,-9.2005,-9.301,-9.457,-9.6984,-9.8419,-9.9136,-9.8987,-9.6496,-9.4224,-9.2362,-9.034,-8.9182,-8.9019,-8.8601,-8.85,-8.8652,-8.8719,-8.8719,-8.8652,-8.8652,-8.8263,-8.7641,-8.7536,-8.6442,-8.485,-8.6153,-8.5803,-8.454,-8.5112,-8.4348,-8.2777,-8.1969,-8.0401,-7.8559,-7.7478,-7.7687,-7.8018,-7.5587,-7.5391,-7.5927,-7.4965,-7.4627,-7.4627,-7.4627,-7.4265,-7.3843,-7.37,-7.3222,-7.2621,-7.2185,-7.2067,-7.1949,-7.1444,-7.1205,-7.0964,-7.0449,-7.0266,-7.002,-6.9711,-6.9649,-6.9525,-6.9179,-6.9146,-6.9112,-6.9015,-6.9015,-6.9015,-6.9015,-6.8796,-6.8605,-6.8449,-6.7936,-6.7548,-6.7447,-6.7092,-6.6764,-6.6538,-6.6538,-6.6433,-6.6262,-6.6129,-6.6062,-6.6062,-6.5956,-6.5822,-6.5526,-6.5391,-6.5188,-6.6914,-6.7391,-6.7456,-6.7336,-6.6023,-6.3844,-6.0204,0.0,-5.6791,-5.4701,-5.5359,-5.6859,-5.8623,-5.9999,-6.2562,0.0,0.0,-7.3394,-7.929,-8.2964,-8.6038,-8.8728,0.0,0.0,-9.3508,-9.3583,-9.4267,-9.6038,-9.7053,-9.7748,-9.799,-9.6263,-9.4355,-9.235,-9.0174,-8.9019,-8.9019,-8.8803,-8.8652,-8.8702,-8.8919,-8.8919,-8.8702,-8.8652,-8.8365,-8.7868,-8.7588,-8.67,-8.5552,-8.6348,-8.603,-8.5068,-8.6327,-8.5662,-8.3884,-8.2553,-8.1561,-8.0528,-7.7667,-7.7862,-7.8901,-7.61,-7.5136,-7.4955,-7.4768,-7.4659,-7.4627,-7.4627,-7.4462,-7.4185,-7.3843,-7.3593,-7.3227,-7.2648,-7.2474,-7.2241,-7.1593,-7.1414,-7.1205,-7.0571,-7.0449,-7.0327,-7.005,-7.005,-6.9897,-6.9496,-6.9433,-6.9338,-6.9049,-6.9015,-6.9015,-6.9015,-6.8952,-6.8796,-6.8449,-6.8036,-6.7743,-6.7447,-6.7092,-6.6895,-6.6895,-6.6961,-6.6961,-6.6961,-6.6604,-6.6405,-6.6405,-6.6129,-6.6023,-6.5889,-6.5526,-6.5323,-6.8852,-6.9216,-6.91,-6.9191,-6.7903,-6.5499,-6.0934,-5.9495,0.0,-5.6601,-5.5256,-5.5729,-5.9917,-6.0882,-6.2974,0.0,-7.1517,-7.478,-8.0886,-8.3425,-8.5786,-8.8685,-9.0594,0.0,-9.1861,-9.2125,-9.3318,-9.5703,-9.6316,-9.752,-9.9805,-9.6947,-9.384,-9.0821,-8.9631,-8.9019,-8.9019,-8.8803,-8.8719,-8.8953,-8.9003,-8.9118,-8.9216,-8.8853,-8.8466,-8.8126,-8.766,-8.7158,-8.6714,-8.6938,-8.6839,-8.6628,-8.7118,-8.6251,-8.4646,-8.3827,-8.1863,-7.967,-7.9375,-7.8096,-7.6633,-7.674,-7.595,-7.5009,-7.4987,-7.4791,-7.4627,-7.4627,-7.4572,-7.4517,-7.4462,-7.4241,-7.4018,-7.385,-7.3424,-7.2967,-7.2501,-7.2096,-7.1684,-7.1205,-7.0964,-7.0722,-7.0327,-7.0266,-7.0205,-6.9897,-6.9587,-6.9371,-6.9338,-6.9175,-6.9015,-6.9015,-6.8732,-6.8542,-6.8385,-6.79,-6.7512,-6.7447,-6.7382,-6.7316,-6.7316,-6.7548,-6.7649,-6.7649,-6.7585,-6.739,-6.7186,-6.712,-6.666,-6.5889,-6.6034,-6.5633,-6.9346,-7.0335,-7.0723,-6.9977,-6.9164,-6.7481,-6.3327,0.0,0.0,0.0,-5.7516,-5.8022,-6.0704,-6.2385,-6.4893,-6.9855,-7.2697,-7.6416,-8.2572,-8.4791,-8.6945,-8.9969,-9.1177,-9.1664,-9.1576,-9.1768,-9.3066,-9.5842,-9.6131,-9.7174,-9.9264,-9.6945,-9.3919,-9.0493,-8.962,-8.9167,-8.9019,-8.8869,-8.8869,-8.9019,-8.9265,-8.9412,-8.9412,-8.9019,-8.8618,-8.8229,-8.7693,-8.7012,-8.629,-8.6719,-8.664,-8.629,-8.7006,-8.6734,-8.5695,-8.3716,-8.1871,-8.0133,-7.8774,-7.7211,-7.5973,-7.7141,-7.6554,-7.5355,-7.5248,-7.514,-7.4978,-7.4846,-7.4823,-7.4791,-7.4682,-7.4548,-7.4438,-7.4438,-7.4074,-7.3681,-7.348,-7.2736,-7.1949,-7.1444,-7.1145,-7.0873,-7.0662,-7.0662,-7.054,-7.0205,-7.002,-6.9744,-6.9433,-6.943,-6.9396,-6.9208,-6.9208,-6.8957,-6.8449,-6.8286,-6.7965,-6.7512,-6.7548,-6.7548,-6.7447,-6.7743,-6.7843,-6.7843,-6.7843,-6.7714,-6.7447,-6.7447,-6.7055,-6.6395,-6.6273,-6.5968,-6.9015,-7.09,-7.2214,-7.0279,-7.0091,-6.9412,-6.5787,-6.3678,0.0,0.0,-6.0012,-6.0787,-6.1867,-6.4032,-6.699,-7.0928,-7.4262,-7.8405,-8.4251,-8.6444,-8.8497,0.0,-9.1699,-9.1664,-9.1742,-9.1889,-9.3005,-9.5596,-9.614,-9.6884,-9.8084,-9.665,-9.4489,-9.1551,-9.0276,-8.9427,-8.9019,-8.9019,-8.9019,-8.9019,-8.9558,-8.9703,-8.9461,-8.9167,-8.8819,-8.8331,-8.7764,-8.6871,-8.577,-8.6521,-8.6343,-8.5751,-8.6734,-8.7144,-8.6706,-8.3388,-8.1871,-8.1064,-7.8116,-7.6567,-7.61,-7.7286,-7.6848,-7.5749,-7.5537,-7.5484,-7.5377,-7.5172,-7.5063,-7.4955,-7.4737,-7.4682,-7.4627,-7.4627,-7.4493,-7.4327,-7.4272,-7.3367,-7.2358,-7.1652,-7.1265,-7.1115,-7.1055,-7.0994,-7.0904,-7.051,-7.0388,-7.0175,-6.962,-6.9835,-6.9897,-6.9433,-6.9711,-6.9492,-6.8576,-6.8732,-6.8542,-6.7707,-6.7807,-6.7843,-6.7642,-6.7807,-6.7972,-6.8036,-6.7972,-6.7807,-6.7512,-6.7512,-6.7223,-6.6764,-6.6472,-6.6234,-6.8016,-7.0865,-7.3501,-7.0651,-7.0994,-7.0787,-6.6148,-6.4642,-6.3639,-6.1692,-6.0061,-6.0295,-6.4507,-6.5476,-6.7715,-7.3804,-7.7344,-8.099,-8.5779,-8.7791,-8.9422,-9.1192,-9.14,-9.1488,-9.1742,-9.1889,-9.2552,-9.4075,-9.5861,-9.7284,-9.8132,-9.665,-9.5551,-9.4958,-9.2021,-8.9955,-8.9019,-8.9019,-8.9019,-8.9019,-8.9558,-8.9799,-8.9703,-8.9265,-8.8969,-8.8869,-8.8126,-8.756,-8.7217,-8.7311,-8.7172,-8.6879,-8.7258,-8.7304,-8.6785,-8.4536,-8.2754,-8.1325,-8.0291,-7.8367,-7.6371,-7.6564,-7.6258,-7.5802,-7.5749,-7.559,-7.5431,-7.5377,-7.5194,-7.5041,-7.4955,-7.4823,-7.4627,-7.4627,-7.4659,-7.4548,-7.4327,-7.385,-7.3253,-7.2358,-7.2008,-7.1684,-7.1325,-7.1265,-7.1205,-7.0934,-7.0571,-7.0297,-7.0236,-7.0266,-7.0052,-6.9433,-6.9433,-6.9338,-6.8952,-6.8669,-6.8449,-6.8321,-6.8321,-6.8321,-6.8257,-6.8321,-6.8542,-6.8888,-6.8542,-6.8193,-6.7779,-6.7779,-6.7325,-6.6339,-6.6698,-6.6433,-6.8852,-7.1101,-7.3136,-7.1846,-7.1959,-7.1834,-6.9571,-6.8024,-6.6754,-6.5748,-6.4675,-6.4619,-6.6782,-6.8086,-7.0613,-7.5966,-7.8793,-8.2214,-8.7675,-8.8787,-8.9665,-9.1403,-9.1629,-9.1716,-9.1742,-9.2264,-9.2944,-9.3841,-9.4192,-9.4437,-9.4556,-9.4593,-9.4605,-9.4547,-9.2138,-9.0425,-8.9669,-8.9412,-8.9216,-8.9265,-8.9606,-8.9703,-8.9558,-8.9216,-8.8919,-8.8769,-8.816,-8.7712,-8.743,-8.7304,-8.7198,-8.7091,-8.7198,-8.7198,-8.6719,-8.3814,-8.2231,-8.1162,-7.8935,-7.7969,-7.7486,-7.6648,-7.6286,-7.615,-7.615,-7.6045,-7.594,-7.5697,-7.5569,-7.5462,-7.5302,-7.5194,-7.5086,-7.5086,-7.4955,-7.4823,-7.4682,-7.4296,-7.3793,-7.3024,-7.236,-7.1862,-7.1653,-7.1444,-7.1325,-7.1205,-7.0904,-7.0783,-7.0874,-7.0753,-7.0479,-6.9773,-6.9897,-6.9649,-6.9078,-6.902,-6.8801,-6.8449,-6.8669,-6.8669,-6.8385,-6.8669,-6.8825,-6.9015,-6.8825,-6.8542,-6.8193,-6.7972,-6.752,-6.6961,-6.6895,-6.6566,-6.8974,-7.0964,-7.2634,-7.2557,-7.2841,-7.2953,-7.2295,-7.0836,-6.9476,-6.8933,-6.8501,-6.8403,-6.8952,-7.0707,-7.3525,-7.7965,-8.0454,-8.3679,-8.897,-8.9409,-8.9699,-9.1054,-9.1031,-9.1087,-9.138,-9.1683,-9.2292,-9.3302,-9.3116,-9.2724,-9.2281,-9.319,-9.369,-9.369,-9.1939,-9.0701,-9.0204,-8.9765,-8.9461,-8.9412,-8.9655,-8.9655,-8.9412,-8.9118,-8.8903,-8.8652,-8.816,-8.7798,-8.7536,-8.7304,-8.7144,-8.7057,-8.6607,-8.6475,-8.5985,-8.2994,-8.1708,-8.0999,-7.7619,-7.7377,-7.8356,-7.7292,-7.6938,-7.6938,-7.6938,-7.668,-7.6338,-7.6045,-7.5855,-7.5749,-7.559,-7.5484,-7.5431,-7.5431,-7.5248,-7.5009,-7.5009,-7.4659,-7.4105,-7.3624,-7.2856,-7.2274,-7.2274,-7.186,-7.1564,-7.1504,-7.1205,-7.1175,-7.1475,-7.1205,-7.0783,-7.0173,-7.0205,-6.9926,-6.9078,-6.9208,-6.9116,-6.8576,-6.8888,-6.8888,-6.8605,-6.8732,-6.8888,-6.9015,-6.8888,-6.8669,-6.8257,-6.7972,-6.7649,-6.7316,-6.7027,-6.6698,-6.7151,-7.0002,-7.2456,-7.2219,-7.3435,-7.4267,-7.2507,-7.174,-7.0993,-6.9657,-6.9059,-6.9281,0.0,0.0,-7.5543,-8.0009,-8.3199,-8.6129,-8.9041,-8.9501,-8.962,-8.969,-8.8842,-8.8839,-9.0281,-8.9247,-8.9442,-9.1842,-9.3587,-9.4262,-9.3632,-9.3656,-9.369,-9.369,-9.1939,-9.0701,-9.0204,-8.9921,-8.9669,-8.9412,-8.9655,-8.9655,-8.9412,-8.9118,-8.8903,-8.8652,-8.8347,-8.8057,-8.7816,-8.7588,-8.7271,-8.6958,-8.5451,-8.4712,-8.4282,-8.2508,-8.1688,-8.1011,-7.7859,-7.7567,-7.8517,-7.8452,-7.842,-7.842,-7.842,-7.7486,-7.639,-7.639,-7.6097,-7.5802,-7.5802,-7.559,-7.5431,-7.5431,-7.5248,-7.5009,-7.5009,-7.4659,-7.4272,-7.4216,-7.3681,-7.3227,-7.3227,-7.2679,-7.2182,-7.1921,-7.1594,-7.1444,-7.1862,-7.1534,-7.1055,-7.0449,-7.0143,-6.9708,-6.9078,-6.9015,-6.9015,-6.9015,-6.9015,-6.9015,-6.9015,-6.8669,-6.8669,-6.9015,-6.8669,-6.8257,-6.7908,-6.7843,-6.752,-6.6895,-6.6895,-6.6698,-6.7148,-6.9444,-7.1352,-7.2148,-7.3475,-7.4378,-7.3555,-7.3126,-7.2756,-7.2232,-7.1892,-7.1964,-7.2889,-7.4654,-7.7077,-8.0434,-8.3671,-8.6613,-8.9285,-9.045,-9.0993,-9.0993,-9.0139,-9.0106,-9.1495,-8.8981,-8.8206,-9.0518,-9.1331,-9.1437,-9.0959,-9.1722,-9.2198,-9.2198,-9.1589,-9.0963,-9.0471,-9.0378,-9.0097,-8.9655,-8.9751,-8.9558,-8.9167,-8.9068,-8.8769,-8.8398,-8.8296,-8.8108,-8.775,-8.6797,-8.6224,-8.5779,-8.4049,-8.3299,-8.3012,-8.1119,-8.0317,-7.9873,-7.8604,-7.8838,-7.9783,-7.9783,-7.9783,-7.9622,-7.8807,-7.8195,-7.7582,-7.6648,-7.6286,-7.615,-7.615,-7.6129,-7.6045,-7.6045,-7.5675,-7.5302,-7.5302,-7.49,-7.4438,-7.4327,-7.4049,-7.3737,-7.3341,-7.3112,-7.2736,-7.2271,-7.2065,-7.2006,-7.2154,-7.1682,-7.1205,-7.0783,-7.0388,-7.0111,-6.9646,-6.9646,-6.9521,-6.9305,-6.9242,-6.9208,-6.9015,-6.8888,-6.8888,-6.9015,-6.8605,-6.8321,-6.8193,-6.7807,-6.7512,-6.7223,-6.6207,-6.5516,-6.6438,-6.829,-6.9856,-7.1225,-7.267,-7.3615,-7.3292,-7.3517,-7.3804,-7.3736,-7.3634,-7.384,-7.4734,-7.6504,-7.8723,-8.1457,-8.4522,-8.7288,-8.9354,-9.0493,-9.1156,-9.1156,-8.9995,-8.9853,-9.1653,-8.9514,-8.8848,-9.0641,-9.0694,-9.0521,-9.0218,-9.0933,-9.1356,-9.1356,-9.1356,-9.1143,-9.0701,-9.0701,-9.0425,-8.9942,-8.9942,-8.9703,-8.9265,-8.9216,-8.8869,-8.8398,-8.8398,-8.8211,-8.7905,-8.6434,-8.5714,-8.526,-8.3013,-8.2016,-8.1649,-7.9763,-7.9262,-7.9378,-7.9151,-8.0097,-8.1375,-8.1232,-8.0855,-8.0331,-7.9429,-7.8581,-7.7615,-7.668,-7.639,-7.639,-7.639,-7.639,-7.639,-7.639,-7.594,-7.5537,-7.5537,-7.5194,-7.4869,-7.4682,-7.4517,-7.4272,-7.3793,-7.3454,-7.3112,-7.2736,-7.2563,-7.2658,-7.3116,-7.231,-7.1504,-7.1115,-7.0783,-7.0418,-6.9988,-6.9988,-6.9865,-6.9649,-6.9496,-6.9225,-6.8658,-6.8533,-6.8329,-6.7986,-6.7648,-6.74,-6.7304,-6.6739,-6.6358,-6.6139,-6.5061,-6.4349,-6.4756,-6.6434,-6.8059,-6.9365,-7.0951,-7.2118,-7.1651,-7.2775,-7.3963,-7.3901,-7.4035,-7.4689,-7.6636,-7.8391,-8.045,-8.3188,-8.6001,-8.8255,-8.9285,-8.9787,-9.0074,-9.0034,-8.8138,-8.7869,-9.0609,-9.0818,-9.1185,-9.2249,-9.2109,-9.1897,-9.1786,-9.1488,-9.1365,-9.14,-9.1365,-9.1232,-9.1008,-9.0963,-9.0701,-9.0204,-9.0191,-9.005,-8.9833,-8.9509,-8.9118,-8.8652,-8.8652,-8.8466,-8.8077,-8.6637,-8.5866,-8.5331,-8.2344,-8.0886,-8.023,-7.8565,-7.8662,-7.9654,-7.9495,-8.1067,-8.3161,-8.2794,-8.1715,-8.0556,-8.0459,-7.856,-7.6455,-7.6423,-7.639,-7.639,-7.639,-7.639,-7.639,-7.639,-7.6097,-7.5802,-7.5802,-7.559,-7.5431,-7.5431,-7.5032,-7.4627,-7.4659,-7.3906,-7.3372,-7.3346,-7.3086,-7.3374,-7.4637,-7.3359,-7.2065,-7.1414,-7.1085,-7.0691,-7.005,-6.9988,-6.9988,-6.9988,-6.9591,-6.8941,-6.8038,-6.7617,-6.6912,-6.5914,-6.5622,-6.5356,-6.5118,-6.4701,-6.4158,-6.3575,-6.3518,-6.3148,-6.1623,0.0,0.0,-6.6472,-6.851,-7.0657,-7.1376,-7.1905,-7.2567,-7.3754,-7.4845,-7.5895,-7.6781,-7.9215,-8.1663,-8.34,-8.6185,-8.8527,-8.9571,-9.0856,-9.1605,-9.1437,-9.0366,-9.0291,-9.1991,-9.13,-9.1185,-9.2249,-9.2109,-9.1904,-9.1897,-9.1542,-9.1498,-9.1768,-9.1498,-9.1321,-9.1267,-9.0838,-9.0517,-9.0204,-9.0003,-8.9894,-8.9833,-8.9509,-8.9118,-8.8618,-8.8449,-8.7743,-8.6603,-8.5275,-8.3935,-8.2568,-8.0538,-7.9486,-7.9084,-7.8251,-7.8662,-7.9869,-8.0813,-8.2201,-8.346,-8.335,-8.2893,-8.2048,-7.9957,-7.8847,-7.7954,-7.6732,-7.6649,-7.6873,-7.6494,-7.6546,-7.663,-7.6442,-7.6097,-7.5802,-7.5802,-7.559,-7.5431,-7.5431,-7.5323,-7.514,-7.4946,-7.4728,-7.4634,-7.4924,-7.4069,-7.3573,-7.3945,-7.3271,-7.2477,-7.1831,-7.1295,-7.0873,-7.0691,-7.0691,-7.054,-7.0266,-6.9316,-6.8514,-6.8069,-6.6916,-6.6151,-6.5885,-6.5622,-6.5355,-6.5118,-6.4518,-6.4004,-6.3547,-6.2395,-6.1695,-5.9325,0.0,0.0,0.0,-6.5693,-6.7491,-6.9324,-7.0371,-7.1376,-7.2796,-7.4347,-7.596,-7.7565,-7.9365,-8.1243,-8.3293,-8.5508,-8.7425,-8.8674,-9.0261,-9.1535,-9.2039,-9.1788,-9.189,-9.2649,-9.2066,-9.185,-9.2444,-9.2271,-9.2109,-9.2109,-9.1768,-9.1716,-9.1889,-9.1629,-9.1488,-9.1356,-9.0963,-9.0609,-9.0344,-8.9515,-8.902,-8.8912,-8.8735,-8.8447,-8.8041,-8.8332,-8.7526,-8.5999,-8.4685,-8.3205,-8.1458,-7.9769,-7.8967,-7.8697,-7.8168,-7.8795,-7.9939,-8.072,-8.1773,-8.2821,-8.2746,-8.2193,-8.1273,-7.9565,-7.8657,-7.7976,-7.6978,-7.6924,-7.7076,-7.6803,-7.6854,-7.6854,-7.663,-7.6358,-7.6202,-7.6202,-7.5992,-7.5887,-7.5992,-7.5749,-7.5537,-7.5377,-7.5162,-7.5145,-7.5491,-7.4815,-7.4091,-7.3756,-7.331,-7.2856,-7.2391,-7.1831,-7.1385,-7.1175,-7.0994,-7.0634,-6.9857,-6.8903,-6.7922,-6.6794,-6.582,-6.5139,-6.469,-6.4295,-6.4038,-6.3923,-6.3168,-6.2578,-6.2252,-6.1037,-6.04,-5.6687,0.0,0.0,-6.154,-6.2292,-6.3294,0.0,-6.8009,-6.9783,-7.1235,-7.2955,-7.5166,-7.8278,-7.9159,-8.0257,-8.2935,-8.4546,-8.6006,-8.7555,-8.9041,-9.0641,-9.2179,-9.2597,-9.2755,-9.2755,-9.2755,-9.2755,-9.2755,-9.2514,-9.2354,-9.2354,-9.2109,-9.1827,-9.1671,-9.1724,-9.1525,-9.0967,-9.0752,-9.0482,-9.0047,-8.8501,-8.7655,-8.7424,-8.7594,-8.7522,-8.7293,-8.8262,-8.7677,-8.5999,-8.4517,-8.2937,-8.1256,-7.9703,-7.8967,-7.8697,-7.8216,-7.8894,-8.0043,-7.9873,-8.0688,-8.1813,-8.1419,-8.0401,-7.9326,-7.9164,-7.8219,-7.7228,-7.7177,-7.7228,-7.7278,-7.7177,-7.7177,-7.7127,-7.6854,-7.6835,-7.6835,-7.6835,-7.6649,-7.6546,-7.6733,-7.6306,-7.5908,-7.5855,-7.5484,-7.527,-7.5484,-7.527,-7.4751,-7.3924,-7.3537,-7.3227,-7.2913,-7.2563,-7.2124,-7.1444,-7.1145,-7.0366,-6.8957,-6.8485,-6.7264,-6.504,-6.4579,-6.3928,-6.2976,-6.2549,-6.2251,-6.2196,-6.1335,-6.0714,-6.0429,-5.9796,-5.9419,0.0,0.0,0.0,0.0,0.0,0.0,0.0,0.0,-6.5536,-6.9641,-7.1668,-7.3662,-7.6688,-7.9302,-8.1493,-8.3111,-8.4805,-8.6812,-8.9197,-8.9985,-9.0879,-9.2462,-9.2679,-9.2755,-9.2755,-9.2755,-9.2755,-9.2755,-9.2514,-9.2396,-9.2638,-9.2194,-9.1633,-9.1,-9.1465,-9.066,-8.84,-8.8763,-8.8268,-8.694,-8.6229,-8.5832,-8.582,-8.7083,-8.7428,-8.7053,-8.8361,-8.791,-8.5899,-8.3489,-8.1457,-7.9882,-7.9302,-7.8967,-7.8697,-7.8362,-7.9042,-8.0094,-8.0262,-8.1116,-8.1982,-8.073,-8.0019,-7.9407,-7.8263,-7.7707,-7.7461,-7.7228,-7.7478,-7.7694,-7.7278,-7.7328,-7.7411,-7.7127,-7.7076,-7.7076,-7.7076,-7.7025,-7.7007,-7.6835,-7.6649,-7.6546,-7.6338,-7.6234,-7.615,-7.6234,-7.5537,-7.5,-7.4837,-7.4098,-7.3367,-7.2821,-7.2675,-7.2416,-7.1862,-7.1475,-7.0243,-6.7894,-6.7488,-6.6569,-6.498,-6.3879,-6.3191,-6.2976,-6.2868,-6.2628,-6.2196,-6.1529,-6.0912,-6.0429,-5.9998,-5.9243,0.0,0.0,0.0,0.0,0.0,0.0,0.0,0.0,0.0,0.0,0.0,-6.8826,-7.2776,0.0,-7.8669,-8.0893,-8.3328,-8.5902,-8.8624,-8.9274,-9.0234,-9.2438,-9.2755,-9.2755,-9.2755,-9.2755,-9.2755,-9.2755,-9.2597,-9.2597,-9.2714,-9.2479,-9.1776,-9.0625,-9.1381,-9.0772,-8.844,-8.9151,-8.8694,-8.7082,-8.6024,-8.5091,-8.4319,-8.5945,-8.6352,-8.5821,-8.7309,-8.7252,-8.5899,-8.3009,-8.0927,-7.948,-7.9108,-7.8745,-7.8506,-7.8362,-7.863,-7.9058,-7.9306,-7.9718,-7.998,-7.9239,-7.8959,-7.8695,-7.8006,-7.7333,-7.6823,-7.6579,-7.6216,-7.5831,-7.5625,-7.6087,-7.6628,-7.6465,-7.6906,-7.7328,-7.7328,-7.7278,-7.7177,-7.7159,-7.6956,-7.6733,-7.6597,-7.6597,-7.6649,-7.6752,-7.6254,-7.5697,-7.527,-7.4728,-7.373,-7.2064,-7.1946,-7.1386,-7.0149,-6.9916,-6.9196,-6.7725,-6.6807,-6.5622,-6.4186,-6.3281,-6.2761,-6.2761,-6.2549,-6.2276,-6.2005,-6.1054,-6.04,-6.0142,-5.8604,-5.7585,0.0,0.0,0.0,0.0,0.0,0.0,0.0,0.0,0.0,0.0,0.0,0.0,0.0,0.0,0.0,-7.7783,-8.1104,-8.4458,-8.7619,-8.8301,-8.9331,-9.1639,-9.2121,-9.2297,-9.2338,-9.2297,-9.2297,-9.2297,-9.2579,-9.2614,-9.2297,-9.2579,-9.1875,-9.0049,-9.105,-9.0535,-8.8393,-8.9314,-8.8993,-8.7587,-8.6,0.0,-8.3271,-8.4644,-8.4888,-8.4311,-8.5801,-8.5986,-8.506,-8.2645,-8.0834,-7.9413,-7.8694,-7.8313,-7.8042,-7.773,-7.7652,-7.7691,-7.7917,-7.7985,-7.7989,-7.7973,-7.794,-7.794,-7.794,-7.728,0.0,-7.6262,-7.5435,-7.4665,-7.4745,-7.5529,-7.6277,-7.6259,-7.6987,-7.7612,-7.7349,-7.7282,-7.7313,-7.7151,-7.6964,-7.6854,-7.6854,-7.64,-7.6094,-7.6313,-7.6094,-7.5752,-7.527,-7.5017,-7.3984,-7.1739,-7.1451,-7.065,-6.8723,-6.8001,-6.7708,-6.7764,-6.6032,-6.4333,-6.277,-6.2041,-6.1591,-6.1217,-6.1218,-6.1069,-6.067,-5.9996,-5.9486,-5.9058,-5.6257,-5.5245,0.0,0.0,0.0,0.0,0.0,0.0,0.0,0.0,0.0,0.0,0.0,0.0,0.0,0.0,0.0,0.0,-7.887,-8.333,-8.7478,-8.8301,-8.8557,-8.8872,-8.9952,-9.0758,-9.099,-9.0797,-9.0678,-9.0678,-9.1945,-9.2121,-9.0713,-9.1981,0.0,0.0,0.0,-8.8685,-8.5437,-8.6312,-8.6513,-8.5966,-8.439,-8.3534,-8.3354,-8.3568,-8.3407,-8.3084,-8.4278,-8.3813,-8.2142,-8.1759,-8.0834,-7.9392,-7.7926,-7.7345,-7.7133,-7.5593,-7.5733,-7.6758,-7.6804,0.0,0.0,-7.8022,-7.794,-7.794,-7.794,-7.7841,-7.7758,-7.771,-7.7578,-7.7543,-7.777,-7.7983,-7.8082,-7.8336,-7.8325,-7.7886,-7.6632,-7.7133,-7.7431,-7.5925,-7.643,-7.7127,-7.7127,-7.5027,-7.332,-7.3369,-7.3029,-7.3254,-7.4433,-7.4342,-7.3799,-7.2774,-7.2509,0.0,-6.9907,-6.7259,-6.6154,-6.7444,-6.4837,-6.2337,-6.036,-5.9204,-5.7878,-5.6256,-5.8209,-5.838,-5.6679,-5.8243,-5.8163,-5.6526,-5.3342,-5.2865,0.0,0.0,0.0,0.0,0.0,0.0,0.0,0.0,0.0,0.0,0.0,0.0,0.0,0.0,0.0,0.0,-7.7297,-8.1274,-8.3786,-8.5687,-8.7205,-8.8122,-8.8675,-8.9063,-8.9176,-8.9098,-8.9024,-8.9024,-8.9622,-8.9728,-8.9059,-8.9657,-8.9063,-8.6958,-8.7939,-8.7339,-8.4864,-8.5896,-8.5816,-8.4575,-8.4086,-8.3329,-8.2377,-8.3236,-8.3354,-8.2936,-8.3185,-8.2747,-8.178,-8.0814,-8.0109,-7.963,0.0,0.0,0.0,0.0,-7.7455,-7.8035,-7.7894,-7.8057,-7.8298,-7.7989,-7.794,-7.794,-7.794,-7.7574,-7.7105,-7.6995,-7.6477,-7.6061,-7.6153,-7.6758,-7.7388,-7.774,-7.8207,-7.8388,-7.7791,-7.7932,-7.7954,-7.7037,-7.6481,0.0,-7.5254,-7.4046,-7.3167,-7.3308,-7.401,-7.4259,-7.3532,-7.4246,-7.3804,-7.1155,-7.0763,-6.9972,-6.8193,-6.6849,0.0,0.0,0.0,-6.3515,-6.0446,-6.0846,0.0,0.0,0.0,-5.4278,-5.2614,-5.2909,0.0,0.0,-4.6871,-4.7156,0.0,0.0,0.0,0.0,0.0,0.0,0.0,0.0,0.0,0.0,0.0,0.0,0.0,0.0,0.0,0.0,-7.4648,-7.8565,-7.9436,-8.2446,-8.4879,-8.5622,-8.6744,-8.7228,-8.6806,-8.7119,-8.7362,-8.7362,-8.7788,-8.7862,-8.744,-8.7827,-8.7334,-8.5785,-8.6528,-8.6245,-8.4773,-8.5515,-8.5385,-8.4439,-8.4273,-8.3472,-8.2236,-8.289,-8.291,-8.2432,-8.1942,-8.1658,-8.1348,-8.0054,-7.9618,-7.9642,-7.8346,-7.8199,-7.8684,-7.7527,-7.754,-7.8078,-7.8168,-7.8318,-7.841,-7.8119,-7.7989,-7.7973,-7.7989,-7.7586,-7.7029,-7.6841,-7.6293,-7.5793,-7.5838,-7.6581,-7.7368,-7.7804,-7.8366,-7.874,-7.8434,-7.8336,-7.8034,-7.7097,-7.5542,-7.4133,-7.3268,-7.2637,-7.2204,-7.242,-7.3492,-7.3841,-7.2575,-7.3552,-7.3184,-7.0155,-6.9644,-6.8859,-6.7136,-6.6421,-6.5566,-6.424,-6.5153,-6.4175,-6.0753,-6.1606,-5.99,-5.5059,-5.3134,-5.103,0.0,0.0,0.0,0.0,0.0,0.0,0.0,0.0,0.0,0.0,0.0,0.0,0.0,0.0,0.0,0.0,0.0,0.0,0.0,0.0,0.0,0.0,0.0,0.0,-7.5227,-7.8994,-8.1273,-7.9912,-8.3329,-8.5187,-8.371,-8.479,-8.5623,-8.5623,-8.7113,-8.7404,-8.5856,-8.7228,-8.7334,-8.5785,-8.563,-8.532,-8.4739,-8.453,-8.4959,-8.6012,-8.4747,-8.3989,-8.3647,-8.234,-8.1435,-8.0897,-8.0393,-8.0105,-7.9947,-7.9618,-7.9526,-7.9224,-7.6593,-7.654,-7.7591,-7.4288,-7.4111,-7.5651,-7.6541,-7.7655,-7.8697,-7.841,-7.8168,-7.7989,-7.8216,-7.8313,-7.828,-7.828,-7.8407,-7.8659,-7.8928,-7.9008,-7.9181,-7.9676,-7.9434,-7.8754,-7.7658,-7.7921,-7.752,-7.4725,-7.2927,-7.1825,-7.1759,-7.0428,-6.9331,-6.9331,-6.9364,0.0,-7.155,-7.168,-7.1455,-7.0953,-7.0339,-6.9367,-6.7889,-6.5829,-6.4802,-6.523,-6.4584,-6.3059,-6.0571,-5.9644,-5.7565,-5.3954,-5.2595,-4.9566,-4.4877,0.0,0.0,0.0,0.0,0.0,0.0,0.0,0.0,0.0,0.0,0.0,0.0,0.0,0.0,0.0,0.0,0.0,0.0,0.0,0.0,0.0,0.0,0.0,0.0,-7.3587,-7.7329,-7.7794,-7.9146,-8.0113,-8.0187,-7.973,-7.9835,-8.0704,-8.2176,-8.2881,-8.2504,-8.3793,-8.4347,-8.3787,-8.3664,-8.343,-8.3083,-8.3003,-8.3124,-8.3556,-8.3077,-8.2719,-8.2479,-8.1865,-8.1366,-8.0829,-8.0315,-8.0004,-7.9913,-7.9788,-7.8566,-7.6684,-7.538,-7.5279,-7.5591,-7.427,-7.4226,-7.4804,-7.5204,-7.548,-7.5611,-7.5285,-7.5176,-7.5096,-7.5223,-7.5392,-7.5836,-7.691,-7.7548,-7.8161,-7.912,-7.9584,-7.9824,-7.9959,-7.9812,-7.9517,-7.9138,-7.8112,-7.6984,-7.5961,-7.3365,-7.1073,-7.0219,-6.9703,-6.9504,-6.9676,-7.0503,-7.0922,-7.0416,-7.1253,-7.144,-7.0198,-6.9834,-6.9371,-6.8568,-6.7888,-6.677,-6.517,-6.5138,-6.3681,-6.0332,-5.9061,-5.6851,-5.3485,-5.0731,-4.7498,-4.3677,0.0,0.0,0.0,0.0,0.0,0.0,0.0,0.0,0.0,0.0,0.0,0.0,0.0,0.0,0.0,0.0,0.0,0.0,0.0,0.0,0.0,0.0,0.0,0.0,0.0,0.0,-7.5208,-7.5751,0.0,-7.5906,-7.464,-7.4359,-7.5661,-7.727,-7.8463,-7.9094,-8.0456,-8.1183,-8.1183,-8.1029,-8.1154,-8.1559,-8.1559,-8.1798,-8.2354,-8.1798,-8.1402,-8.1048,-8.0914,-8.0543,-8.0121,-8.0088,-7.9789,-7.9261,-7.871,-7.6892,-7.4507,-7.4336,-7.3839,-7.3241,-7.2972,-7.3295,-7.3882,-7.3749,-7.3572,-7.3426,-7.3623,-7.3274,-7.2703,-7.245,-7.2157,-7.2432,-7.4593,-7.5158,-7.554,-7.7558,-7.8195,-7.8339,-7.8558,-7.845,-7.8297,-7.8297,-7.7044,-7.5724,-7.5123,-7.2266,-6.9528,-6.8099,-6.8037,-6.8038,-6.7673,-6.9249,-7.0135,-6.9174,-7.0215,-7.0734,-6.9851,-6.9494,-6.9189,-6.8759,-6.8568,-6.75,-6.5202,-6.5138,-6.349,-5.9706,-5.8469,-5.5996,-5.2087,-4.9311,-4.5993,0.0,0.0,0.0,0.0,0.0,0.0,0.0,0.0,0.0,0.0,0.0,0.0,0.0,0.0,0.0,0.0,0.0,0.0,0.0,0.0,0.0,0.0,0.0,0.0,0.0,0.0,0.0,-7.1811,-7.2747,0.0,0.0,0.0,0.0,-7.0464,-7.2436,-7.4111,-7.5381,-7.7061,-7.8004,-7.811,-7.7927,-7.8547,-8.0151,-8.0151,-8.0879,-8.2337,-8.0845,-7.9922,-7.9533,-7.9294,-7.8931,-7.8654,-7.9467,-7.9211,-7.7993,-7.6137,-7.4221,-7.2473,-7.275,-7.1717,-7.0141,-6.9789,-7.08,-7.2222,-7.1654,-7.1624,-7.1913,-7.2812,-7.2,-7.0544,-6.9553,-6.8312,0.0,0.0,-7.1293,-7.1156,-7.4491,-7.5232,-7.5204,-7.584,-7.5664,-7.5358,-7.5391,-7.4736,-7.3638,-7.1979,-6.9424,-6.7075,-6.5481,0.0,-6.4917,-6.3527,-6.5653,-6.7542,-6.7991,-6.8749,-6.9417,-6.9888,-6.9396,-6.8946,-6.8645,-6.7866,-6.6808,-6.5385,-6.4536,-6.2486,-5.8832,-5.7617,-5.4663,-4.9667,-4.803,0.0,0.0,0.0,0.0,0.0,0.0,0.0,0.0,0.0,0.0,0.0,0.0,0.0,0.0,0.0,0.0,0.0,0.0,0.0,0.0,0.0,0.0,0.0,0.0,0.0,0.0,-6.0101,-6.378,-6.4728,-6.5129,-6.5001,0.0,0.0,0.0,0.0,0.0,0.0,-6.7586,-7.0848,-7.3428,-7.4961,-7.5514,-7.6578,-7.8252,-7.8252,-7.846,-7.8839,-7.8343,-7.7943,-7.767,-7.7313,-7.6907,-7.656,-7.6593,-7.6353,-7.5526,-7.1106,-6.8378,-6.6745,-6.4406,-6.3041,-6.2211,-6.0746,-6.1791,-6.3865,-6.3318,-6.4731,-6.6532,-6.5265,-6.4892,-6.4238,-6.0771,0.0,0.0,0.0,0.0,-6.8679,-7.1625,-7.4049,-7.5656,-7.5824,-7.5367,-7.4901,-7.5065,-7.3803,-7.1206,-6.6268,-6.4506,-6.3148,-6.1098,-6.2755,0.0,-6.2698,-6.4718,-6.6903,-6.8158,-6.9358,-6.9964,-6.9709,-6.9537,-6.9222,-6.8645,-6.728,-6.6023,-6.5093,-6.2757,-6.0532,-5.8485,-5.4559,-5.0712,-4.7093,0.0,0.0,0.0,0.0,0.0,0.0,0.0,0.0,0.0,0.0,0.0,0.0,0.0,0.0,0.0,0.0,0.0,0.0,0.0,0.0,0.0,0.0,0.0,0.0,0.0,0.0,0.0,-5.545,-5.9363,-6.0405,-5.9138,-5.8067,0.0,0.0,0.0,0.0,0.0,0.0,0.0,0.0,0.0,-6.8535,-6.9708,-7.1378,-7.3705,-7.4987,-7.5956,-7.6615,-7.6428,-7.6166,-7.5819,-7.5504,-7.5143,-7.4767,-7.4634,-7.2859,-6.9785,-6.5611,-6.2845,-6.0879,0.0,0.0,0.0,0.0,-5.5088,-5.6348,-5.5934,-5.6557,-5.7515,-5.7323,0.0,0.0,0.0,0.0,0.0,0.0,0.0,-6.187,-6.6347,-6.955,-7.1824,-7.2662,-7.2983,-7.2994,-7.2315,-6.9558,-6.5866,-6.1252,-5.9754,-5.8468,-5.6019,-5.7723,0.0,0.0,0.0,-6.476,-6.6262,-6.8517,-6.9922,-6.9623,-6.944,-6.9134,-6.8645,-6.7,-6.5379,-6.4141,-6.1246,-5.8558,-5.6442,-5.2123,-4.7931,0.0,0.0,0.0,0.0,0.0,0.0,0.0,0.0,0.0,0.0,0.0,0.0,0.0,0.0,0.0,0.0,0.0,0.0,0.0,0.0,0.0,0.0,0.0,0.0,0.0,0.0,0.0,0.0,0.0,-5.5169,-5.6486,0.0,0.0,0.0,0.0,0.0,0.0,0.0,0.0,0.0,0.0,0.0,0.0,0.0,-6.4346,-6.7301,-6.9987,-7.2211,-7.3911,-7.3454,-7.3335,-7.3541,-7.3067,-7.2789,-7.2533,-7.1506,0.0,-6.2332,-5.9302,0.0,0.0,0.0,0.0,0.0,0.0,0.0,0.0,0.0,0.0,0.0,0.0,0.0,0.0,0.0,0.0,0.0,0.0,0.0,0.0,0.0,0.0,-6.5783,-6.7677,-6.9366,-6.9675,-6.668,-6.2522,-5.8572,-5.6086,-5.4746,-5.3184,0.0,0.0,0.0,0.0,0.0,0.0,-6.3792,-6.7322,-6.9623,-6.9494,-6.9178,-6.8759,-6.8295,-6.6453,-6.4494,-6.2516,-5.9636,-5.6433,-5.3122,-4.9917,0.0,0.0,0.0,0.0,0.0,0.0,0.0,0.0,0.0,0.0,0.0,0.0,0.0,0.0,0.0,0.0,0.0,0.0,0.0,0.0,0.0,0.0,0.0,0.0,0.0,0.0,0.0,0.0,0.0,0.0,0.0,0.0,0.0,0.0,0.0,0.0,0.0,0.0,0.0,0.0,0.0,0.0,0.0,0.0,0.0,0.0,0.0,0.0,0.0,0.0,-6.4489,-6.5578,-6.8774,-6.7219,-6.7065,-6.7655,-6.119,-5.7557,-5.5819,-5.0614,0.0,0.0,0.0,0.0,0.0,0.0,0.0,0.0,0.0,0.0,0.0,0.0,0.0,0.0,0.0,0.0,0.0,0.0,0.0,0.0,0.0,0.0,-6.0863,-6.2909,-6.4733,-6.3798,-5.5452,0.0,0.0,0.0,0.0,0.0,0.0,0.0,0.0,0.0,0.0,0.0,-6.3953,-6.7763,-6.9922,-6.9036,-6.8892,-6.8136,-6.6344,-6.4583,-6.2427,-5.9616,-5.7326,-5.378,0.0,0.0,0.0,0.0,0.0,0.0,0.0,0.0,0.0,0.0,0.0,0.0,0.0,0.0,0.0,0.0,0.0,0.0,0.0,0.0,0.0,0.0,0.0,0.0,0.0,0.0,0.0,0.0,0.0,0.0,0.0,0.0,0.0,0.0,0.0,0.0,0.0,0.0,0.0,0.0,0.0,0.0,0.0,0.0,0.0,0.0,0.0,0.0,0.0,0.0,0.0,0.0,0.0,0.0,0.0,0.0,0.0,0.0,-5.4762,-5.0581,0.0,0.0,0.0,0.0,0.0,0.0,0.0,0.0,0.0,0.0,0.0,0.0,0.0,0.0,0.0,0.0,0.0,0.0,0.0,0.0,0.0,0.0,0.0,0.0,0.0,0.0,0.0,0.0,0.0,0.0,0.0,0.0,0.0,0.0,0.0,0.0,0.0,0.0,0.0,0.0,-6.1593,-6.5377,-6.755,-6.6786,-6.6625,-6.6083,-6.4914,-6.2676,-6.0579,-5.8726,-5.4027,0.0,0.0,0.0,0.0,0.0,0.0,0.0,0.0,0.0,0.0,0.0,0.0,0.0,0.0,0.0,0.0,0.0,0.0,0.0,0.0,0.0,0.0,0.0,0.0,0.0,0.0,0.0,0.0,0.0,0.0,0.0,0.0,0.0,0.0,0.0,0.0,0.0,0.0,0.0,0.0,0.0,0.0,0.0,0.0,0.0,0.0,0.0,0.0,0.0,0.0,0.0,0.0,0.0,0.0,0.0,0.0,0.0,0.0,0.0,-4.7506,-4.3657,0.0,0.0,0.0,0.0,0.0,0.0,0.0,0.0,0.0,0.0,0.0,0.0,0.0,0.0,0.0,0.0,0.0,0.0,0.0,0.0,0.0,0.0,0.0,0.0,0.0,0.0,0.0,0.0,0.0,0.0,0.0,0.0,0.0,0.0,0.0,0.0,0.0,0.0,0.0,0.0,-5.9,-6.2963,-6.5348,-6.4838,-6.4648,-6.4188,-6.3143,-6.0955,-5.8783,-5.6792,-5.0763,0.0,0.0,0.0,0.0,0.0,0.0,0.0,0.0,0.0,0.0,0.0,0.0,0.0,0.0,0.0,0.0,0.0,0.0,0.0,0.0,0.0,0.0,0.0,0.0,0.0,0.0,0.0,0.0,0.0,0.0,0.0,0.0,0.0,0.0,0.0,0.0,0.0,0.0,0.0,0.0,0.0,0.0,0.0,0.0,0.0,0.0,0.0,0.0,0.0,0.0,0.0,0.0,0.0,0.0,0.0,0.0,0.0,0.0,0.0,0.0,0.0,0.0,0.0,0.0,0.0,0.0,0.0,0.0,0.0,0.0,0.0,0.0,0.0,0.0,0.0,0.0,0.0,0.0,0.0,0.0,0.0,0.0,0.0,0.0,0.0,0.0,0.0,0.0,0.0,0.0,0.0,0.0,0.0,0.0,0.0,0.0,0.0,0.0,0.0,0.0,0.0,-5.7708,-6.2621,-6.562,-6.4977,-6.4895,-6.3568,-6.0355,-5.9701,-5.6921,-5.0929,0.0,0.0,0.0,0.0,0.0,0.0,0.0,0.0,0.0,0.0,0.0,0.0,0.0,0.0,0.0,0.0,0.0,0.0,0.0,0.0,0.0,0.0,0.0,0.0,0.0,0.0,0.0,0.0,0.0,0.0,0.0,0.0,0.0,0.0,0.0,0.0,0.0,0.0,0.0,0.0,0.0,0.0,0.0,0.0,0.0,0.0,0.0,0.0,0.0,0.0,0.0,0.0,0.0,0.0,0.0,0.0,0.0,0.0,0.0,0.0,0.0,0.0,0.0,0.0,0.0,0.0,0.0,0.0,0.0,0.0,0.0,0.0,0.0,0.0,0.0,0.0,0.0,0.0,0.0,0.0,0.0,0.0,0.0,0.0,0.0,0.0,0.0,0.0,0.0,0.0,0.0,0.0,0.0,0.0,0.0,0.0,0.0,0.0,0.0,0.0,0.0,0.0,-5.4993,-5.8928,-6.1404,-6.0875,-6.0192,-5.9454,-5.8559,-5.6779,-5.3727,-4.9015,0.0,0.0,0.0,0.0,0.0,0.0,0.0,0.0,0.0,0.0,0.0,0.0,0.0,0.0,0.0,0.0,0.0,0.0,0.0,0.0,0.0,0.0,0.0,0.0,0.0,0.0,0.0,0.0,0.0,0.0,0.0,0.0,0.0,0.0,0.0,0.0,0.0,0.0,0.0,0.0,0.0,0.0,0.0,0.0,0.0,0.0,0.0,0.0,0.0,0.0,0.0,0.0,0.0,0.0,0.0,0.0,0.0,0.0,0.0,0.0,0.0,0.0,0.0,0.0,0.0,0.0,0.0,0.0,0.0,0.0,0.0,0.0,0.0,0.0,0.0,0.0,0.0,0.0,0.0,0.0,0.0,0.0,0.0,0.0,0.0,0.0,0.0,0.0,0.0,0.0,0.0,0.0,0.0,0.0,0.0,0.0,0.0,0.0,0.0,0.0,0.0,0.0,-5.2737,-5.672,-5.9214,-5.8533,-5.7611,-5.7141,-5.7332,-5.4431,-5.09,-4.699,0.0,0.0,0.0,0.0,0.0,0.0,0.0,0.0,0.0,0.0,0.0,0.0,0.0,0.0,0.0,0.0,0.0,0.0,0.0,0.0,0.0,0.0,0.0,0.0,0.0,0.0,0.0,0.0,0.0,0.0,0.0,0.0,0.0,0.0,0.0,0.0,0.0,0.0,0.0,0.0,0.0,0.0,0.0,0.0,0.0,0.0,0.0,0.0,0.0,0.0,0.0,0.0,0.0,0.0,0.0,0.0,0.0,0.0,0.0,0.0,0.0,0.0,0.0,0.0,0.0,0.0,0.0,0.0,0.0,0.0,0.0,0.0,0.0,0.0,0.0,0.0,0.0,0.0,0.0,0.0,0.0,0.0,0.0,0.0,0.0,0.0,0.0,0.0,0.0,0.0,0.0,0.0,0.0,0.0,0.0,0.0,0.0,0.0,0.0,0.0,0.0,0.0,-5.1519,-5.7288,-6.0703,-5.9386,-5.8935,-5.8052,-5.6522,-5.304,-4.89,0.0,0.0,0.0,0.0,0.0,0.0,0.0,0.0,0.0,0.0,0.0,0.0,0.0,0.0,0.0,0.0,0.0,0.0,0.0,0.0,0.0,0.0,0.0,0.0,0.0,0.0,0.0,0.0,0.0,0.0,0.0,0.0,0.0,0.0,0.0,0.0,0.0,0.0,0.0,0.0,0.0,0.0,0.0,0.0,0.0,0.0,0.0,0.0,0.0,0.0,0.0,0.0,0.0,0.0,0.0,0.0,0.0,0.0,0.0,0.0,0.0,0.0,0.0,0.0,0.0,0.0,0.0,0.0,0.0,0.0,0.0,0.0,0.0,0.0,0.0,0.0,0.0,0.0,0.0,0.0,0.0,0.0,0.0,0.0,0.0,0.0,0.0,0.0,0.0,0.0,0.0,0.0,0.0,0.0,0.0,0.0,0.0,0.0,0.0,0.0,0.0,0.0,0.0,-4.9801,-5.4995,-5.8287,-5.7507,-5.6545,-5.5682,-5.5116,-5.2697,-4.8815,-4.3312,0.0,0.0,0.0,0.0,0.0,0.0,0.0,0.0,0.0,0.0,0.0,0.0,0.0,0.0,0.0,0.0,0.0,0.0,0.0,0.0,0.0,0.0,0.0,0.0,0.0,0.0,0.0,0.0,0.0,0.0,0.0,0.0,0.0,0.0,0.0,0.0,0.0,0.0,0.0,0.0,0.0,0.0,0.0,0.0,0.0,0.0,0.0,0.0,0.0,0.0,0.0,0.0,0.0,0.0,0.0,0.0,0.0,0.0,0.0,0.0,0.0,0.0,0.0,0.0,0.0,0.0,0.0,0.0,0.0,0.0,0.0,0.0,0.0,0.0,0.0,0.0,0.0,0.0,0.0,0.0,0.0,0.0,0.0,0.0,0.0,0.0,0.0,0.0,0.0,0.0,0.0,0.0,0.0,0.0,0.0,0.0,0.0,0.0,0.0,0.0,0.0,0.0,0.0,-5.316,-5.632,-5.6085,-5.5121,-5.459,-5.4656,-5.1687,-4.7804,-4.2949,0.0,0.0,0.0,0.0,0.0,0.0,0.0,0.0,0.0,0.0,0.0,0.0,0.0,0.0,0.0,0.0,0.0,0.0,0.0,0.0,0.0,0.0,0.0,0.0,0.0,0.0,0.0,0.0,0.0,0.0,0.0,0.0,0.0,0.0,0.0,0.0,0.0,0.0,0.0,0.0,0.0,0.0,0.0,0.0,0.0,0.0,0.0,0.0,0.0,0.0,0.0,0.0,0.0,0.0,0.0,0.0,0.0,0.0,0.0,0.0,0.0,0.0,0.0,0.0,0.0,0.0,0.0,0.0,0.0,0.0,0.0,0.0,0.0,0.0,0.0,0.0,0.0,0.0,0.0,0.0,0.0,0.0,0.0,0.0,0.0,0.0,0.0,0.0,0.0,0.0,0.0,0.0,0.0,0.0,0.0,0.0,0.0,0.0,0.0,0.0,0.0,0.0,0.0,-5.1824,-5.4815,-5.5145,-5.4755,-5.4524,-5.4684,-5.0358,-4.6219,-4.2822,-3.8179,0.0,0.0,0.0,0.0,0.0,0.0,0.0,0.0,0.0,0.0,0.0,0.0,0.0,0.0,0.0,0.0,0.0,0.0,0.0,0.0,0.0,0.0,0.0,0.0,0.0,0.0,0.0,0.0,0.0,0.0,0.0,0.0,0.0,0.0,0.0,0.0,0.0,0.0,0.0,0.0,0.0,0.0,0.0,0.0,0.0,0.0,0.0,0.0,0.0,0.0,0.0,0.0,0.0,0.0,0.0,0.0,0.0,0.0,0.0,0.0,0.0,0.0,0.0,0.0,0.0,0.0,0.0,0.0,0.0,0.0,0.0,0.0,0.0,0.0,0.0,0.0,0.0,0.0,0.0,0.0,0.0,0.0,0.0,0.0,0.0,0.0,0.0,0.0,0.0,0.0,0.0,0.0,0.0,0.0,0.0,0.0,0.0,0.0,0.0,0.0,0.0,0.0,-5.1644,-5.4114,-5.5108,-5.4918,-5.3919,-5.1901,-5.0464,-4.726,-4.1633,-3.9844,0.0,0.0,0.0,0.0,0.0,0.0,0.0,0.0,0.0,0.0,0.0,0.0,0.0,0.0,0.0,0.0,0.0,0.0,0.0,0.0,0.0,0.0,0.0,0.0,0.0,0.0,0.0,0.0,0.0,0.0,0.0,0.0,0.0,0.0,0.0,0.0,0.0,0.0,0.0,0.0,0.0,0.0,0.0,0.0,0.0,0.0,0.0,0.0,0.0,0.0,0.0,0.0,0.0,0.0,0.0,0.0,0.0,0.0,0.0,0.0,0.0,0.0,0.0,0.0,0.0,0.0,0.0,0.0,0.0,0.0,0.0,0.0,0.0,0.0,0.0,0.0,0.0,0.0,0.0,0.0,0.0,0.0,0.0,0.0,0.0,0.0,0.0,0.0,0.0,0.0,0.0,0.0,0.0,0.0,0.0,0.0,0.0,0.0,0.0,0.0,0.0,0.0,-4.7578,-5.0823,-5.3738,-5.2712,-5.1509,-5.0789,-4.9309,-4.6327,-4.1506,-3.9571,0.0,0.0,0.0,0.0,0.0,0.0,0.0,0.0,0.0,0.0,0.0,0.0,0.0,0.0,0.0,0.0,0.0,0.0,0.0,0.0,0.0,0.0,0.0,0.0,0.0,0.0,0.0,0.0,0.0,0.0,0.0,0.0,0.0,0.0,0.0,0.0,0.0,0.0,0.0,0.0,0.0,0.0,0.0,0.0,0.0,0.0,0.0,0.0,0.0,0.0,0.0,0.0,0.0,0.0,0.0,0.0,0.0,0.0,0.0,0.0,0.0,0.0,0.0,0.0,0.0,0.0,0.0,0.0,0.0,0.0,0.0,0.0,0.0,0.0,0.0,0.0,0.0,0.0,0.0,0.0,0.0,0.0,0.0,0.0,0.0,0.0,0.0,0.0,0.0,0.0,0.0,0.0,0.0,0.0,0.0,0.0,0.0,0.0,0.0,0.0,0.0,0.0,0.0,-4.6579,-5.1016,-4.9505,-4.8737,-5.0039,-4.7685,-4.4616,-4.1125,0.0,0.0,0.0,0.0,0.0,0.0,0.0,0.0,0.0,0.0,0.0,0.0,0.0,0.0,0.0,0.0,0.0,0.0,0.0,0.0,0.0,0.0,0.0,0.0,0.0,0.0,0.0,0.0,0.0,0.0,0.0,0.0,0.0,0.0,0.0,0.0,0.0,0.0,0.0,0.0,0.0,0.0,0.0,0.0,0.0,0.0,0.0,0.0,0.0,0.0,0.0,0.0,0.0,0.0,0.0,0.0,0.0,0.0,0.0,0.0,0.0,0.0,0.0,0.0,0.0,0.0,0.0,0.0,0.0,0.0,0.0,0.0,0.0,0.0,0.0,0.0,0.0,0.0,0.0,0.0,0.0,0.0,0.0,0.0,0.0,0.0,0.0,0.0,0.0,0.0,0.0,0.0,0.0,0.0,0.0,0.0,0.0,0.0,0.0,0.0,0.0,0.0,0.0,0.0,-4.3873,-4.5733,-4.728,-4.7986,-4.7509,-4.6817,-4.3963,-3.8178,0.0,0.0,0.0,0.0,0.0,0.0,0.0,0.0,0.0,0.0,0.0,0.0,0.0,0.0]}],[{"header":{"parameterUnit":"kt","parameterCategory":2,"dx":1,"dy":1,"la1":29.285339999999998,"la2":30.599998999999997,"lo1":-89.70041500000002,"lo2":-87.6738589999976,"nx":112,"ny":82,"refTime":"2022-10-23T00:00:00:Z","depth":0,"parameterNumber":2,"parameterNumberName":"V-component_of_WINDS"},"data":[5.0081,5.0244,0.0,4.7406,4.6659,0.0,4.4513,0.0,4.3919,0.0,0.0,0.0,0.0,0.0,0.0,0.0,0.0,0.0,0.0,0.0,0.0,0.0,0.0,0.0,0.0,0.0,0.0,0.0,0.0,0.0,0.0,0.0,5.0083,5.4075,5.616,5.7862,5.9285,5.9087,5.9263,5.9723,5.8999,5.8999,5.9438,5.8911,5.8999,5.9526,6.0031,6.0466,6.094,6.1567,6.1996,6.2191,6.2081,6.2423,6.2981,6.2981,6.3693,6.4838,6.5145,6.5639,6.5942,6.5614,6.5967,6.6564,6.6944,6.7589,6.8334,6.8889,6.9047,6.9126,6.9336,6.9205,6.9126,6.9336,6.9936,7.0507,7.0893,7.1528,7.2436,7.3331,7.4214,7.5013,7.5558,7.6154,7.6564,7.6564,7.6564,7.6635,7.6746,7.7025,7.6743,7.5689,7.7185,7.7905,7.691,7.813,7.8906,7.8906,7.9336,7.9571,7.9637,7.993,8.0192,8.052,8.052,8.0649,8.0841,8.1,8.1222,8.1444,8.1696,8.1822,0.0,0.0,4.7227,4.5286,0.0,0.0,0.0,0.0,0.0,0.0,0.0,0.0,0.0,0.0,0.0,0.0,0.0,0.0,0.0,0.0,0.0,0.0,0.0,0.0,0.0,0.0,0.0,0.0,0.0,0.0,0.0,4.8029,5.1401,5.5091,5.6654,5.7848,5.8735,5.8735,5.8911,5.9175,5.8823,5.8911,5.9175,5.8823,5.8911,5.9263,5.9943,6.0379,6.0704,6.1372,6.1739,6.1996,6.1739,6.2081,6.2702,6.2896,6.3464,6.4196,6.4979,6.5392,6.545,6.5392,6.5746,6.6401,6.6782,6.7534,6.8281,6.8573,6.8731,6.8889,6.9126,6.9047,6.8889,6.9283,6.978,7.0301,7.0688,7.125,7.2011,7.2736,7.3627,7.4433,7.5128,7.5658,7.6042,7.6183,7.6154,7.6324,7.6564,7.6816,7.6535,7.5384,7.698,7.7664,7.6574,7.7862,7.8705,7.8705,7.9107,7.9306,7.9306,7.9535,7.9799,8.0161,8.0261,8.0391,8.0649,8.0777,8.1,8.1222,8.1222,8.1317,0.0,0.0,0.0,4.2739,0.0,0.0,0.0,0.0,3.8396,0.0,0.0,0.0,0.0,0.0,0.0,0.0,0.0,0.0,0.0,0.0,0.0,0.0,0.0,0.0,0.0,0.0,0.0,0.0,0.0,0.0,4.5537,4.9345,5.2628,5.5223,5.7557,5.8735,5.8735,5.8735,5.8735,5.8735,5.8735,5.8735,5.8735,5.8735,5.8735,5.8735,5.9856,6.0228,6.0315,6.1223,6.163,6.163,6.163,6.1825,6.2276,6.2787,6.3211,6.3669,6.4589,6.5145,6.5392,6.5087,6.55,6.6319,6.6701,6.7534,6.8201,6.8201,6.8493,6.881,6.881,6.881,6.8889,6.9283,6.978,7.0274,7.0688,7.1073,7.1582,7.2361,7.2811,7.3479,7.4579,7.4796,7.494,7.5315,7.5386,7.57,7.6465,7.6564,7.6535,7.6576,7.7233,7.7745,7.7686,7.83,7.8705,7.8705,7.9107,7.9306,7.9306,7.9306,7.9469,7.986,8.0096,8.0261,8.0261,8.0649,8.0841,8.0841,8.0841,8.1064,4.1818,0.0,0.0,0.0,0.0,0.0,0.0,0.0,0.0,0.0,0.0,0.0,0.0,0.0,0.0,0.0,0.0,0.0,0.0,0.0,0.0,0.0,0.0,0.0,0.0,0.0,0.0,0.0,0.0,4.4606,4.8978,5.1846,5.4656,5.7691,5.8357,5.8735,5.8735,5.8735,5.8911,5.9263,5.8911,5.8911,5.9263,5.8911,5.8735,5.8735,5.9856,6.0228,6.0315,6.1223,6.163,6.163,6.163,6.1825,6.2276,6.2787,6.3211,6.3669,6.428,6.4613,6.4697,6.4838,6.5335,6.5803,6.6319,6.7051,6.7801,6.7801,6.7881,6.8041,6.8255,6.8414,6.8493,6.8889,6.9283,6.978,7.0196,7.0611,7.1123,7.1908,7.2857,7.3599,7.3967,7.3746,7.3774,7.4478,7.5028,7.5458,7.57,7.6254,7.6257,7.5268,7.644,7.7058,7.6359,7.7389,7.8194,7.8705,7.8839,7.8906,7.8906,7.8906,7.904,7.9469,7.9799,8.0096,8.0261,8.0649,8.0841,8.0841,8.0841,8.0905,0.0,0.0,0.0,0.0,0.0,0.0,3.7542,0.0,3.7711,0.0,0.0,0.0,0.0,0.0,0.0,0.0,0.0,0.0,0.0,0.0,0.0,0.0,0.0,0.0,0.0,0.0,0.0,0.0,4.5026,4.7462,5.1749,5.3864,5.6051,5.8602,5.8735,5.8735,5.8735,5.8735,5.8823,5.9175,5.8823,5.8823,5.9175,5.9087,5.8911,5.8735,6.0008,6.0379,6.0315,6.1223,6.163,6.163,6.163,6.1996,6.2532,6.2617,6.3042,6.3585,6.3945,6.4196,6.4388,6.4613,6.5062,6.5639,6.6294,6.7051,6.756,6.7373,6.748,6.7721,6.7881,6.8121,6.8334,6.8731,6.9126,6.9597,7.0274,7.0456,7.0816,7.1756,7.2333,7.2708,7.2932,7.2885,7.3034,7.3701,7.4186,7.4695,7.5315,7.5771,7.5935,7.546,7.6488,7.6979,7.6421,7.7234,7.7951,7.8533,7.8533,7.86,7.8705,7.8705,7.8839,7.904,7.9632,7.9961,8.0127,8.0584,8.0841,8.0841,8.0841,8.0841,0.0,0.0,0.0,0.0,3.8103,0.0,0.0,0.0,3.7294,3.6385,0.0,0.0,0.0,0.0,0.0,0.0,0.0,0.0,0.0,0.0,0.0,0.0,0.0,0.0,0.0,4.1973,4.3742,4.6778,4.7434,4.9602,5.3867,5.54,5.6905,5.8536,5.8647,5.8735,5.8735,5.8735,5.8735,5.8735,5.8735,5.8735,5.8735,5.9263,5.9263,5.8823,6.0224,6.0617,6.0379,6.1309,6.163,6.163,6.163,6.2081,6.2787,6.2361,6.2678,6.3416,6.3525,6.3861,6.4304,6.4304,6.4838,6.5696,6.6457,6.7131,6.748,6.7025,6.7212,6.756,6.756,6.7881,6.8255,6.8652,6.9126,6.9597,7.0429,7.0429,7.0507,7.1604,7.1631,7.1582,7.1832,7.221,7.2586,7.2885,7.3062,7.3627,7.4984,7.5243,7.5629,7.6395,7.6816,7.7065,7.7134,7.744,7.7814,7.8224,7.8224,7.833,7.8638,7.8705,7.8705,7.8705,7.9499,7.9925,7.9925,8.055,8.0841,8.0841,8.0841,8.0841,0.0,0.0,0.0,0.0,0.0,3.7021,0.0,0.0,0.0,0.0,0.0,0.0,0.0,0.0,0.0,0.0,0.0,0.0,0.0,0.0,0.0,0.0,0.0,0.0,0.0,4.6434,4.7547,5.0014,5.1273,5.2656,5.4442,5.6178,5.7429,5.8249,5.858,5.8735,5.8735,5.8735,5.8735,5.8735,5.8735,5.8735,5.8735,5.9263,5.9438,5.935,6.0398,6.0767,6.079,6.1372,6.1825,6.2105,6.1739,6.1739,6.191,6.2105,6.2361,6.2593,6.3356,6.3585,6.3777,6.4196,6.4838,6.5557,6.5696,6.6376,6.7025,6.6863,6.6944,6.7025,6.7025,6.7615,6.8281,6.8334,6.8889,6.9414,6.9597,7.017,7.0688,7.097,7.1707,7.2086,7.1582,7.1756,7.2059,7.2135,7.2661,7.3183,7.3479,7.436,7.5157,7.5629,7.6013,7.6506,7.7134,7.6955,7.7123,7.7814,7.7608,7.7716,7.8398,7.8398,7.8533,7.8705,7.9499,7.9925,7.9925,8.055,8.0841,8.0841,8.0841,8.0841,0.0,0.0,0.0,3.5714,0.0,0.0,0.0,3.684,3.7665,3.7214,3.7552,3.7865,3.7844,3.7925,3.7752,3.6856,3.7914,3.9302,4.0464,0.0,0.0,0.0,0.0,0.0,4.8587,4.8858,4.963,5.1326,5.2915,5.4334,5.5533,5.6451,5.7158,5.7715,5.796,5.8027,5.8027,5.8027,5.8138,5.8426,5.8426,5.8492,5.8735,5.9548,5.9723,5.9526,6.0767,6.1113,6.0854,6.1372,6.1825,6.2167,6.1739,6.1739,6.191,6.191,6.2167,6.2617,6.3126,6.3525,6.4029,6.4304,6.4838,6.5532,6.5532,6.6131,6.6863,6.6863,6.6863,6.6863,6.6863,6.7534,6.8201,6.8201,6.881,6.944,6.9702,6.9936,7.017,7.0661,7.1555,7.1983,7.143,7.1631,7.188,7.188,7.2285,7.2661,7.3062,7.3746,7.455,7.5315,7.5771,7.6225,7.6816,7.6676,7.6914,7.7677,7.7608,7.7784,7.8533,7.8533,7.8272,7.7749,7.8343,7.8699,7.8925,7.9349,7.9911,8.0584,8.0777,8.0841,0.0,0.0,0.0,0.0,0.0,0.0,3.5744,3.659,3.7459,0.0,3.7823,3.8633,3.8612,3.9404,3.9786,3.8928,4.0236,4.2045,4.3838,4.4042,4.4913,0.0,0.0,0.0,4.9553,5.0233,5.0931,5.1829,5.3451,5.5003,5.6397,5.653,5.68,5.7226,5.7315,5.7315,5.7315,5.7315,5.7604,5.8093,5.8093,5.8337,5.8735,5.9769,6.0008,5.9526,6.0917,6.1199,6.0854,6.1286,6.1739,6.2105,6.1739,6.1825,6.2081,6.1739,6.2081,6.2702,6.2872,6.3464,6.4137,6.4304,6.4838,6.5392,6.545,6.6131,6.6782,6.6863,6.6863,6.6863,6.6863,6.7534,6.8121,6.8201,6.881,6.944,6.9963,6.9858,6.9858,7.0507,7.1173,7.1555,7.1353,7.1555,7.1832,7.188,7.188,7.2135,7.2736,7.3229,7.3865,7.5028,7.5558,7.6042,7.6564,7.6564,7.6845,7.747,7.7539,7.7814,7.8533,7.8294,7.7705,7.6762,7.6819,7.7172,7.786,7.7508,7.8246,7.983,8.0428,8.0744,0.0,0.0,0.0,0.0,0.0,0.0,3.7865,3.8041,3.8265,0.0,4.0205,4.062,4.0974,4.1424,4.1587,4.1267,4.2059,4.3409,4.5198,4.6394,4.7234,4.7613,4.8589,0.0,4.9544,5.0774,5.1773,5.2351,5.3692,5.4866,5.5968,5.635,5.662,5.662,5.7136,5.7315,5.7315,5.7315,5.7604,5.8093,5.8093,5.8337,5.8735,5.9769,6.0008,5.9526,6.0484,6.094,6.0854,6.094,6.1199,6.163,6.163,6.163,6.163,6.163,6.163,6.191,6.2702,6.3042,6.3295,6.4053,6.4613,6.5062,6.5392,6.5885,6.6401,6.6782,6.6863,6.6863,6.6863,6.7293,6.7801,6.8121,6.8573,6.8968,6.9362,7.0092,7.0507,7.0301,7.0274,7.0584,7.1227,7.138,7.1479,7.1908,7.188,7.1956,7.2059,7.2408,7.3109,7.4259,7.4724,7.5372,7.6465,7.6564,7.6635,7.6705,7.6705,7.7054,7.7814,7.6759,7.6346,7.6762,7.5661,7.5918,7.7383,7.5157,7.5433,7.8231,7.9414,8.0127,0.0,0.0,0.0,0.0,0.0,0.0,3.6986,3.8085,3.9281,0.0,4.1648,4.2444,4.2692,4.3665,4.4175,4.3349,4.4502,4.5833,4.6629,4.7176,4.7845,4.8634,4.972,5.0674,5.1554,5.239,5.2754,5.2535,5.3655,5.4469,5.4398,5.5602,5.608,5.583,5.626,5.6509,5.6509,5.6509,5.68,5.7269,5.7515,5.7871,5.8426,5.9395,5.9723,5.9526,6.0182,6.0617,6.0854,6.0617,6.0964,6.163,6.163,6.163,6.163,6.163,6.1715,6.1996,6.2361,6.2872,6.3356,6.3777,6.4339,6.5004,6.5392,6.5639,6.5967,6.6401,6.6564,6.6564,6.6782,6.7212,6.7721,6.8121,6.8493,6.8968,6.9336,6.9675,6.9936,6.978,7.0119,7.0533,7.0611,7.1073,7.1353,7.1555,7.1756,7.188,7.188,7.2285,7.2811,7.3479,7.436,7.5013,7.5544,7.6183,7.6564,7.6564,7.6816,7.6881,7.6835,7.6302,7.5558,7.449,7.3986,7.4049,7.4777,7.3667,7.3913,7.5433,7.7709,7.8906,3.1505,0.0,0.0,0.0,0.0,0.0,0.0,0.0,4.0236,4.1582,4.291,4.3982,4.4347,4.5443,4.6064,4.511,4.6368,4.7457,4.7457,4.7666,4.8227,4.9223,5.0207,5.1333,5.2562,5.2993,5.3191,0.0,5.3799,5.4064,5.3762,5.4887,5.5446,5.5195,5.5718,5.5989,5.5989,5.5989,5.617,5.653,5.7047,5.7604,5.8204,5.9109,5.9438,5.9263,5.9833,6.0182,6.042,6.0292,6.0727,6.1458,6.1544,6.163,6.163,6.163,6.191,6.2191,6.2361,6.2933,6.3585,6.3777,6.4172,6.4838,6.5227,6.545,6.5639,6.6156,6.6401,6.6564,6.6782,6.7131,6.756,6.8095,6.8414,6.881,6.9283,6.9414,6.9414,6.9597,7.0014,7.0352,7.0378,7.0688,7.1073,7.115,7.1479,7.1756,7.1756,7.2135,7.2511,7.3062,7.4068,7.4796,7.5013,7.5971,7.6564,7.6564,7.6885,7.6686,7.5969,7.5687,7.4637,7.2814,7.2458,7.234,7.234,7.234,7.2673,7.3371,7.5517,7.6921,0.0,0.0,0.0,0.0,0.0,0.0,3.9758,0.0,4.0999,4.3016,4.4081,4.4954,4.5829,4.635,4.6644,4.6607,4.7041,4.7457,4.7457,4.8178,4.8783,4.8821,5.001,5.0978,5.1505,5.1991,5.29,5.4291,5.3965,5.4078,5.5062,5.4697,5.4697,5.5195,5.5718,5.5989,5.5989,5.5989,5.617,5.653,5.7047,5.7604,5.8204,5.9109,5.9175,5.8735,5.9263,5.9526,5.9526,6.0031,6.0466,6.094,6.1458,6.163,6.163,6.163,6.191,6.2276,6.2811,6.3211,6.3693,6.4112,6.4388,6.4447,6.4838,6.5227,6.5639,6.6156,6.6564,6.6863,6.6863,6.6863,6.7106,6.8015,6.8201,6.8493,6.9205,6.9414,6.9519,7.0041,6.978,6.9675,7.0584,7.0456,7.0301,7.0688,7.115,7.138,7.138,7.1707,7.221,7.3034,7.3848,7.455,7.5315,7.6183,7.6564,7.6564,7.6635,7.6163,7.5259,7.4236,7.3331,7.2349,7.1439,7.0994,7.0994,7.0994,7.1652,7.2909,7.303,7.3937,3.1029,0.0,0.0,0.0,0.0,3.8547,3.9439,4.0965,4.2552,4.4028,4.4697,4.5306,4.5935,4.6751,4.7429,4.7729,4.7916,4.8196,4.8495,4.8832,4.9208,4.9508,5.0281,5.0923,5.1411,5.1991,5.2198,5.2107,5.3089,0.0,5.2944,5.382,5.4697,5.5195,5.5376,5.5649,5.5989,5.5989,5.608,5.617,5.662,5.7068,5.7626,5.8249,5.858,5.8735,5.8911,5.9175,5.9526,6.0031,6.0292,6.0466,6.0964,6.1113,6.1199,6.1739,6.2081,6.2276,6.2787,6.3211,6.3585,6.3777,6.4029,6.4447,6.4838,6.4838,6.4838,6.5557,6.5639,6.5746,6.6319,6.6482,6.6549,6.6637,6.7499,6.8127,6.7921,6.8653,6.944,6.9597,6.9519,6.9519,6.9832,7.0041,7.0223,7.0378,7.092,7.1227,7.0997,7.1555,7.1908,7.1962,7.2811,7.3673,7.4231,7.5171,7.5942,7.6154,7.5652,7.4881,7.4,7.2776,7.1776,7.1042,7.0748,7.0571,7.0571,7.0571,7.0961,7.1592,7.1592,7.2372,0.0,0.0,0.0,3.5642,3.7685,3.96,3.987,4.1731,4.3604,4.4454,4.5343,4.612,4.6566,4.701,4.7489,4.8081,4.8272,4.8559,4.9053,4.9053,4.9148,4.9831,5.0095,5.0359,5.0923,5.1411,5.1642,5.1398,5.2467,5.2935,5.2421,5.3384,5.424,5.49,5.49,5.5264,5.5989,5.5989,5.5989,5.5989,5.635,5.671,5.7047,5.7804,5.8271,5.8492,5.8647,5.8911,5.9263,5.9746,6.0008,6.0008,6.0594,6.0854,6.0894,6.1317,6.186,6.2484,6.2443,6.3043,6.3861,6.3861,6.4029,6.4388,6.4613,6.4613,6.4697,6.531,6.531,6.531,6.6238,6.6401,6.6306,6.6239,6.7181,6.7811,6.7037,6.8078,6.9205,6.9336,6.9414,6.9414,6.9414,6.9675,6.9885,6.9885,7.0159,7.0359,7.053,7.0871,7.1142,7.1326,7.2388,7.3183,7.3452,7.4667,7.5558,7.5771,7.5049,7.4211,7.3128,7.1936,7.0938,7.002,7.0143,7.0205,7.0205,7.0205,7.0388,7.0722,7.0722,7.1231,0.0,3.4141,0.0,3.743,3.9204,4.0645,0.0,0.0,4.4152,4.4506,4.5802,4.7044,4.7507,4.714,4.7062,4.7507,4.7986,4.8559,4.9053,4.8672,4.8768,4.9831,4.9433,4.9414,4.9849,5.0434,5.1091,5.2118,5.2158,5.2549,5.3434,5.3178,5.3434,5.4332,5.4403,5.488,5.5899,5.5989,5.5989,5.5989,5.635,5.653,5.662,5.7626,5.8093,5.8093,5.858,5.8735,5.8735,5.9263,5.9438,5.9526,6.042,6.0767,6.0738,6.0361,6.1425,6.2837,6.1917,6.2788,6.4388,6.4388,6.4388,6.4388,6.4388,6.4613,6.5004,6.5392,6.545,6.5696,6.662,6.6564,6.6401,6.6782,6.7161,6.7361,6.6646,6.7739,6.8889,6.9336,6.9336,6.9336,6.9414,6.9414,6.9414,6.9414,6.88,6.8788,6.9906,6.979,6.9972,7.1087,7.2285,7.296,7.3136,7.4478,7.5315,7.5386,7.4853,7.3988,7.2767,7.1719,7.0626,6.94,6.9711,6.9926,6.9926,6.9926,7.0111,7.0327,7.0359,7.0571,0.0,0.0,3.6516,3.8377,4.0371,4.1856,0.0,0.0,4.4066,4.4656,4.5396,4.6061,4.6544,4.6924,4.7136,4.7133,4.7333,4.7507,4.7986,4.789,4.8177,4.9243,4.9243,4.9433,4.9906,5.0076,5.0227,5.0509,5.0923,5.1204,5.1485,5.2118,5.2582,5.284,5.3853,5.4606,5.4788,5.5606,5.5989,5.5989,5.608,5.626,5.662,5.7247,5.7515,5.7604,5.8823,5.9087,5.8735,5.9263,5.9263,5.8999,6.0008,6.0379,6.0507,6.1799,6.2573,6.3018,6.3486,6.3893,6.4388,6.4388,6.4388,6.4388,6.4388,6.4447,6.4613,6.5004,6.5062,6.5227,6.6156,6.6401,6.6401,6.6782,6.6359,6.6166,6.7181,6.7914,6.8573,6.9283,6.9205,6.9047,6.9336,6.9414,6.9414,6.9414,6.88,6.8419,6.8276,6.8799,6.9246,6.9569,7.0633,7.1811,7.2987,7.3746,7.4522,7.5386,7.4014,7.3057,7.2737,7.0708,6.953,6.9371,6.9334,6.9334,6.9558,6.9558,6.9711,7.0082,7.0266,7.0449,3.1211,3.4191,3.7137,0.0,4.0906,4.231,4.2319,4.3157,4.4026,4.4442,4.4656,4.5096,4.5831,4.6263,4.6488,4.6633,4.6851,4.714,4.7603,4.7507,4.7698,4.8768,4.8863,4.8958,4.9243,4.9509,4.9679,4.9944,4.9963,5.0359,5.1017,5.1372,5.1839,5.2284,5.3025,5.369,5.4057,5.488,5.5446,5.5627,5.5899,5.608,5.635,5.7047,5.7315,5.7404,5.8404,5.8845,5.8735,5.8845,5.8845,5.8823,5.9856,6.0228,6.0334,6.1332,6.2128,6.2631,6.2719,6.3139,6.3801,6.3945,6.4029,6.4029,6.4304,6.4388,6.4447,6.4838,6.4838,6.4946,6.5992,6.6074,6.6049,6.6457,6.627,6.6232,6.7084,6.764,6.8121,6.8573,6.8731,6.8968,6.9336,6.9414,6.9414,6.9414,6.8196,6.74,6.7647,6.7857,6.82,6.866,6.9964,7.1123,7.2011,7.2708,7.3452,7.4085,7.2898,7.2173,7.2173,7.013,6.9049,6.9242,6.9112,6.9049,6.9242,6.9242,6.943,6.9711,6.9897,7.0114,0.0,0.0,3.7473,0.0,4.0911,4.2282,0.0,0.0,4.4185,4.4193,4.4121,4.4254,4.5285,4.5425,4.5601,4.6193,4.6659,4.7044,4.7507,4.7237,4.7333,4.8177,4.8272,4.8368,4.8368,4.8768,4.9224,4.966,4.9319,4.9717,5.113,5.0735,5.0904,5.1839,5.2025,5.2489,5.325,5.4057,5.4697,5.5104,5.5718,5.5989,5.5989,5.6957,5.7404,5.7404,5.7893,5.8337,5.858,5.8271,5.8337,5.8823,5.9856,6.0228,6.0288,6.0308,6.1135,6.2049,6.1273,6.1809,6.3042,6.344,6.3585,6.3669,6.4196,6.4388,6.4447,6.4755,6.4613,6.4697,6.5853,6.5885,6.5721,6.6156,6.6564,6.6782,6.6782,6.7212,6.764,6.756,6.8201,6.881,6.9126,6.9283,6.9336,6.9414,6.7518,6.6438,6.7281,6.6892,6.6925,6.783,6.9414,7.0343,7.0497,7.1674,7.2361,7.2511,7.1847,7.1428,7.1497,6.9871,6.9015,6.9015,6.8952,6.8952,6.9015,6.9015,6.9112,6.9309,6.9371,6.9682,0.0,3.2534,3.5956,3.8467,4.0603,0.0,4.2494,4.3326,4.4149,4.4412,4.4286,4.4254,4.4088,4.4602,4.5233,4.6087,4.6369,4.6562,4.7044,4.7044,4.7237,4.768,4.7794,4.7986,4.8368,4.8081,4.8081,4.8654,4.8559,4.8863,4.9528,4.9528,4.9528,4.9717,5.0547,5.1091,5.1204,5.3394,5.4515,5.4606,5.5537,5.5989,5.5989,5.7358,5.7715,5.7404,5.7893,5.8182,5.8182,5.8093,5.8337,5.8823,5.9856,6.0228,6.0379,6.1466,6.2025,6.2252,6.2488,6.2729,6.3042,6.344,6.3585,6.3669,6.4196,6.4388,6.4388,6.4447,6.4613,6.4838,6.5087,6.5664,6.6156,6.6238,6.6319,6.6401,6.6401,6.7076,6.748,6.7051,6.7695,6.8281,6.7961,6.8493,6.9047,6.9336,6.8203,6.707,6.6306,6.6091,6.5918,6.5542,6.7126,6.8476,6.9235,7.0627,7.1805,7.2436,7.1606,7.1086,7.1212,6.977,6.9015,6.9015,6.8669,6.8669,6.9015,6.9015,6.9015,6.9049,6.9275,6.9433,3.0619,0.0,0.0,3.8338,0.0,4.2107,4.1887,4.2604,4.3717,4.5052,4.44,4.3863,4.4819,4.4603,4.4651,4.5772,4.6183,4.6575,4.7065,4.7517,4.766,4.7326,4.7849,4.8133,4.8022,4.7776,4.7872,4.8368,4.7986,4.8004,4.8768,4.8559,4.8482,4.8768,4.9509,5.0076,5.034,5.2025,5.3229,5.4057,5.4788,5.5516,5.626,5.6821,5.7158,5.7315,5.7604,5.7893,5.8115,5.7804,5.8138,5.8823,5.9548,5.9811,6.0008,6.09,6.1332,6.1567,6.1739,6.2081,6.2338,6.2763,6.3018,6.338,6.3777,6.4112,6.4388,6.4388,6.4447,6.4697,6.4838,6.5252,6.5664,6.5803,6.6074,6.6319,6.6564,6.697,6.7131,6.6944,6.7454,6.7881,6.764,6.8121,6.8652,6.9047,6.8284,6.7202,6.6069,6.5911,6.5537,6.4667,6.5875,6.6879,6.7329,6.8361,6.9159,6.9708,6.9259,6.9233,6.9837,6.8911,6.8257,6.79,6.8414,6.8732,6.8669,6.8888,6.9049,6.9179,6.9179,6.9367,3.1282,3.2769,3.5036,3.8159,3.9955,4.1158,4.1418,4.182,4.2743,4.4585,4.379,4.3281,4.488,4.4403,4.4221,4.5537,4.6158,4.671,4.7052,4.7881,4.8047,4.7278,4.8026,4.8347,4.7638,4.7566,4.7687,4.7986,4.7573,4.7609,4.8386,4.789,4.7794,4.8177,4.8749,4.9224,4.9679,5.0829,5.2064,5.3178,5.3874,5.4971,5.626,5.5989,5.635,5.7315,5.7315,5.7604,5.7915,5.7515,5.7849,5.8735,5.9263,5.9526,5.9526,6.0182,6.053,6.0767,6.094,6.1199,6.1567,6.2019,6.2532,6.3042,6.344,6.3945,6.4388,6.4388,6.4388,6.4447,6.4697,6.4838,6.5004,6.531,6.5547,6.5773,6.6407,6.6498,6.6503,6.665,6.7131,6.748,6.748,6.7801,6.8201,6.8493,6.8209,6.726,6.5529,6.5678,6.5384,6.3988,6.4857,6.5542,6.5542,6.6124,6.6727,6.7249,6.7069,6.7335,6.8255,6.7648,6.7194,6.7092,6.8158,6.8634,6.8542,6.8888,6.9083,6.9275,6.9112,6.93,3.1954,3.3154,3.495,3.7111,3.7518,3.8238,4.1498,4.1492,4.0948,4.1509,0.0,4.2123,4.2476,4.3357,4.4451,4.5521,4.6281,4.6789,4.6524,4.7579,4.8156,4.7449,4.7927,4.8025,4.746,4.7326,4.7224,4.6966,4.7589,4.8087,4.8405,4.789,4.768,4.768,4.8177,4.8463,4.8559,5.0566,5.1598,5.1691,5.3065,5.4261,5.5285,5.5285,5.608,5.7315,5.7315,5.7404,5.7404,5.7404,5.7849,5.8735,5.9263,5.9526,5.9613,6.0507,6.0617,6.0466,6.1309,6.1286,6.1027,6.191,6.2532,6.3042,6.344,6.3945,6.4388,6.4388,6.4388,6.4388,6.4388,6.4697,6.4921,6.5004,6.432,6.4038,6.5333,6.5271,6.519,6.6118,6.662,6.6944,6.6944,6.7373,6.7721,6.7721,6.8256,6.7426,6.3919,6.4834,6.4921,6.2453,6.36,6.4502,6.4502,6.5379,6.631,6.7175,6.6811,6.6765,6.7183,6.6161,6.6234,6.7714,6.7613,6.8029,6.8952,6.9015,6.9015,6.9078,6.9015,6.9015,3.1632,3.299,3.4646,3.6278,3.7276,3.8297,3.985,0.0,0.0,0.0,4.2085,4.2025,4.2217,4.334,4.4362,4.5298,4.6288,4.6936,4.6687,4.7916,4.8278,4.7044,4.8174,4.8661,4.7665,4.7815,4.7876,4.776,4.7601,4.7802,4.8283,4.7391,4.693,4.7219,4.7698,4.8081,4.8368,4.9812,5.0868,5.1505,5.2417,5.288,5.2993,5.3506,5.4423,5.5585,5.6127,5.6487,5.662,5.7136,5.7849,5.8735,5.8911,5.8999,5.9087,5.9438,5.9811,6.0315,6.064,6.105,6.1372,6.1739,6.2338,6.2957,6.3126,6.3717,6.4388,6.4388,6.4388,6.4388,6.4388,6.4447,6.4613,6.4838,6.4601,6.4543,6.5375,6.5616,6.5791,6.6244,6.6645,6.6863,6.6863,6.7025,6.7063,6.6662,6.6876,6.613,6.3463,6.4558,6.4673,6.2251,6.2739,6.3314,6.3314,6.3638,6.419,6.4949,6.4845,6.502,6.5628,6.5611,6.5834,6.6301,6.7223,6.7807,6.8094,6.8698,6.9112,6.9242,6.9112,6.9112,3.0828,3.2258,3.3939,3.5342,3.6685,0.0,0.0,3.9148,0.0,0.0,4.1504,4.1683,4.1813,4.2895,4.4156,4.5165,4.6112,4.6812,4.6919,4.7954,4.8355,4.7298,4.8276,4.8761,4.802,4.8088,4.8102,4.7853,4.754,4.7473,4.7839,4.6863,4.6466,4.7044,4.7411,4.789,4.8368,4.9433,5.0303,5.1056,5.1559,5.1652,5.1317,5.2118,5.3137,5.424,5.4768,5.5243,5.5808,5.644,5.7226,5.8094,5.8247,5.8401,5.8536,5.851,5.9037,5.9856,6.0292,6.079,6.1309,6.1544,6.2167,6.2702,6.2702,6.3295,6.3969,6.4029,6.4112,6.4137,6.4304,6.406,6.3948,6.4598,6.4509,6.4444,6.4988,6.5308,6.551,6.5999,6.6401,6.6701,6.6863,6.6863,6.669,6.6245,6.5659,6.4944,6.4065,6.4003,6.3473,6.2172,6.2345,6.2628,6.2628,6.2628,6.2856,6.3501,6.3571,6.3944,6.4684,6.516,6.5403,6.5431,6.6604,6.7325,6.7548,6.8286,6.8893,6.9275,6.9112,6.9112,2.9689,3.1023,3.2648,3.4208,0.0,0.0,3.8074,3.8178,3.7982,3.8262,3.9693,4.073,4.0466,4.2061,4.3766,4.5062,4.5781,4.6483,4.6994,4.7643,4.8184,4.8708,4.8123,4.7951,4.8726,4.8167,4.7434,4.6558,4.7227,4.747,4.7055,4.6562,4.6466,4.7044,4.7411,4.789,4.8368,4.9433,4.9944,4.9925,5.0453,5.0735,5.0716,5.1317,5.2344,5.3618,5.327,5.3915,5.5195,5.5195,5.5718,5.6624,5.71,5.7692,5.8072,5.8009,5.8256,5.8911,6.0334,6.0617,6.0379,6.1309,6.191,6.2191,6.2191,6.2532,6.3042,6.344,6.3585,6.3669,6.4196,6.3474,6.2913,6.4036,6.345,6.2937,6.4143,6.3837,6.3777,6.5251,6.5967,6.6401,6.6782,6.6863,6.6863,6.6863,6.4958,6.4122,6.5635,6.2992,6.1175,6.1918,6.2345,6.2628,6.2628,6.2628,6.2856,6.3501,6.3571,6.3944,6.4684,6.4711,6.5025,6.5711,6.5711,6.6444,6.7843,6.7843,6.8257,6.9015,6.9015,6.9015,2.9061,2.9903,3.0889,3.1856,0.0,0.0,3.6158,3.7213,3.7865,3.7939,3.8694,3.9182,3.8702,0.0,4.3146,4.3289,4.4633,4.5564,4.5583,4.6588,4.7248,4.6936,4.7873,4.8334,4.7659,4.7853,4.7759,4.7263,4.7037,4.6975,4.7312,4.6668,4.6369,4.6466,4.7219,4.789,4.8368,4.9433,4.9944,4.9944,5.0114,5.0209,5.019,5.0397,5.0849,5.1652,5.2582,5.325,5.3823,5.5062,5.5606,5.5633,5.5831,5.6357,5.7122,5.7073,5.7571,5.8362,5.9954,6.053,6.079,6.1372,6.191,6.2049,6.1378,6.1524,6.1821,6.122,6.1249,6.1435,6.1679,6.2108,6.2693,6.306,6.345,6.3865,6.429,6.4344,6.4584,6.5013,6.5746,6.6319,6.6482,6.6701,6.6355,6.4831,6.3993,6.3485,6.3154,6.1499,6.1024,6.25,6.2649,6.2628,6.2628,6.2628,6.2856,6.3501,6.3571,6.3944,6.4684,6.4711,6.4821,6.5025,6.5443,6.5912,6.6377,6.7362,6.7972,6.8193,6.8449,6.8605,2.8328,2.9015,2.9802,3.0837,3.1964,0.0,0.0,3.504,3.5771,3.6419,3.6708,0.0,0.0,3.9944,4.1827,4.2198,4.3512,4.4617,4.4963,4.5782,4.6421,4.6729,4.742,4.784,4.7818,4.7705,4.7667,4.7693,4.6921,4.6736,4.7368,4.6694,4.6369,4.6562,4.7219,4.789,4.8368,4.9433,4.9849,4.9641,4.9831,4.9944,4.9944,4.9944,5.0284,5.081,5.1839,5.2509,5.292,5.424,5.4788,5.4859,5.4704,5.5237,5.6008,5.5939,5.6801,5.8191,5.9666,6.053,6.094,6.1458,6.1801,6.1878,6.1196,6.1,6.0823,6.0275,6.0228,6.0109,5.9724,6.0614,6.163,6.1929,6.2783,6.3504,6.367,6.3893,6.4263,6.4847,6.5417,6.5828,6.5992,6.6401,6.6038,6.4241,6.3737,6.3154,6.1961,6.1066,6.0925,6.2031,6.2166,6.2203,6.2345,6.2486,6.2856,6.3501,6.3432,6.3709,6.4452,6.452,6.4616,6.4711,6.5133,6.5443,6.5711,6.6576,6.7296,6.7843,6.8001,6.8286,2.749,2.8284,2.9318,3.099,3.1248,0.0,3.2087,3.2106,0.0,3.4087,0.0,0.0,0.0,3.8529,3.9934,4.1647,4.2644,4.3685,4.4931,4.4913,4.5554,4.7548,4.6796,4.6842,4.863,4.7734,4.7243,4.7751,4.689,4.6568,4.7134,4.6596,4.6466,4.6948,4.7411,4.789,4.8368,4.9357,4.9641,4.9148,4.9736,4.9944,4.9944,4.9944,5.0209,5.0735,5.1146,5.1745,5.227,5.2747,5.3465,5.4332,5.3802,5.4206,5.4898,5.4661,5.5905,5.793,5.9557,6.0443,6.0854,6.1372,6.1544,6.163,6.1536,6.0857,6.0145,6.029,6.0027,5.9397,5.8489,5.9038,6.0068,6.0796,6.1461,6.2097,6.2457,6.2539,6.3019,6.4534,6.4921,6.5062,6.5293,6.576,6.571,6.4473,6.3783,6.2951,6.1834,6.1137,6.0789,6.0861,6.1201,6.1561,6.1918,6.2345,6.2813,6.3432,6.3153,6.3293,6.4054,6.4123,6.4288,6.4616,6.4711,6.5025,6.5577,6.5644,6.6377,6.7714,6.7548,6.7965,2.6846,2.7622,2.8752,3.0312,0.0,0.0,0.0,0.0,0.0,0.0,0.0,0.0,0.0,3.5685,3.713,3.9707,4.1115,4.2252,4.3394,4.3969,4.4666,4.5504,4.6284,4.6767,4.6742,4.6454,4.6474,4.7077,4.5904,4.5425,4.6004,4.6205,4.6158,4.5868,4.7026,4.768,4.7776,4.8863,4.9243,4.9148,4.9736,4.9944,4.9944,4.9944,5.002,5.017,5.0339,5.0898,5.1745,5.1974,5.2532,5.3434,5.3526,5.2912,5.2071,5.3203,5.4381,5.5756,5.8242,5.9658,6.0466,6.0854,6.1286,6.1489,6.0693,6.0295,5.978,5.827,5.7368,5.6996,5.7565,5.8752,5.9907,6.0149,6.086,6.171,6.2097,6.2155,6.2658,6.4143,6.4697,6.4732,6.3974,6.4231,6.3958,6.2236,6.1861,6.1458,6.0766,6.0458,6.0499,6.0789,6.0933,6.1103,6.1489,6.1918,6.2318,6.2813,6.29,6.3223,6.3709,6.3985,6.4054,6.3848,6.4383,6.4657,6.4534,6.5308,6.5845,6.6245,6.7092,6.7447,2.6224,2.6991,2.8012,2.9004,2.921,2.9473,3.0628,0.0,0.0,0.0,0.0,0.0,0.0,0.0,3.5119,3.7733,3.9673,4.1162,4.1733,4.2656,4.3438,4.4098,4.5404,4.6255,4.6205,4.6413,4.6755,4.742,4.6061,4.555,4.6499,4.6379,4.6255,4.6176,4.7122,4.7585,4.7585,4.8368,4.8677,4.8325,4.9453,4.9641,4.9095,4.966,4.9831,4.9585,4.9757,5.0519,5.1539,5.137,5.2077,5.3085,5.2993,5.2067,5.0823,5.1801,5.2753,5.4061,5.73,5.9044,6.0008,6.0334,6.0854,6.1192,6.0889,6.0155,5.9089,5.7967,5.7051,5.6606,5.7305,5.8569,5.9618,6.0044,6.0581,6.1071,6.1509,6.1226,6.1202,6.2596,6.3011,6.2977,6.2412,6.2689,6.2436,6.0899,6.1005,6.0929,6.0092,6.016,6.0379,6.0571,6.0571,6.0716,6.1129,6.1319,6.1678,6.2274,6.246,6.276,6.3293,6.3501,6.364,6.3571,6.3944,6.415,6.4123,6.4739,6.5241,6.5711,6.6234,6.6726,2.5495,2.6361,2.7233,2.7675,2.764,2.7841,2.8941,0.0,0.0,0.0,0.0,0.0,0.0,3.2632,3.3724,3.5805,3.8124,3.9849,4.0291,4.1328,4.2375,4.3326,4.4449,4.5444,4.619,4.6579,4.7144,4.8015,4.653,4.5993,4.7129,4.6536,4.6369,4.6755,4.7315,4.7489,4.7489,4.8081,4.8037,4.7469,4.9114,4.9377,4.8252,4.9434,4.9641,4.9206,4.9387,5.0242,5.1446,5.1096,5.1712,5.29,5.2317,5.1242,5.0229,5.058,5.1346,5.2746,5.6266,5.8293,5.935,5.9701,6.0247,6.0854,6.1372,6.0235,5.8645,5.8341,5.7617,5.7018,5.7391,5.8225,5.9224,5.9884,6.002,6.01,6.0553,5.995,5.9658,6.0735,6.101,6.0961,6.0814,6.1209,6.1075,5.999,6.0401,6.0578,5.9699,5.994,6.0233,6.016,6.0233,6.0379,6.0716,6.0789,6.1175,6.1847,6.1918,6.2248,6.29,6.29,6.311,6.3362,6.3501,6.3709,6.4054,6.4123,6.4602,6.551,6.5431,6.5995,2.4651,2.5693,2.6999,2.7524,2.7921,2.8298,2.8453,0.0,0.0,0.0,0.0,0.0,0.0,3.0867,3.238,3.3859,3.5116,3.6945,3.989,4.0899,4.2025,4.3766,4.4229,4.4817,4.6141,4.5804,4.6068,4.7111,4.5818,4.5087,4.5288,4.5472,4.5674,4.5674,4.6659,4.714,4.714,4.7986,4.8313,4.8298,4.9377,4.9679,4.9075,4.9679,4.9641,4.9206,4.9368,5.0222,5.1446,5.1044,5.1477,5.2304,5.1509,5.0325,4.9298,4.976,5.0533,5.1618,5.3732,5.6131,5.8359,5.8757,5.9438,6.0247,6.0767,6.0471,5.9417,5.7687,5.7079,5.6939,5.7018,5.8032,5.892,5.8157,5.8023,5.8102,5.8646,5.8605,5.8876,6.0308,6.0796,6.0741,5.9887,5.9818,5.9606,5.888,5.9131,5.9354,5.9204,5.9768,6.0087,5.9819,6.0087,6.0306,6.0379,6.0644,6.1031,6.1489,6.1515,6.1847,6.2601,6.2672,6.2672,6.2742,6.3319,6.364,6.364,6.3985,6.4425,6.4889,6.5403,6.5605,2.4727,2.535,2.5984,2.5997,2.6468,2.7043,2.7629,0.0,0.0,0.0,0.0,0.0,0.0,2.923,3.0559,3.2614,3.3751,3.5295,3.7852,3.9502,4.0891,4.2116,4.3214,4.4082,4.4682,4.5774,4.6671,4.7011,4.6484,4.6204,4.641,4.594,4.5806,4.6414,4.658,4.6755,4.7044,4.7986,4.8166,4.7743,4.8943,4.9019,4.8138,4.8848,4.8958,4.8712,4.8644,4.9326,5.0412,5.0298,5.054,5.1057,5.0442,4.9686,4.8973,4.8698,4.9373,5.0619,5.2241,5.4215,5.6221,5.7014,5.7954,5.8879,5.8867,5.8307,5.77,5.7793,5.6986,5.6457,5.7741,5.8193,5.8385,5.8935,5.8553,5.8069,5.8539,5.7952,5.7587,5.8221,5.8682,5.8822,5.826,5.8465,5.8548,5.826,5.8536,5.8759,5.8759,5.9253,5.9573,5.9352,5.972,5.9966,5.9966,6.0499,6.1031,6.1443,6.1658,6.1989,6.2557,6.2628,6.2628,6.2628,6.2856,6.311,6.3293,6.3432,6.3848,6.4425,6.4766,6.4997,2.5078,0.0,2.5719,2.5759,2.6054,2.6578,0.0,2.6943,0.0,0.0,0.0,0.0,0.0,2.8172,2.9275,3.1873,3.276,3.388,3.5898,3.7785,3.9368,4.0604,4.1938,4.2942,4.3803,4.5467,4.6697,4.7028,4.6889,4.7033,4.7373,4.6331,4.6138,4.7035,4.6383,4.6351,4.6851,4.7794,4.7866,4.7374,4.8471,4.8434,4.7392,4.8092,4.8276,4.8169,4.8233,4.8658,4.9304,4.971,4.9951,4.9921,4.9453,4.897,4.856,4.7878,4.8495,4.9835,5.1586,5.3137,5.4607,5.5331,5.6289,5.7134,5.7039,5.6112,5.5453,5.7063,5.6584,5.5996,5.7774,5.7895,5.7825,5.9212,5.8598,5.7868,5.8233,5.7353,5.6473,5.6549,5.6906,5.7185,5.7285,5.7636,5.791,5.791,5.8261,5.8461,5.8411,5.8809,5.9105,5.9105,5.9426,5.9745,5.9819,6.0451,6.1031,6.1443,6.1704,6.2061,6.2557,6.2486,6.2486,6.2628,6.2628,6.2672,6.29,6.2944,6.3362,6.3985,6.3985,6.4356,0.0,2.6531,2.7367,2.8684,2.8666,2.8442,2.879,2.8242,0.0,2.6456,2.6545,2.693,2.7389,2.8061,2.9278,3.1365,3.1764,3.26,3.4915,3.6054,3.777,4.0962,4.0475,4.1328,4.5022,4.4378,4.4749,4.6856,4.6589,4.6276,4.6221,4.5859,4.5922,4.6537,4.5894,4.5771,4.6369,4.7219,4.7662,4.7608,4.814,4.814,4.7608,4.814,4.7982,4.7414,4.8586,4.8736,4.8423,4.9984,5.0269,4.9497,4.8616,4.7981,4.7541,4.7597,4.8217,4.9382,5.2071,5.3618,5.4431,5.4498,5.4707,5.5102,5.6213,5.5229,5.3713,5.4379,5.5347,5.6239,5.5762,5.6575,5.7391,5.6979,5.6462,5.6261,5.6668,5.6343,5.6143,5.6473,5.6906,5.7285,5.7811,5.791,5.791,5.791,5.8261,5.8411,5.8061,5.861,5.9105,5.9105,5.9426,5.9819,6.016,6.0571,6.1031,6.1443,6.1443,6.1775,6.2557,6.2274,6.2203,6.2628,6.2628,6.2601,6.2601,6.283,6.3223,6.364,6.364,6.364,2.6002,2.6891,2.7587,2.7538,2.7818,2.8128,2.818,2.7367,2.6707,2.7119,2.6227,2.5926,2.7773,2.7867,2.8519,3.1214,3.1789,3.2433,3.4024,3.527,3.686,3.8826,4.0531,4.2147,4.4011,4.413,4.4802,4.645,4.6803,4.6951,4.6885,4.6251,4.6213,4.6703,4.551,4.5365,4.6272,4.7219,4.7585,4.7585,4.7489,4.7489,4.7585,4.7219,4.7344,4.7945,4.8448,4.829,0.0,4.9578,4.9482,4.8184,4.7859,4.7566,4.7375,4.6909,4.7171,4.8112,5.0521,5.2169,5.328,5.354,5.3652,5.3759,5.4205,5.3391,5.2659,5.4506,5.5086,5.5265,5.6418,5.6457,5.6253,5.6491,5.609,5.5705,5.6143,5.6042,5.6066,5.6143,5.673,5.7185,5.7361,5.7735,5.791,5.791,5.8061,5.8136,5.791,5.8186,5.8411,5.8411,5.8908,5.9327,5.9548,6.0134,6.0524,6.0669,6.1129,6.1658,6.2203,6.2061,6.2203,6.2628,6.2628,6.2628,6.2628,6.2672,6.29,6.3223,6.3223,6.3362,2.6446,2.7083,2.7501,2.7141,2.7337,2.7751,2.8172,2.7219,2.6429,2.7306,2.6108,2.5641,2.7935,2.7806,2.8333,3.1386,3.1805,0.0,0.0,0.0,0.0,3.7309,3.9931,4.1842,4.2279,4.3318,4.4532,4.5921,4.6532,4.6916,4.704,4.6266,4.6104,4.6618,4.5465,4.5171,4.5982,4.693,4.7411,4.7411,4.7122,4.7122,4.7411,4.6737,4.6997,4.7829,4.8258,4.7898,4.732,4.9224,4.9073,4.7856,4.7856,4.7794,4.7573,4.6765,4.7007,4.7847,4.9552,5.1414,5.2917,5.2692,5.2863,5.2948,5.2402,5.1725,5.1557,5.353,5.4063,5.4412,5.6238,5.6067,5.5574,5.6219,5.5859,5.5474,5.5913,5.5913,5.5836,5.6143,5.6601,5.7058,5.7361,5.7735,5.791,5.791,5.791,5.791,5.791,5.791,5.7986,5.8136,5.861,5.8883,5.8883,5.9695,6.0233,6.0233,6.0912,6.1417,6.1775,6.1704,6.1821,6.2203,6.2345,6.2416,6.2416,6.2557,6.2672,6.283,6.283,6.297,2.6809,2.7003,2.7419,2.8168,2.779,2.7578,0.0,2.8015,2.6841,2.6841,2.6279,2.6309,2.7737,2.7998,2.893,3.1807,0.0,0.0,3.4758,3.5075,3.5498,3.6804,3.852,3.9722,4.0045,4.1689,4.3485,4.5375,4.5546,4.5758,4.6272,4.5673,4.5486,4.6088,4.568,4.548,4.548,4.6562,4.7044,4.7044,4.7044,4.7044,4.7044,4.7044,4.6806,4.6575,4.7829,4.7711,4.6869,4.9038,4.9526,4.8821,4.8821,4.858,4.8095,4.716,4.7786,4.9034,4.9586,5.1549,5.3564,5.2184,5.2353,5.2736,5.0889,5.0337,5.0418,5.0845,5.2171,5.3656,5.4519,5.5086,5.5497,5.5836,5.5705,5.5497,5.5913,5.5705,5.5652,5.6396,5.6549,5.6878,5.776,5.791,5.791,5.791,5.791,5.791,5.791,5.791,5.8061,5.8461,5.8536,5.8536,5.8536,5.9573,6.0233,6.0233,6.0644,6.1031,6.1443,6.1031,6.1031,6.1443,6.1775,6.1989,6.1989,6.2416,6.2557,6.2628,6.2628,6.2628,2.7066,2.7242,2.7515,2.8113,2.7569,2.7104,0.0,0.0,2.5967,2.6681,2.5928,2.5929,2.8374,2.8131,2.8583,0.0,0.0,3.1745,3.3802,3.4526,3.5483,3.7248,3.8154,3.9247,4.0796,4.1649,4.2866,4.4674,4.5351,4.5853,4.6393,4.5217,4.4829,4.5269,4.4996,4.4976,4.548,4.6562,4.6851,4.6466,4.6466,4.6466,4.6466,4.6466,4.7015,4.7848,4.8258,4.8326,4.8242,4.947,4.9526,4.8821,4.8821,4.8307,4.7707,4.8188,4.777,4.7385,4.9467,5.0722,5.1312,5.0895,5.1398,5.1845,5.0719,5.0337,5.0337,5.0499,5.1287,5.2127,5.2446,5.3239,5.4128,5.4643,5.4666,5.4666,5.5086,5.5319,5.5574,5.6066,5.6372,5.6778,5.7285,5.7361,5.746,5.791,5.791,5.791,5.791,5.791,5.7986,5.8061,5.8336,5.8536,5.8536,5.9278,5.9892,5.9892,6.0233,6.0597,6.1031,6.0861,6.1031,6.1443,6.1515,6.1586,6.1586,6.1704,6.1918,6.2203,6.2203,6.2345,2.7344,2.7402,2.7471,2.7925,2.7477,2.7015,2.6948,0.0,2.5511,2.6268,2.5925,2.6127,2.8277,2.8293,2.8823,0.0,0.0,0.0,3.405,3.5024,3.6182,3.825,3.8813,3.9642,4.1083,4.1532,4.2229,4.3434,4.4593,4.5309,4.5634,4.4869,4.4439,4.455,4.4796,4.5074,4.548,4.6369,4.6562,4.6272,4.6061,4.6061,4.6272,4.6272,4.693,4.8081,4.8272,4.8286,4.8251,4.949,4.9414,4.8564,4.9016,4.8821,4.8274,4.8525,4.8191,4.7788,4.8885,4.997,5.0787,5.0268,5.0494,5.0853,5.0446,5.0337,5.0337,5.0337,5.0803,5.1346,5.1486,5.2229,5.3126,5.378,5.3938,5.4095,5.4698,5.5009,5.5319,5.5913,5.6143,5.6449,5.683,5.6906,5.7058,5.7536,5.7636,5.7735,5.791,5.791,5.791,5.791,5.8111,5.8336,5.8461,5.9056,5.95,5.9672,6.0014,6.0379,6.0571,6.0571,6.0742,6.0985,6.1129,6.1201,6.1201,6.1371,6.1515,6.1775,6.1918,6.2132,2.7546,2.7485,2.7425,2.7719,2.7516,2.7018,2.6256,0.0,2.5433,2.5799,2.6183,2.6741,2.7805,2.8538,2.9423,0.0,0.0,3.2008,3.5199,3.6181,3.7299,3.9388,0.0,0.0,4.078,4.1177,4.1601,4.2008,4.3465,4.4418,4.4528,4.4378,4.4249,4.4049,4.4959,4.548,4.548,4.5982,4.6272,4.6176,4.5674,4.5674,4.6176,4.6272,4.6737,4.7585,4.8177,4.8058,4.7544,4.9227,4.917,4.8252,4.934,4.9582,4.9165,4.8506,4.8765,4.9227,4.8297,4.9484,5.1239,5.025,4.9849,4.9847,5.0195,5.0358,5.0337,5.0337,5.0581,5.0986,5.1346,5.177,5.2353,5.3024,5.3262,5.3578,5.444,5.4674,5.5009,5.5759,5.5913,5.6066,5.6473,5.6473,5.6601,5.7034,5.7109,5.7285,5.7811,5.791,5.791,5.791,5.7986,5.8111,5.8461,5.8883,5.9278,5.9672,6.0014,6.0233,6.0233,6.016,6.016,6.016,6.0499,6.0716,6.0716,6.1129,6.1299,6.1443,6.1775,6.1989,2.7208,2.7527,2.7918,2.7692,2.7435,2.6796,2.5318,2.5408,0.0,2.5944,2.6134,2.6731,2.8179,2.8714,2.9617,0.0,3.2028,3.3099,3.5907,3.6925,3.797,3.9485,3.9862,0.0,4.0659,4.0057,4.0455,4.2485,4.2506,4.3164,4.4566,4.4437,4.4008,4.3198,4.4688,4.548,4.548,4.5982,4.6061,4.5691,4.5594,4.5285,4.5091,4.5885,4.6544,4.7105,4.7967,4.8561,4.8811,4.9187,4.9131,4.8887,4.8789,4.855,4.8379,4.8886,4.8704,4.8226,4.9719,4.9753,4.9292,5.0313,5.027,4.9765,4.9868,5.0092,5.0337,5.0337,5.0418,5.0499,5.0581,5.0905,5.1228,5.147,5.2011,5.265,5.316,5.3836,5.4509,5.5009,5.5319,5.5628,5.6066,5.6143,5.6219,5.6601,5.6982,5.7185,5.7285,5.766,5.791,5.791,5.8186,5.8411,5.8536,5.9155,5.9598,5.9672,5.9745,5.9819,5.9819,5.95,5.9327,5.9327,5.9401,5.9622,5.9966,6.0039,6.055,6.1443,6.1175,6.1606,2.7404,2.7794,2.7948,2.7565,2.7244,2.6752,2.5586,0.0,0.0,0.0,2.7127,2.7831,2.8468,2.9174,3.0174,3.1559,3.2272,3.3624,3.6225,3.7309,3.8257,3.9587,3.9763,3.9976,4.0175,3.9545,3.9985,4.2171,4.2173,4.2631,4.4195,4.3798,4.3297,4.2559,4.4196,4.5188,4.548,4.5771,4.5771,4.548,4.4993,4.4701,4.4701,4.548,4.6255,4.6912,4.7986,4.8356,4.8325,4.9188,4.9019,4.8325,4.8601,4.8698,4.8607,4.8699,4.8467,4.8268,4.9104,4.8952,4.8634,4.9976,4.9834,4.917,4.9335,4.9499,4.9744,5.001,5.0113,5.0092,5.0255,5.0521,5.0683,5.0683,5.1148,5.1712,5.1931,5.2967,5.4095,5.4698,5.5086,5.5497,5.5705,5.5705,5.5859,5.6219,5.6449,5.673,5.7109,5.7233,5.7333,5.756,5.756,5.7861,5.8461,5.8709,5.9081,5.9598,5.95,5.95,5.9672,5.9278,5.9105,5.9105,5.9105,5.9253,5.9672,5.9672,6.0112,6.084,6.0861,6.1247,2.7621,2.8018,2.7992,2.7418,2.7169,2.6819,2.608,2.6132,0.0,0.0,2.8064,2.8913,2.8849,2.9774,3.0794,3.1765,3.2676,3.4193,3.6743,3.7699,3.8594,0.0,3.9991,3.9976,3.9891,3.936,3.9838,4.169,4.1678,4.2252,4.367,4.3158,4.2688,4.2448,4.3544,4.4587,4.548,4.548,4.548,4.548,4.4408,4.4115,4.4603,4.5188,4.5868,4.672,4.7776,4.7906,4.7543,4.9076,4.885,4.7655,4.8698,4.9053,4.9056,4.8508,4.8467,4.8708,4.8222,4.8194,4.8364,4.9118,4.8957,4.849,4.882,4.8903,4.9067,4.952,4.9683,4.9847,5.0174,5.0255,5.0337,5.0337,5.0602,5.0845,5.0926,5.2091,5.342,5.4362,5.4931,5.5187,5.5265,5.5342,5.5396,5.5836,5.5989,5.6196,5.6882,5.6678,5.6601,5.7109,5.683,5.7158,5.8312,5.8186,5.8411,5.9377,5.9204,5.9105,5.9451,5.9204,5.8957,5.8883,5.8957,5.9204,5.9598,5.9598,5.9867,6.0379,6.0644,6.0959,2.705,2.8004,2.8768,2.7298,2.7252,2.7261,2.589,2.6281,2.7013,2.7306,2.7689,2.8356,2.9653,3.0271,3.1127,3.3053,3.4436,3.5953,3.8079,3.8973,3.9697,4.0482,4.0575,4.0375,3.9891,3.936,3.9644,4.0905,4.0691,4.142,4.3563,4.3158,4.2917,4.34,4.2788,4.351,4.548,4.548,4.548,4.548,4.4408,4.3919,4.4115,4.4993,4.5577,4.5771,4.7105,4.7913,4.8221,4.8522,4.8694,4.8904,4.8617,4.8768,4.9226,4.9177,4.8989,4.8865,4.9685,4.8969,4.7722,4.7842,4.8115,4.8408,4.849,4.8738,4.8985,4.9067,4.9417,4.9786,4.9847,5.0113,5.0337,5.0337,5.0358,5.0521,5.0845,5.147,5.2251,5.342,5.4016,5.4509,5.4853,5.4931,5.5009,5.542,5.5759,5.6042,5.6119,5.6143,5.6349,5.7109,5.7109,5.7285,5.7986,5.8261,5.8461,5.861,5.861,5.861,5.8685,5.861,5.8411,5.8061,5.8411,5.8759,5.9179,5.9179,5.9695,6.0789,6.0451,6.0742,2.6688,2.7293,2.7709,2.7041,2.7173,2.7395,2.7142,2.7743,2.8421,2.893,2.9559,3.0132,3.0611,3.0492,3.107,3.3327,3.4158,3.5428,3.8009,3.9067,3.9804,4.0099,3.996,3.976,3.9891,3.8571,3.8617,4.0681,3.9861,3.9965,4.1606,4.1992,4.2244,4.2466,4.1989,4.2526,4.4098,4.4701,4.5091,4.4993,4.431,4.4115,4.4408,4.5091,4.5674,4.5964,4.7122,4.7872,4.8463,4.8768,4.8958,4.9148,4.8958,4.8958,4.9188,4.8757,4.868,4.8767,4.8846,4.8602,4.8301,4.7779,4.7785,4.7931,4.7931,4.8097,4.8263,4.8573,4.8841,4.9006,4.9253,4.9417,4.9581,4.9581,4.9847,5.0113,5.0255,5.0824,5.1551,5.257,5.3544,5.4275,5.4486,5.4698,5.4853,5.5009,5.5396,5.5551,5.5373,5.5527,5.5936,5.6754,5.6601,5.6906,5.7835,5.7786,5.7987,5.8461,5.8261,5.8261,5.8536,5.8261,5.8136,5.791,5.8136,5.8411,5.8759,5.8957,5.9474,6.016,6.0233,6.0597,2.6477,2.6797,2.6886,2.7308,2.7415,2.7549,2.8205,2.889,2.9491,2.9794,3.0588,3.1083,3.0789,3.0378,3.0832,3.3295,3.3944,3.5089,3.788,3.8876,3.9352,3.9473,3.8758,3.843,3.8906,3.7392,3.7405,4.0206,3.9286,3.924,4.0365,4.1126,4.1591,4.1591,4.1416,4.1934,4.2904,4.3902,4.4603,4.4701,4.4213,4.4213,4.4701,4.5285,4.5788,4.6272,4.7122,4.7794,4.8272,4.8768,4.9053,4.9129,4.9,4.8925,4.902,4.8279,4.837,4.8669,4.7798,4.8116,4.8843,4.8181,4.796,4.796,4.796,4.7799,4.7701,4.8097,4.8325,4.849,4.8738,4.8903,4.8985,4.8985,4.9335,4.9765,4.9765,5.0358,5.1169,5.1792,5.2933,5.3724,5.3724,5.415,5.4542,5.462,5.5009,5.511,5.4721,5.5009,5.5551,5.632,5.6219,5.6625,5.7835,5.756,5.7611,5.8312,5.8061,5.8061,5.8336,5.8186,5.8061,5.791,5.8061,5.8261,5.8685,5.8957,5.9327,5.9819,6.0087,6.0451,2.6451,2.6871,2.7361,2.8085,2.8097,2.8045,2.8287,2.8985,2.9406,2.8764,2.9403,2.9945,0.0,0.0,3.0617,3.3038,3.4462,3.6117,3.8485,3.8569,3.8388,3.8418,3.6913,3.6119,3.6705,3.5719,3.625,3.8985,3.9244,3.9891,4.1443,4.1576,4.1591,4.1591,4.1416,4.1934,4.2904,4.3494,4.4098,4.4701,4.4213,4.4213,4.4701,4.5285,4.5788,4.6272,4.6851,4.7315,4.768,4.8177,4.8749,4.9073,4.8346,4.8417,4.8783,4.8359,4.8479,4.8797,4.7479,4.7883,4.8944,4.8904,4.8883,4.8883,4.8883,4.8301,4.7618,4.7618,4.8014,4.8408,4.8408,4.8738,4.8985,4.8985,4.9335,4.9765,4.9765,5.0358,5.0926,5.1007,5.1712,5.2353,5.2353,5.3047,5.3656,5.4196,5.4565,5.4698,5.4275,5.4643,5.5141,5.5913,5.6296,5.6954,5.7835,5.791,5.791,5.791,5.791,5.791,5.791,5.8261,5.8261,5.791,5.8261,5.8685,5.9031,5.9105,5.9474,6.0233,6.0233,6.0451,2.5189,2.5878,2.6412,2.7424,2.8205,2.8924,2.9252,3.001,3.0603,3.0382,3.0794,3.1011,3.0285,2.9878,3.0361,3.2702,3.3912,3.5545,3.8014,3.8861,3.9329,3.9329,3.7452,3.6634,3.7548,3.505,3.4634,3.7726,3.7947,3.8578,3.9786,4.0598,4.0929,4.0929,4.0898,4.1454,4.2428,4.2625,4.3216,4.4213,4.4017,4.4408,4.5188,4.5382,4.5964,4.6755,4.6948,4.7219,4.7644,4.725,4.7427,4.7916,4.7431,4.7368,4.7565,4.7426,4.7665,4.8111,4.7933,4.8786,4.9854,4.9854,4.9854,4.9754,4.9124,4.8743,4.8361,4.7779,4.7785,4.7931,4.7931,4.8034,4.8097,4.8097,4.8676,4.9253,4.9253,4.9929,5.0683,5.0845,5.125,5.1631,5.2193,5.2512,5.2967,5.36,5.3814,5.3892,5.3758,5.4385,5.5009,5.5551,5.5989,5.6396,5.703,5.703,5.7182,5.7385,5.746,5.756,5.791,5.8061,5.8061,5.791,5.8336,5.861,5.8759,5.9204,5.9598,5.9867,5.9352,5.9381,2.4593,2.5278,2.5858,2.7074,2.8077,2.8998,2.9705,3.0358,3.0854,3.1015,3.1161,3.0964,3.0289,2.9847,3.0318,3.2601,3.3935,3.5599,3.8044,3.8762,3.9046,3.9046,3.6703,3.5734,3.7263,3.5148,3.4663,3.7429,3.7799,3.8307,3.9111,4.013,4.0674,4.0674,4.0674,4.1057,4.1934,4.1934,4.2526,4.3625,4.3625,4.4115,4.4993,4.5091,4.5771,4.6755,4.6755,4.7026,4.7357,4.6564,4.6539,4.6896,4.6252,4.6167,4.643,4.6283,4.6689,4.746,4.7912,4.9204,5.0602,5.076,5.0647,5.0196,4.9633,4.8984,4.8381,4.7799,4.7618,4.7618,4.7618,4.7618,4.7618,4.7618,4.8263,4.882,4.882,4.9417,4.9908,5.0255,5.0499,5.0926,5.1551,5.2033,5.2512,5.2967,5.3205,5.3397,5.3734,5.412,5.462,5.5187,5.5551,5.6013,5.6549,5.6549,5.6702,5.6906,5.7034,5.7064,5.6975,5.7125,5.6955,5.6418,5.6763,5.7058,5.7229,5.7887,5.8323,5.8515,5.807,5.8067,2.4858,2.5253,2.5785,2.7149,2.768,2.8136,2.9404,2.9866,3.0071,3.0422,3.0194,2.9893,2.961,2.97,3.048,3.2664,3.4529,3.6444,3.8591,3.7997,3.731,3.7408,3.4497,3.34,3.5578,3.5774,3.6495,3.8211,3.8743,3.9245,3.9791,4.0375,4.0559,4.0575,4.0559,4.0858,4.1355,4.1454,4.1934,4.2904,4.3019,4.3314,4.3936,4.4506,4.5285,4.6272,4.6272,4.6544,4.6955,4.6187,4.6017,4.621,4.4709,4.4606,4.5392,4.5017,4.5759,4.692,4.7412,4.9072,5.0961,5.1484,5.1061,5.0337,5.0277,4.909,4.7658,4.7638,4.7618,4.7618,4.7618,4.7618,4.7618,4.7618,4.8014,4.8408,4.8408,4.8738,4.8985,4.8985,4.9662,5.0337,5.0358,5.139,5.2215,5.2317,5.2614,5.3187,5.4227,5.3789,5.3814,5.4674,5.5164,5.5729,5.6473,5.6549,5.6549,5.6549,5.6858,5.6453,5.5096,5.5492,5.5035,5.3496,5.3854,5.4236,5.464,5.5016,5.5649,5.637,5.632,5.6734,2.327,0.0,0.0,2.5683,2.6728,2.8011,2.9474,2.9784,2.9873,3.008,3.062,3.076,2.9762,3.0309,3.1347,3.2852,3.4275,3.588,3.802,3.8099,3.8178,3.8578,3.6396,3.5453,3.6933,3.631,3.6495,3.8211,3.8743,3.9129,3.9245,4.016,4.026,3.9545,4.026,4.0659,4.0873,4.1637,4.2329,4.2904,4.3412,4.3723,4.3936,4.4506,4.5285,4.6255,4.6659,4.6531,4.5927,4.4865,4.4394,4.4134,4.3501,4.3607,4.4176,4.4724,4.5759,4.6929,4.7721,4.9026,5.0396,5.0578,5.0672,5.0525,4.9358,4.8555,4.8122,4.7715,4.7201,4.6762,4.7451,4.7368,4.7304,4.7535,4.8014,4.8408,4.8408,4.8738,4.8985,4.8985,4.915,4.9499,4.9723,5.005,5.0935,5.2584,5.2347,5.1996,5.2259,5.2747,5.3386,5.4252,5.4954,5.5497,5.5729,5.5729,5.5859,5.6143,5.5507,5.5111,5.4998,5.443,5.3927,5.3472,5.3974,5.4356,5.464,5.5347,5.5883,5.6345,5.5812,5.5795,2.2476,0.0,0.0,0.0,2.5382,2.6416,2.8273,2.8521,2.8566,2.9411,3.0133,3.0497,3.0261,3.0764,3.1696,3.302,3.4331,3.5767,3.7412,3.7849,3.8149,3.8713,3.7435,3.6777,3.7433,3.6847,3.6877,3.7938,3.8456,3.8743,3.8743,3.9545,3.976,3.936,3.996,4.0375,4.0674,4.1454,4.2132,4.2609,4.2937,4.3178,4.3485,4.3759,4.4339,4.5223,4.6228,4.6294,4.5606,4.4437,4.3661,4.3312,4.3086,4.3211,4.3622,4.4564,4.5607,4.6736,4.7429,4.8409,4.9396,4.9596,4.9631,4.9318,4.84,4.7848,4.7433,4.7172,4.6678,4.6426,4.695,4.6866,4.6866,4.7304,4.7598,4.7848,4.7848,4.818,4.8345,4.818,4.849,4.882,4.9067,4.9396,4.9973,5.116,5.094,5.0921,5.1405,5.2171,5.2933,5.3566,5.4252,5.4775,5.511,5.5342,5.531,5.5071,5.4685,5.4028,5.325,5.2826,5.228,5.1687,5.2298,5.2672,5.2811,5.3713,5.4398,5.4714,5.4597,5.4623,2.1831,0.0,0.0,2.37,2.3756,2.4217,0.0,2.6447,2.67,2.851,2.9014,2.9514,3.0834,3.1082,3.1715,3.3403,3.4481,3.5625,3.6939,3.7224,3.7429,3.8182,3.7764,3.7475,3.7475,3.7475,3.7475,3.7475,3.7966,3.8254,3.8254,3.8743,3.9215,3.9385,3.9645,3.9915,4.0145,4.1,4.1593,4.199,4.1976,4.2162,4.2639,4.2723,4.3043,4.3761,4.5458,4.6007,4.5606,4.4349,4.352,4.3205,4.305,4.3211,4.3622,4.4478,4.5435,4.6329,4.6697,4.741,4.8192,4.856,4.8191,4.7546,4.7449,4.6883,4.6174,4.6258,4.6174,4.609,4.6258,4.6258,4.6342,4.6866,4.697,4.697,4.697,4.7201,4.7368,4.7137,4.7681,4.8242,4.8325,4.8903,4.9232,4.8903,4.9232,4.9947,5.1164,5.185,5.2353,5.2853,5.3205,5.3735,5.4698,5.5086,5.4852,5.3633,5.3989,5.3146,5.0815,5.091,5.051,4.9202,4.9865,5.0298,5.0365,5.1352,5.2084,5.253,5.3136,5.3501,0.0,0.0,0.0,0.0,0.0,0.0,0.0,0.0,2.5157,2.6646,2.7511,2.8461,3.0208,3.1238,3.2306,3.3474,3.3941,3.4854,3.6947,3.6929,3.6948,3.7592,3.7562,3.7475,3.7475,3.7475,3.7475,3.7475,3.7966,3.8154,3.7663,3.8542,3.8307,3.6651,3.8707,3.895,3.7182,3.9869,4.1043,4.0657,4.136,4.1747,4.1857,4.2473,4.3233,4.4236,4.5265,4.5641,4.5553,4.3693,4.2743,4.2474,4.2834,4.3211,4.3622,4.4222,4.5176,4.6242,4.5873,4.6597,4.7452,4.6962,4.69,4.6891,4.6215,4.5887,4.5856,4.6174,4.5752,4.531,4.609,4.6005,4.594,4.6342,4.6426,4.6426,4.6426,4.6511,4.6614,4.697,4.7201,4.7368,4.7701,4.7868,4.7931,4.7868,4.882,4.9642,4.9887,5.1045,5.2091,5.2786,5.2923,5.3341,5.4275,5.4721,5.4143,5.2215,5.2491,5.2126,5.0768,5.002,4.9482,4.9202,4.9339,4.9705,5.0365,5.106,5.1794,5.253,5.2965,5.3695,0.0,0.0,0.0,0.0,0.0,0.0,0.0,0.0,0.0,0.0,0.0,2.6334,2.8118,0.0,3.1187,3.2273,3.3034,3.4163,3.6144,3.5956,3.6114,3.7347,3.7475,3.7475,3.7475,3.7475,3.7475,3.7475,3.7764,3.7764,3.7577,3.7952,3.7664,3.6156,3.8319,3.8881,3.7768,4.0394,4.1477,4.107,4.1262,4.1272,4.1125,4.1686,4.2584,4.3728,4.4486,4.5179,4.5553,4.3789,4.2691,4.226,4.2952,4.3537,4.3965,4.4222,4.4827,4.5529,4.5098,4.5447,4.606,4.5749,4.5702,4.5779,4.5378,4.4873,4.4466,4.4884,4.4225,4.3451,4.3883,4.4373,4.48,4.4929,4.5527,4.6005,4.6005,4.609,4.6258,4.6362,4.6698,4.7137,4.7284,4.7284,4.7201,4.7033,4.7765,4.8573,4.9232,5.005,5.091,5.1759,5.1794,5.1984,5.2383,5.2566,5.2261,5.1499,5.1262,5.081,4.9811,4.9552,4.9477,4.9477,4.9865,5.0206,5.066,5.1686,5.239,5.2743,5.1962,5.1849,0.0,0.0,0.0,0.0,0.0,0.0,0.0,0.0,0.0,0.0,0.0,0.0,0.0,0.0,0.0,3.064,3.1948,3.3376,3.5289,3.5117,3.5301,3.6792,3.7219,3.7291,3.719,3.7291,3.7291,3.7291,3.7404,3.7419,3.7291,3.7404,3.712,3.6268,3.7831,3.8663,3.8549,4.0585,4.1735,4.1777,4.1135,0.0,4.0502,4.0714,4.1517,4.2843,4.36,4.4404,4.5108,4.3828,4.2867,4.2225,4.2839,4.3298,4.3706,4.3642,4.3934,4.4404,4.4083,4.4347,4.48,4.4904,4.4885,4.4885,4.4885,4.4281,0.0,4.3919,4.3224,4.2351,4.2288,4.3059,4.3817,4.3696,4.4561,4.5375,4.5222,4.5636,4.5882,4.5559,4.6245,4.6866,4.6866,4.6589,4.6289,4.5854,4.6289,4.6991,4.8183,4.8716,4.9318,5.0116,5.0263,5.0278,5.0159,4.986,4.9873,5.0372,4.9646,4.8809,4.8165,4.8363,4.8446,4.8368,4.9462,5.0006,5.0013,5.1696,5.2513,5.2365,5.0543,4.9852,0.0,0.0,0.0,0.0,0.0,0.0,0.0,0.0,0.0,0.0,0.0,0.0,0.0,0.0,0.0,0.0,3.0572,3.2615,3.5232,3.5117,3.4884,3.512,3.6001,3.6438,3.5957,3.6339,3.6636,3.6636,3.7148,3.7219,3.6651,3.7163,0.0,0.0,0.0,3.7189,3.6486,3.8654,4.0227,4.1119,4.0365,3.9956,3.9981,3.9972,4.0568,4.1651,4.2826,4.3398,4.3561,4.3472,4.2867,4.2102,4.1543,4.1342,4.1336,4.1151,4.1764,4.2657,4.2573,0.0,0.0,4.4819,4.4885,4.4885,4.4885,4.4828,4.4668,4.4753,4.4677,4.4432,4.4112,4.4121,4.4177,4.3646,4.3977,4.4291,4.3577,4.4309,4.4931,4.4723,4.5584,4.6342,4.6342,4.5192,4.4273,4.4193,4.4534,4.5111,4.5948,4.6454,4.7242,4.8396,4.8793,0.0,4.8496,4.7314,4.697,4.7775,4.6462,4.5707,4.5691,4.4512,4.3812,4.3558,4.5683,4.6751,4.6618,4.9306,5.0449,4.99,4.8559,4.919,0.0,0.0,0.0,0.0,0.0,0.0,0.0,0.0,0.0,0.0,0.0,0.0,0.0,0.0,0.0,0.0,2.9478,3.13,3.3321,3.4294,3.4791,3.5157,3.5715,3.5871,3.569,3.5885,3.5968,3.5968,3.621,3.6252,3.5982,3.6224,3.5871,3.4693,3.6313,3.6961,3.657,3.8468,3.9562,3.9888,3.9322,3.8968,3.8852,3.9257,3.9981,4.1012,4.2042,4.2732,4.3027,4.2743,4.2371,4.1895,0.0,0.0,0.0,0.0,4.2493,4.2701,4.2956,4.3602,4.4412,4.48,4.4885,4.4885,4.4885,4.4225,4.3513,4.3784,4.3159,4.227,4.2104,4.2657,4.3007,4.2209,4.3017,4.3787,4.3454,4.398,4.4555,4.4702,4.5051,0.0,4.4217,4.3725,4.3422,4.3182,4.3487,4.3961,4.4511,4.4943,4.5449,4.5878,4.6064,4.6094,4.5889,4.5302,0.0,0.0,0.0,4.4784,4.4625,4.4207,0.0,0.0,0.0,4.3855,4.3372,4.5089,0.0,0.0,4.2018,4.2552,0.0,0.0,0.0,0.0,0.0,0.0,0.0,0.0,0.0,0.0,0.0,0.0,0.0,0.0,0.0,0.0,2.8003,2.9668,3.0791,3.258,3.3756,3.3943,3.4717,3.5243,3.5072,3.5309,3.5519,3.5519,3.558,3.5499,3.5328,3.5484,3.5285,3.4659,3.5952,3.672,3.6971,3.8298,3.9137,3.9374,3.8739,3.8481,3.8347,3.8652,3.9324,4.0316,4.1302,4.1944,4.246,4.223,4.2,4.1791,4.2207,4.2238,4.2058,4.2203,4.2101,4.2063,4.2773,4.3524,4.4137,4.4649,4.48,4.4904,4.48,4.3896,4.3028,4.3364,4.2399,4.126,4.1177,4.1797,4.2336,4.1369,4.2328,4.331,4.2919,4.3646,4.4262,4.4065,4.3724,4.3125,4.2195,4.2149,4.2214,4.1917,4.211,4.2417,4.2856,4.3217,4.354,4.3625,4.3942,4.3974,4.3703,4.3755,4.3603,4.3331,4.3946,4.39,4.3035,4.3539,4.2924,4.0927,4.1326,4.1048,0.0,0.0,0.0,0.0,0.0,0.0,0.0,0.0,0.0,0.0,0.0,0.0,0.0,0.0,0.0,0.0,0.0,0.0,0.0,0.0,0.0,0.0,0.0,0.0,2.7753,2.9928,3.1198,3.0077,3.2719,3.4418,3.3715,3.4688,3.5357,3.5357,3.5528,3.5314,3.4688,3.5243,3.5285,3.4659,3.5141,3.5887,3.6955,3.7525,3.8606,4.0222,3.9069,3.8719,3.9005,3.8396,3.8625,3.9566,4.0412,4.1146,4.1618,4.2,4.2173,4.2013,4.0084,3.9527,3.9641,3.9085,3.9095,3.9591,4.1235,4.2603,4.3622,4.4137,4.4564,4.48,4.4478,4.4308,4.4289,4.4289,4.391,4.3377,4.2966,4.2898,4.2657,4.1808,4.2347,4.2649,4.14,4.2749,4.3859,4.217,4.126,4.074,4.0703,4.0355,4.0129,4.0129,4.0148,0.0,4.0687,4.1072,4.1463,4.1794,4.2893,4.324,4.2525,4.2648,4.2486,4.1756,4.2747,4.2434,4.0281,4.1376,4.0308,3.665,3.8125,3.812,3.6341,0.0,0.0,0.0,0.0,0.0,0.0,0.0,0.0,0.0,0.0,0.0,0.0,0.0,0.0,0.0,0.0,0.0,0.0,0.0,0.0,0.0,0.0,0.0,0.0,2.7696,2.9394,2.9668,3.0381,3.1355,3.2703,3.2618,3.2763,3.3739,3.4354,3.4437,3.3858,3.4815,3.5262,3.5027,3.5513,3.606,3.6666,3.6847,3.7227,3.7749,3.7424,3.7479,3.7914,3.8066,3.8592,3.9532,4.0482,4.1094,4.16,4.1757,4.1226,4.0238,4.0186,4.0132,4.0193,4.0325,4.0406,4.0615,4.0833,4.1517,4.2453,4.3029,4.3294,4.3357,4.3212,4.2763,4.2362,4.2852,4.2324,4.1668,4.229,4.1982,4.1443,4.1181,4.1547,4.1947,4.1526,4.2081,4.2563,4.2214,4.172,4.1137,4.0337,3.994,3.9524,3.922,3.9686,4.0024,3.9839,4.021,4.0419,4.0223,4.0624,4.0965,4.12,4.1297,4.152,4.1919,4.1898,4.1355,4.0503,4.0213,3.9073,3.6932,3.6943,3.62,3.4742,0.0,0.0,0.0,0.0,0.0,0.0,0.0,0.0,0.0,0.0,0.0,0.0,0.0,0.0,0.0,0.0,0.0,0.0,0.0,0.0,0.0,0.0,0.0,0.0,0.0,0.0,2.8776,2.9268,0.0,3.1733,3.0821,3.0705,3.2116,3.2601,3.2801,3.2964,3.3841,3.446,3.446,3.4917,3.5392,3.5887,3.5887,3.6098,3.6344,3.6098,3.6242,3.6936,3.7409,3.8202,3.9078,4.0258,4.0764,4.0713,4.0538,3.9921,3.8993,3.9318,3.9364,3.9354,3.993,4.0211,4.0324,4.0251,4.0572,4.1226,4.2186,4.2412,4.2187,4.1408,4.0617,4.0046,4.0923,4.0278,3.9639,4.0697,4.0706,4.0347,3.9919,4.0296,4.0759,4.0759,4.1181,4.1544,4.1534,4.0886,3.994,3.8922,3.8493,3.8103,3.7512,3.8583,3.9177,3.864,3.9423,3.9816,3.9218,3.9618,4.0148,4.0806,4.12,4.1567,4.1939,4.1898,4.1231,3.98,3.9531,3.8306,3.5882,3.5991,3.5292,0.0,0.0,0.0,0.0,0.0,0.0,0.0,0.0,0.0,0.0,0.0,0.0,0.0,0.0,0.0,0.0,0.0,0.0,0.0,0.0,0.0,0.0,0.0,0.0,0.0,0.0,0.0,2.7028,2.9023,0.0,0.0,0.0,0.0,3.0365,3.0189,3.0509,3.1707,3.2512,3.301,3.2955,3.348,3.4153,3.4747,3.4747,3.5167,3.5908,3.5152,3.5271,3.614,3.666,3.7437,3.8362,4.0055,4.0142,3.9099,3.848,3.8226,3.813,3.7268,3.7036,3.7099,3.7597,3.8042,3.8604,3.9412,3.9702,3.9964,4.1616,4.1884,4.114,3.9051,3.7768,0.0,0.0,3.8007,3.7536,3.8365,3.9163,3.9462,3.8226,3.8657,3.9333,3.9351,4.0262,4.0923,4.0001,3.8581,3.718,3.6297,0.0,3.5984,3.5123,3.6768,3.7825,3.7012,3.8699,3.9675,3.884,3.9864,4.0714,4.1144,4.2202,4.2459,4.1655,4.2614,4.1653,3.8297,3.923,3.7833,3.3501,3.5298,0.0,0.0,0.0,0.0,0.0,0.0,0.0,0.0,0.0,0.0,0.0,0.0,0.0,0.0,0.0,0.0,0.0,0.0,0.0,0.0,0.0,0.0,0.0,0.0,0.0,0.0,2.2247,2.4005,2.607,2.6396,2.7007,0.0,0.0,0.0,0.0,0.0,0.0,2.7909,3.053,3.1832,3.1434,3.3129,3.4195,3.4636,3.4636,3.4728,3.4998,3.5085,3.5418,3.6012,3.6773,3.7614,3.8485,3.9342,3.9641,3.9421,3.623,3.4559,3.3917,3.2905,3.2817,3.3252,3.3326,3.434,3.5766,3.6649,3.7467,3.8219,3.8733,3.832,3.7181,3.491,0.0,0.0,0.0,0.0,3.4805,3.6298,3.773,3.8757,3.8426,3.9233,4.0035,3.9808,4.0072,3.9673,3.7302,3.6868,3.6184,3.3867,3.4162,0.0,3.29,3.4683,3.6231,3.6623,3.7756,3.8782,3.9239,3.9543,4.0167,4.1144,4.1128,4.1356,4.1969,4.1243,4.0065,3.8618,3.7849,3.6256,3.3746,0.0,0.0,0.0,0.0,0.0,0.0,0.0,0.0,0.0,0.0,0.0,0.0,0.0,0.0,0.0,0.0,0.0,0.0,0.0,0.0,0.0,0.0,0.0,0.0,0.0,0.0,0.0,2.0594,2.2269,2.4099,2.4194,2.4498,0.0,0.0,0.0,0.0,0.0,0.0,0.0,0.0,0.0,2.918,3.0581,3.178,3.2527,3.3288,3.3818,3.4111,3.4529,3.5012,3.5758,3.6419,3.7158,3.7993,3.8336,3.813,3.7203,3.3882,3.2454,3.22,0.0,0.0,0.0,0.0,3.03,3.1395,3.205,3.2489,3.2956,3.4188,0.0,0.0,0.0,0.0,0.0,0.0,0.0,3.1609,3.3442,3.5437,3.6992,3.7023,3.7892,3.8608,3.8349,3.7865,3.6698,3.4215,3.3549,3.266,3.0179,3.037,0.0,0.0,0.0,3.4524,3.5418,3.7395,3.8858,3.9391,3.9789,4.0318,4.1144,4.0857,4.0953,4.1554,4.0155,3.8851,3.7714,3.6497,3.4984,0.0,0.0,0.0,0.0,0.0,0.0,0.0,0.0,0.0,0.0,0.0,0.0,0.0,0.0,0.0,0.0,0.0,0.0,0.0,0.0,0.0,0.0,0.0,0.0,0.0,0.0,0.0,0.0,0.0,2.0695,2.1824,0.0,0.0,0.0,0.0,0.0,0.0,0.0,0.0,0.0,0.0,0.0,0.0,0.0,2.8062,2.9263,3.0795,3.1962,3.2811,3.3089,3.3808,3.4979,3.544,3.6093,3.6858,3.6532,0.0,3.3668,3.1283,0.0,0.0,0.0,0.0,0.0,0.0,0.0,0.0,0.0,0.0,0.0,0.0,0.0,0.0,0.0,0.0,0.0,0.0,0.0,0.0,0.0,0.0,3.4702,3.4763,3.563,3.6271,3.5361,3.4035,3.2551,3.0532,2.9339,2.7908,0.0,0.0,0.0,0.0,0.0,0.0,3.3919,3.7126,3.9391,3.9618,4.0242,4.0806,4.1137,4.1022,4.0791,4.0501,3.9286,3.7796,3.5916,3.5278,0.0,0.0,0.0,0.0,0.0,0.0,0.0,0.0,0.0,0.0,0.0,0.0,0.0,0.0,0.0,0.0,0.0,0.0,0.0,0.0,0.0,0.0,0.0,0.0,0.0,0.0,0.0,0.0,0.0,0.0,0.0,0.0,0.0,0.0,0.0,0.0,0.0,0.0,0.0,0.0,0.0,0.0,0.0,0.0,0.0,0.0,0.0,0.0,0.0,0.0,2.905,3.0232,3.2804,3.2967,3.362,3.4472,3.1769,3.0765,3.0782,2.7481,0.0,0.0,0.0,0.0,0.0,0.0,0.0,0.0,0.0,0.0,0.0,0.0,0.0,0.0,0.0,0.0,0.0,0.0,0.0,0.0,0.0,0.0,3.2874,3.2661,3.5056,3.5729,3.003,0.0,0.0,0.0,0.0,0.0,0.0,0.0,0.0,0.0,0.0,0.0,3.3203,3.6315,3.8858,4.026,4.0581,4.0738,4.1055,4.065,3.9866,3.8623,3.8304,3.6704,0.0,0.0,0.0,0.0,0.0,0.0,0.0,0.0,0.0,0.0,0.0,0.0,0.0,0.0,0.0,0.0,0.0,0.0,0.0,0.0,0.0,0.0,0.0,0.0,0.0,0.0,0.0,0.0,0.0,0.0,0.0,0.0,0.0,0.0,0.0,0.0,0.0,0.0,0.0,0.0,0.0,0.0,0.0,0.0,0.0,0.0,0.0,0.0,0.0,0.0,0.0,0.0,0.0,0.0,0.0,0.0,0.0,0.0,2.8659,2.7463,0.0,0.0,0.0,0.0,0.0,0.0,0.0,0.0,0.0,0.0,0.0,0.0,0.0,0.0,0.0,0.0,0.0,0.0,0.0,0.0,0.0,0.0,0.0,0.0,0.0,0.0,0.0,0.0,0.0,0.0,0.0,0.0,0.0,0.0,0.0,0.0,0.0,0.0,0.0,0.0,3.2063,3.522,3.7733,3.9144,3.9343,3.9511,3.9974,3.8974,3.8315,3.832,3.6271,0.0,0.0,0.0,0.0,0.0,0.0,0.0,0.0,0.0,0.0,0.0,0.0,0.0,0.0,0.0,0.0,0.0,0.0,0.0,0.0,0.0,0.0,0.0,0.0,0.0,0.0,0.0,0.0,0.0,0.0,0.0,0.0,0.0,0.0,0.0,0.0,0.0,0.0,0.0,0.0,0.0,0.0,0.0,0.0,0.0,0.0,0.0,0.0,0.0,0.0,0.0,0.0,0.0,0.0,0.0,0.0,0.0,0.0,0.0,2.5727,2.4763,0.0,0.0,0.0,0.0,0.0,0.0,0.0,0.0,0.0,0.0,0.0,0.0,0.0,0.0,0.0,0.0,0.0,0.0,0.0,0.0,0.0,0.0,0.0,0.0,0.0,0.0,0.0,0.0,0.0,0.0,0.0,0.0,0.0,0.0,0.0,0.0,0.0,0.0,0.0,0.0,3.0714,3.4097,3.6691,3.7812,3.7986,3.8093,3.8505,3.7353,3.6821,3.7323,3.4321,0.0,0.0,0.0,0.0,0.0,0.0,0.0,0.0,0.0,0.0,0.0,0.0,0.0,0.0,0.0,0.0,0.0,0.0,0.0,0.0,0.0,0.0,0.0,0.0,0.0,0.0,0.0,0.0,0.0,0.0,0.0,0.0,0.0,0.0,0.0,0.0,0.0,0.0,0.0,0.0,0.0,0.0,0.0,0.0,0.0,0.0,0.0,0.0,0.0,0.0,0.0,0.0,0.0,0.0,0.0,0.0,0.0,0.0,0.0,0.0,0.0,0.0,0.0,0.0,0.0,0.0,0.0,0.0,0.0,0.0,0.0,0.0,0.0,0.0,0.0,0.0,0.0,0.0,0.0,0.0,0.0,0.0,0.0,0.0,0.0,0.0,0.0,0.0,0.0,0.0,0.0,0.0,0.0,0.0,0.0,0.0,0.0,0.0,0.0,0.0,0.0,2.9325,3.3209,3.628,3.742,3.7562,3.7351,3.6805,3.6854,3.6002,3.3869,0.0,0.0,0.0,0.0,0.0,0.0,0.0,0.0,0.0,0.0,0.0,0.0,0.0,0.0,0.0,0.0,0.0,0.0,0.0,0.0,0.0,0.0,0.0,0.0,0.0,0.0,0.0,0.0,0.0,0.0,0.0,0.0,0.0,0.0,0.0,0.0,0.0,0.0,0.0,0.0,0.0,0.0,0.0,0.0,0.0,0.0,0.0,0.0,0.0,0.0,0.0,0.0,0.0,0.0,0.0,0.0,0.0,0.0,0.0,0.0,0.0,0.0,0.0,0.0,0.0,0.0,0.0,0.0,0.0,0.0,0.0,0.0,0.0,0.0,0.0,0.0,0.0,0.0,0.0,0.0,0.0,0.0,0.0,0.0,0.0,0.0,0.0,0.0,0.0,0.0,0.0,0.0,0.0,0.0,0.0,0.0,0.0,0.0,0.0,0.0,0.0,0.0,2.7794,3.1663,3.4564,3.5413,3.4927,3.476,3.5447,3.4794,3.3736,3.2289,0.0,0.0,0.0,0.0,0.0,0.0,0.0,0.0,0.0,0.0,0.0,0.0,0.0,0.0,0.0,0.0,0.0,0.0,0.0,0.0,0.0,0.0,0.0,0.0,0.0,0.0,0.0,0.0,0.0,0.0,0.0,0.0,0.0,0.0,0.0,0.0,0.0,0.0,0.0,0.0,0.0,0.0,0.0,0.0,0.0,0.0,0.0,0.0,0.0,0.0,0.0,0.0,0.0,0.0,0.0,0.0,0.0,0.0,0.0,0.0,0.0,0.0,0.0,0.0,0.0,0.0,0.0,0.0,0.0,0.0,0.0,0.0,0.0,0.0,0.0,0.0,0.0,0.0,0.0,0.0,0.0,0.0,0.0,0.0,0.0,0.0,0.0,0.0,0.0,0.0,0.0,0.0,0.0,0.0,0.0,0.0,0.0,0.0,0.0,0.0,0.0,0.0,2.6366,3.0557,3.3502,3.3624,3.3094,3.3073,3.4024,3.3029,3.1883,3.0808,0.0,0.0,0.0,0.0,0.0,0.0,0.0,0.0,0.0,0.0,0.0,0.0,0.0,0.0,0.0,0.0,0.0,0.0,0.0,0.0,0.0,0.0,0.0,0.0,0.0,0.0,0.0,0.0,0.0,0.0,0.0,0.0,0.0,0.0,0.0,0.0,0.0,0.0,0.0,0.0,0.0,0.0,0.0,0.0,0.0,0.0,0.0,0.0,0.0,0.0,0.0,0.0,0.0,0.0,0.0,0.0,0.0,0.0,0.0,0.0,0.0,0.0,0.0,0.0,0.0,0.0,0.0,0.0,0.0,0.0,0.0,0.0,0.0,0.0,0.0,0.0,0.0,0.0,0.0,0.0,0.0,0.0,0.0,0.0,0.0,0.0,0.0,0.0,0.0,0.0,0.0,0.0,0.0,0.0,0.0,0.0,0.0,0.0,0.0,0.0,0.0,0.0,2.5058,3.03,3.3562,3.2412,3.2836,3.3012,3.2551,3.2028,3.0928,0.0,0.0,0.0,0.0,0.0,0.0,0.0,0.0,0.0,0.0,0.0,0.0,0.0,0.0,0.0,0.0,0.0,0.0,0.0,0.0,0.0,0.0,0.0,0.0,0.0,0.0,0.0,0.0,0.0,0.0,0.0,0.0,0.0,0.0,0.0,0.0,0.0,0.0,0.0,0.0,0.0,0.0,0.0,0.0,0.0,0.0,0.0,0.0,0.0,0.0,0.0,0.0,0.0,0.0,0.0,0.0,0.0,0.0,0.0,0.0,0.0,0.0,0.0,0.0,0.0,0.0,0.0,0.0,0.0,0.0,0.0,0.0,0.0,0.0,0.0,0.0,0.0,0.0,0.0,0.0,0.0,0.0,0.0,0.0,0.0,0.0,0.0,0.0,0.0,0.0,0.0,0.0,0.0,0.0,0.0,0.0,0.0,0.0,0.0,0.0,0.0,0.0,0.0,2.4424,2.8705,3.173,3.2123,3.1586,3.1263,3.1262,3.1196,2.9987,2.7262,0.0,0.0,0.0,0.0,0.0,0.0,0.0,0.0,0.0,0.0,0.0,0.0,0.0,0.0,0.0,0.0,0.0,0.0,0.0,0.0,0.0,0.0,0.0,0.0,0.0,0.0,0.0,0.0,0.0,0.0,0.0,0.0,0.0,0.0,0.0,0.0,0.0,0.0,0.0,0.0,0.0,0.0,0.0,0.0,0.0,0.0,0.0,0.0,0.0,0.0,0.0,0.0,0.0,0.0,0.0,0.0,0.0,0.0,0.0,0.0,0.0,0.0,0.0,0.0,0.0,0.0,0.0,0.0,0.0,0.0,0.0,0.0,0.0,0.0,0.0,0.0,0.0,0.0,0.0,0.0,0.0,0.0,0.0,0.0,0.0,0.0,0.0,0.0,0.0,0.0,0.0,0.0,0.0,0.0,0.0,0.0,0.0,0.0,0.0,0.0,0.0,0.0,0.0,2.7379,3.042,3.1008,3.0711,3.0416,3.0374,2.9992,2.8653,2.619,0.0,0.0,0.0,0.0,0.0,0.0,0.0,0.0,0.0,0.0,0.0,0.0,0.0,0.0,0.0,0.0,0.0,0.0,0.0,0.0,0.0,0.0,0.0,0.0,0.0,0.0,0.0,0.0,0.0,0.0,0.0,0.0,0.0,0.0,0.0,0.0,0.0,0.0,0.0,0.0,0.0,0.0,0.0,0.0,0.0,0.0,0.0,0.0,0.0,0.0,0.0,0.0,0.0,0.0,0.0,0.0,0.0,0.0,0.0,0.0,0.0,0.0,0.0,0.0,0.0,0.0,0.0,0.0,0.0,0.0,0.0,0.0,0.0,0.0,0.0,0.0,0.0,0.0,0.0,0.0,0.0,0.0,0.0,0.0,0.0,0.0,0.0,0.0,0.0,0.0,0.0,0.0,0.0,0.0,0.0,0.0,0.0,0.0,0.0,0.0,0.0,0.0,0.0,2.6406,2.953,2.9398,3.0117,3.0379,2.9614,2.8491,2.7157,2.5666,2.444,0.0,0.0,0.0,0.0,0.0,0.0,0.0,0.0,0.0,0.0,0.0,0.0,0.0,0.0,0.0,0.0,0.0,0.0,0.0,0.0,0.0,0.0,0.0,0.0,0.0,0.0,0.0,0.0,0.0,0.0,0.0,0.0,0.0,0.0,0.0,0.0,0.0,0.0,0.0,0.0,0.0,0.0,0.0,0.0,0.0,0.0,0.0,0.0,0.0,0.0,0.0,0.0,0.0,0.0,0.0,0.0,0.0,0.0,0.0,0.0,0.0,0.0,0.0,0.0,0.0,0.0,0.0,0.0,0.0,0.0,0.0,0.0,0.0,0.0,0.0,0.0,0.0,0.0,0.0,0.0,0.0,0.0,0.0,0.0,0.0,0.0,0.0,0.0,0.0,0.0,0.0,0.0,0.0,0.0,0.0,0.0,0.0,0.0,0.0,0.0,0.0,0.0,2.6172,2.8095,2.9224,2.974,2.9352,2.7815,2.7757,2.6875,2.4769,2.4716,0.0,0.0,0.0,0.0,0.0,0.0,0.0,0.0,0.0,0.0,0.0,0.0,0.0,0.0,0.0,0.0,0.0,0.0,0.0,0.0,0.0,0.0,0.0,0.0,0.0,0.0,0.0,0.0,0.0,0.0,0.0,0.0,0.0,0.0,0.0,0.0,0.0,0.0,0.0,0.0,0.0,0.0,0.0,0.0,0.0,0.0,0.0,0.0,0.0,0.0,0.0,0.0,0.0,0.0,0.0,0.0,0.0,0.0,0.0,0.0,0.0,0.0,0.0,0.0,0.0,0.0,0.0,0.0,0.0,0.0,0.0,0.0,0.0,0.0,0.0,0.0,0.0,0.0,0.0,0.0,0.0,0.0,0.0,0.0,0.0,0.0,0.0,0.0,0.0,0.0,0.0,0.0,0.0,0.0,0.0,0.0,0.0,0.0,0.0,0.0,0.0,0.0,2.2566,2.527,2.8648,2.8472,2.7822,2.7076,2.6703,2.5745,2.3783,2.3484,0.0,0.0,0.0,0.0,0.0,0.0,0.0,0.0,0.0,0.0,0.0,0.0,0.0,0.0,0.0,0.0,0.0,0.0,0.0,0.0,0.0,0.0,0.0,0.0,0.0,0.0,0.0,0.0,0.0,0.0,0.0,0.0,0.0,0.0,0.0,0.0,0.0,0.0,0.0,0.0,0.0,0.0,0.0,0.0,0.0,0.0,0.0,0.0,0.0,0.0,0.0,0.0,0.0,0.0,0.0,0.0,0.0,0.0,0.0,0.0,0.0,0.0,0.0,0.0,0.0,0.0,0.0,0.0,0.0,0.0,0.0,0.0,0.0,0.0,0.0,0.0,0.0,0.0,0.0,0.0,0.0,0.0,0.0,0.0,0.0,0.0,0.0,0.0,0.0,0.0,0.0,0.0,0.0,0.0,0.0,0.0,0.0,0.0,0.0,0.0,0.0,0.0,0.0,2.228,2.7054,2.6739,2.6324,2.6466,2.5555,2.4287,2.2679,0.0,0.0,0.0,0.0,0.0,0.0,0.0,0.0,0.0,0.0,0.0,0.0,0.0,0.0,0.0,0.0,0.0,0.0,0.0,0.0,0.0,0.0,0.0,0.0,0.0,0.0,0.0,0.0,0.0,0.0,0.0,0.0,0.0,0.0,0.0,0.0,0.0,0.0,0.0,0.0,0.0,0.0,0.0,0.0,0.0,0.0,0.0,0.0,0.0,0.0,0.0,0.0,0.0,0.0,0.0,0.0,0.0,0.0,0.0,0.0,0.0,0.0,0.0,0.0,0.0,0.0,0.0,0.0,0.0,0.0,0.0,0.0,0.0,0.0,0.0,0.0,0.0,0.0,0.0,0.0,0.0,0.0,0.0,0.0,0.0,0.0,0.0,0.0,0.0,0.0,0.0,0.0,0.0,0.0,0.0,0.0,0.0,0.0,0.0,0.0,0.0,0.0,0.0,0.0,2.1162,2.2801,2.4941,2.5716,2.4338,2.4436,2.3499,2.0945,0.0,0.0,0.0,0.0,0.0,0.0,0.0,0.0,0.0,0.0,0.0,0.0,0.0,0.0]}]]]